     2              OBSERVATION DATA    GPS                 RINEX VERSION / TYPE
ASRINEXO V2.8.2 VM                                          PGM / RUN BY / DATE
                                                            COMMENT
Original Marker Name: 0504                                  COMMENT
Campaign Name: HPGN 1991                                    COMMENT
4-Character Station Name: 0504                              COMMENT
6-Character Antenna Code: ASHL12                            COMMENT
Vertical Measurement Point: BAS                             COMMENT
Vertical Offset to Rinex Ref. Point: 0.0000                 COMMENT
Radial Measurement Point: RRP                               COMMENT
Radial Offset to Rinex Ref. Point: 0.0000                   COMMENT
Antenna Height from Field Measurement: 2.2200 m             COMMENT
Original XYZ: 6378137.0000 0.0000 0.0000                    COMMENT
New XYZ position is based on association with SCEC monument COMMENT
E1E9P8F6+0011. Position of that monument is believed to be  COMMENT
valid to within 1 m horizontally; vertical accuracy         COMMENT
should be no worse than 3-times this value.                 COMMENT
                                                            COMMENT
Revised Rinex header created by UCSD GPS archive for        COMMENT
GSAC on 19-Apr-1999 (1999:109) 07:02:01 GMT                 COMMENT
For assistance contact dagnew@ucsd.edu or hjohnson@ucsd.edu COMMENT
                                                            COMMENT
HPGN-CALIF STA 05-04                                        MARKER NAME
PTD CALIF DEPT TRANSPORTATION                               OBSERVER / AGENCY
572 ASHTECH L-XII3 6A                                       REC # / TYPE / VERS
642 ASHTECH GEODETIC L                                      ANT # / TYPE
 -2602485.0000 -4537278.0000  3638445.0000                  APPROX POSITION XYZ
        2.2200        0.0000        0.0000                  ANTENNA: DELTA H/E/N
     1     2     0                                          WAVELENGTH FACT L1/2
     3    C1    L1    L2                                    # / TYPES OF OBSERV
     0                                                      INTERVAL
  1991     4    30    19    29   15.000000                  TIME OF FIRST OBS
  1991     5     1     1    30    0.000000                  TIME OF LAST OBS
     0                                                      # OF SATELLITES
                                                            END OF HEADER
 91  4 30 19 29 15.0000000  0  1 19
  29372211.944           0.920 3         0.045 2
 91  4 30 19 29 30.0000000  0  1 19
  29371237.916       -5096.246 3     -3971.749 2
 91  4 30 19 29 45.0000000  0  1 19
  29370268.086      -10191.237 3     -7941.854 2
 91  4 30 19 30  0.0000000  0  1 19
  29369313.550      -15219.030 3    -11859.602 3
 91  4 30 19 30 15.0000000  0  1 19
  29368377.599      -20130.888 3    -15686.999 2
 91  4 30 19 30 30.0000000  0  1 19
  29367470.720      -24898.519 3    -19402.016 2
 91  4 30 19 30 45.0000000  0  2 19 02
  29966182.342      -29497.337 3    -22985.493 2
  32711731.441           0.822 2         0.419 1
 91  4 30 19 31  0.0000000  0  2 19 02
  29965345.621      -33924.363 3    -26435.113 2
  32702128.490      -50424.484 2    -39291.871 1
 91  4 30 19 31 15.0000000  0  2 19 02
  29364947.671      -38165.873 3    -29740.175 2
  32092985.886     -100665.876 2    -78440.904 1
 91  4 30 19 31 30.0000000  0  2 19 02
  29364173.606      -42215.072 3    -32895.375 2
  32083461.479     -150703.948 2   -117431.447 1
 91  4 30 19 31 45.0000000  0  2 19 02
  29963026.732      -46072.528 3    -35901.164 2
  32673563.967     -200539.027 2   -156263.884 1
 91  4 30 19 32  0.0000000  0  2 19 02
  29962328.208      -49731.623 3    -38752.395 2
  32664121.697     -250176.620 2   -194942.369 1
 91  4 30 19 32 15.0000000  0  4 19 16 18 02
  29661880.105      -53201.063 3    -41455.837 2
  33168035.047           0.145 2         0.394 1
  29620999.210           0.375 4         0.117 3
  32354909.763     -299622.154 2   -233471.198 1
 91  4 30 19 32 30.0000000  0  4 19 16 18 02
  29661253.843      -56489.457 3    -44018.208 2
  33161506.170      -34289.342 2    -26718.687 1
  29624500.482       18397.258 4     14335.327 3
  32345544.249     -348878.070 2   -271852.331 1
 91  4 30 19 32 45.0000000  0  4 19 16 18 02
  20966682.872        1833.809 3      1428.502 2
  24461049.065      116202.264 2     90547.319 1
  20934075.945      -60440.191 4    -47096.297 3
  23642210.337      203534.587 2    158598.885 1
 91  4 30 19 33  0.0000000  0  4 19 16 18 02
  20966132.448       -1052.189 3      -820.322 2
  24454614.324       82448.150 2     64245.381 1
  20937681.543      -41512.843 4    -32347.736 3
  23632918.567      154693.038 2    120540.679 1
 91  4 30 19 33 15.0000000  0  5 19 11 16 18 02
  20965622.204       -3732.682 3     -2908.996 2
  23862433.681           0.002 2         0.140 1
  24448248.833       48966.498 2     38155.787 1
  20941332.417      -22316.021 4    -17389.193 3
  23623655.887      106063.324 2     82647.510 1
 91  4 30 19 33 30.0000000  0  5 19 11 16 18 02
  20965149.425       -6210.779 3     -4839.964 2
  23856376.972      -31786.459 2    -24768.457 1
  24441920.809       15754.098 2     12276.022 1
  20945036.950       -2853.002 4     -2223.224 3
  23614444.763       57642.380 2     44917.020 1
 91  4 30 19 33 45.0000000  0  5 19 11 16 18 02
  20964717.724       -8488.301 3     -6614.637 2
  23850375.432      -63315.026 2    -49336.084 1
  24435656.643      -17190.487 2    -13395.060 1
  20948789.759       16874.294 4     13148.674 3
  23605269.910        9428.487 2      7347.864 1
 91  4 30 19 34  0.0000000  0  5 19 11 16 18 02
  20964322.302      -10565.861 3     -8233.498 2
  23844430.248      -94585.690 2    -73702.772 1
  24429432.360      -49867.701 2    -38857.809 1
  20952595.320       36865.221 4     28725.999 3
  23596138.237      -38578.510 2    -30060.076 1
 91  4 30 19 34 15.0000000  0  5 19 11 16 18 02
  20963963.151      -12446.746 3     -9699.101 2
  23838523.131     -125601.234 2    -97870.615 1
  24423273.715      -82280.198 2    -64114.383 1
  20956449.453       57116.854 4     44506.460 3
  23587042.232      -86381.560 2    -67309.055 1
 91  4 30 19 34 30.0000000  0  5 19 11 16 18 02
  20963643.873      -14138.884 3    -11017.648 3
  23832674.481     -156369.445 2   -121845.760 1
  24417151.062     -114435.768 2    -89170.620 1
  20960349.751       77621.072 4     60483.746 3
  23577985.203     -133988.743 2   -104405.449 1
 91  4 30 19 34 45.0000000  0  5 19 11 16 18 02
  20963355.473      -15643.590 3    -12190.118 3
  23826864.806     -186891.424 2   -145629.061 1
  24411087.452     -146335.849 2   -114027.839 1
  20964299.216       98376.230 4     76656.570 3
  23568956.949     -181401.164 2   -141350.098 1
 91  4 30 19 35  0.0000000  0  5 19 11 16 18 02
  20963105.446      -16962.092 3    -13217.509 3
  23821102.797     -217168.090 2   -169221.172 1
  24405064.928     -177981.420 2   -138686.752 1
  20968297.252      119381.038 4     93023.933 3
  23559974.868     -228619.925 2   -178143.818 1
 91  4 30 19 35 15.0000000  0  5 19 11 16 18 02
  20962891.393      -18097.962 3    -14102.590 3
  23815383.654     -247202.651 2   -192624.675 1
  24399089.764     -209375.893 2   -163149.976 1
  20972342.352      140632.108 4    109583.189 3
  23551022.165     -275648.377 2   -214789.228 1
 91  4 30 19 35 30.0000000  0  5 19 11 16 18 02
  20962707.319      -19055.804 3    -14848.938 2
  23809712.176     -276999.232 2   -215842.721 1
  24393166.759     -240523.475 2   -187420.796 1
  20976430.921      162124.656 4    126330.616 2
  23542103.943     -322490.928 2   -251289.799 1
 91  4 30 19 35 45.0000000  0  6 19 11 16 18 06 02
  20962556.523      -19837.464 3    -15458.008 2
  23804091.670     -306559.141 2   -238876.340 1
  24387277.336     -271425.591 2   -211500.358 1
  20980565.960      183856.777 4    143264.713 3
  24927363.949           0.881 2         0.336 1
  23533231.580     -369149.040 2   -287646.634 1
 91  4 30 19 36  0.0000000  0  6 19 11 16 18 06 02
  20962439.904      -20442.490 3    -15929.435 3
  23798509.538     -335881.661 2   -261724.953 1
  24381446.974     -302081.598 2   -235388.223 1
  20984748.061      205829.091 4    160385.965 3
  24920531.072      -35951.576 2    -28014.459 1
  23524382.907     -415622.319 2   -323859.510 1
 91  4 30 19 36 15.0000000  0  6 19 11 16 18 06 02
  20962358.961      -20875.291 3    -16266.672 3
  23792976.867     -364970.803 2   -284391.738 1
  24375655.884     -332495.442 2   -259087.272 1
  20988974.539      228037.373 4    177691.091 3
  24913716.796      -71756.607 2    -55914.424 1
  23515581.305     -461914.723 2   -359931.403 1
 91  4 30 19 36 30.0000000  0  6 19 11 16 18 06 02
  20962311.592      -21140.794 3    -16473.545 2
  23787483.164     -393831.227 2   -306880.312 1
  24369918.156     -362672.088 2   -282601.509 1
  20993243.281      250476.187 4    195175.859 3
  24906929.194     -107419.262 2    -83703.418 1
  23506806.672     -508031.177 2   -395866.178 1
 91  4 30 19 36 45.0000000  0  6 19 11 16 18 06 02
  20962289.108      -21241.781 3    -16552.222 2
  23782031.742     -422465.251 2   -329192.476 1
  24364212.502     -392614.358 2   -305933.181 1
  20997556.094      273143.091 4    212838.363 3
  24900166.772     -142942.284 2   -111383.573 1
  23498058.730     -553974.425 2   -431665.995 1
 91  4 30 19 37  0.0000000  0  6 19 11 16 18 06 02
  20962301.698      -21179.461 3    -16503.632 2
  23776627.087     -450873.770 2   -351328.894 1
  24358559.923     -422323.048 2   -329082.811 1
  21001913.282      296036.375 4    230677.260 3
  24893434.330     -178326.936 2   -138956.127 1
  23489341.971     -599745.404 2   -467331.605 1
 91  4 30 19 37 15.0000000  0  6 19 11 16 18 06 02
  20962342.470      -20957.031 3    -16330.302 2
  23771268.291     -479059.687 2   -373291.899 1
  24352956.798     -451800.986 2   -352052.544 1
  21006313.032      319152.882 4    248690.094 3
  24886726.475     -213576.623 2   -166423.259 1
  23480672.572     -645347.183 2   -502865.329 1
 91  4 30 19 37 30.0000000  0  6 19 11 16 18 06 02
  20962420.115      -20574.870 3    -16032.504 2
  23765942.484     -507023.114 2   -395081.513 1
  24347393.546     -481048.558 2   -374842.925 1
  21010752.062      342492.181 4    266876.526 3
  24880046.200     -248691.669 2   -193785.475 1
  23472026.556     -690779.962 2   -538267.360 1
 91  4 30 19 37 45.0000000  0  6 19 11 16 18 06 02
  20962518.752      -20038.312 3    -15614.390 2
  23760666.132     -534768.964 2   -416701.592 1
  24341868.973     -510070.932 2   -397457.670 1
  21015235.459      366049.227 4    285232.629 3
  24873381.813     -283677.433 2   -221047.011 1
  23463411.715     -736048.765 2   -573541.632 2
 91  4 30 19 38  0.0000000  0  6 19 11 16 18 06 02
  20962647.657      -19350.104 3    -15078.110 2
  23755421.861     -562299.634 2   -438154.025 1
  24336384.876     -538870.406 2   -419898.848 1
  21019759.026      389820.987 4    303756.041 3
  24866747.406     -318536.745 2   -248210.084 1
  23454822.360     -781156.145 2   -608690.163 1
 91  4 30 19 38 15.0000000  0  6 19 11 16 18 06 02
  20962809.848      -18511.451 3    -14424.602 2
  23750224.663     -589615.860 2   -459439.347 1
  24330946.934     -567447.867 2   -442167.033 1
  21024323.366      413806.042 4    322445.666 3
  24860142.979     -353270.688 2   -275275.255 1
  23446274.685     -826103.260 2   -643713.741 1
 91  4 30 19 38 30.0000000  0  6 19 11 16 18 06 02
  20962999.619      -17520.368 3    -13652.318 3
  23745069.729     -616715.339 2   -480555.739 1
  24325562.067     -595801.392 2   -464260.602 1
  21028929.674      438006.389 4    341303.058 3
  24853553.541     -387877.393 2   -302241.563 1
  23437755.183     -870887.903 2   -678610.762 1
 91  4 30 19 38 45.0000000  0  6 19 11 16 18 06 02
  20963215.766      -16376.366 3    -12760.873 2
  23739954.372     -643597.169 2   -501502.534 1
  24320201.771     -623930.156 2   -486179.167 1
  21033576.161      462422.865 4    360328.853 3
  24846995.584     -422356.358 2   -329108.123 1
  23429259.065     -915509.375 2   -713380.618 1
 91  4 30 19 39  0.0000000  0  6 19 11 16 18 06 02
  20963458.298      -15082.160 3    -11752.392 2
  23734878.889     -670263.881 2   -522281.713 1
  24314891.251     -651836.538 2   -507924.411 1
  21038261.911      487052.282 4    379520.584 3
  24840448.419     -456710.282 2   -355877.469 1
  23420797.123     -959970.168 2   -748025.286 1
 91  4 30 19 39 15.0000000  0  6 19 11 16 18 06 02
  20963734.404      -13640.164 3    -10628.748 2
  23729846.569     -696717.485 2   -542894.831 1
  24309619.103     -679522.840 2   -529498.131 1
  21042988.442      511892.127 4    398876.271 3
  24833942.620     -490941.896 2   -382551.398 1
  23412364.855    -1004272.584 2   -782546.549 1
 91  4 30 19 39 30.0000000  0  6 19 11 16 18 06 02
  20964038.099      -12057.365 3     -9395.392 2
  23724852.029     -722964.525 2   -563347.015 1
  24304386.219     -706995.802 2   -550905.661 1
  21047756.042      536935.623 4    418390.666 3
  24827444.621     -525057.839 2   -409135.145 1
  23403969.773    -1048423.248 2   -816949.555 1
 91  4 30 19 39 45.0000000  0  6 19 11 16 18 06 02
  20964366.975      -10334.809 3     -8053.134 2
  23719895.862     -749005.829 2   -583638.877 1
  24299205.206     -734256.424 2   -572147.668 1
  21052556.920      562181.693 4    438062.890 3
  24820977.797     -559059.405 2   -435629.727 1
  23395598.363    -1092423.279 2   -851235.155 1
 91  4 30 19 40  0.0000000  0  5 19 11 16 18 02
  20964719.827       -8474.196 3     -6603.297 2
  23714980.764     -774842.810 2   -603771.533 1
  24294061.371     -761306.117 2   -593225.315 1
  21057404.861      587628.231 4    457891.331 3
  23387250.344    -1136274.212 2   -885404.588 1
 91  4 30 19 40 15.0000000  0  5 19 11 16 18 02
  20965100.861       -6477.676 3     -5047.563 2
  23710099.240     -800477.211 2   -623746.337 1
  24288949.914     -788146.687 2   -614140.091 1
  21062281.586      613273.203 4    477874.399 3
  23378929.601    -1179977.971 2   -919459.354 1
 91  4 30 19 40 30.0000000  0  5 19 11 16 18 02
  20965506.779       -4344.076 3     -3385.005 3
  23705262.685     -825907.509 2   -643562.092 1
  24283882.222     -814776.787 2   -634890.759 1
  21067200.279      639117.722 4    498012.959 3
  23370639.447    -1223533.314 2   -953398.507 1
 91  4 30 19 40 45.0000000  0  5 19 11 16 18 02
  20965933.690       -2079.241 3     -1620.186 2
  23700458.212     -851139.087 2   -663223.050 1
  24278847.206     -841202.045 2   -655481.886 1
  21072154.954      665156.046 4    518302.535 3
  23362379.561    -1266945.780 2   -987226.260 1
 91  4 30 19 41  0.0000000  0  5 19 11 16 18 02
  20966391.165         316.198 3       246.394 2
  23695692.113     -876172.314 2   -682729.318 1
  24273869.750     -867422.991 2   -675913.801 1
  21077147.697      691387.436 4    538742.543 3
  23354150.257    -1310215.834 2  -1020943.059 1
 91  4 30 19 41 15.0000000  0  5 19 11 16 18 02
  20966871.133        2843.179 3      2215.474 2
  23690971.881     -901006.022 2   -702080.211 1
  24268919.577     -893438.406 2   -696185.472 1
  21082174.616      717812.757 4    559333.670 3
  23345939.842    -1353342.488 2  -1054548.136 1
 91  4 30 19 41 30.0000000  0  5 19 11 16 18 02
  20967382.582        5499.322 3      4285.211 2
  23686279.230     -925642.152 2   -721277.134 1
  24264004.182     -919250.460 2   -716298.816 1
  21087240.205      744429.278 4    580073.783 3
  23337762.705    -1396327.830 2  -1088043.118 1
 91  4 30 19 41 45.0000000  0  5 19 11 16 18 02
  20967909.020        8283.354 3      6454.591 3
  23681627.953     -950081.617 2   -740320.795 1
  24259130.153     -944860.216 2   -736254.461 1
  21092340.275      771235.675 4    600961.847 3
  23329609.850    -1439173.065 2  -1121428.878 1
 91  4 30 19 42  0.0000000  0  5 19 11 16 18 02
  20968459.740       11194.010 3      8722.639 3
  23677015.939     -974325.427 2   -759211.968 1
  24254298.702     -970268.781 2   -756053.358 1
  21097476.922      798230.686 4    621996.884 3
  23321480.378    -1481879.355 2  -1154706.382 1
 91  4 30 19 42 15.0000000  0  5 19 11 16 18 02
  20969038.337       14229.785 3     11088.189 2
  23672442.307     -998374.685 2   -777951.627 1
  24249497.223     -995477.223 2   -775696.288 1
  21102650.440      825412.887 4    643177.784 2
  23313379.987    -1524447.848 2  -1187876.521 1
 91  4 30 19 42 30.0000000  0  5 19 11 16 18 02
  20969642.115       17390.197 3     13550.864 3
  23667903.749    -1022229.596 2   -796539.795 1
  24244738.915    -1020485.940 2   -795183.611 1
  21107857.838      852781.502 4    664503.949 3
  23305314.068    -1566879.018 2  -1220939.662 2
 91  4 30 19 42 45.0000000  0  5 19 11 16 18 02
  20970265.986       20674.063 3     16109.723 2
  23663393.077    -1045891.095 2   -814977.208 1
  24240012.392    -1045296.314 2   -814516.364 1
  21113101.506      880335.464 4    685974.539 3
  23297257.748    -1609173.997 2  -1253896.696 1
 91  4 30 19 43  0.0000000  0  5 19 11 16 18 02
  20970912.935       24079.773 3     18763.529 3
  23658925.263    -1069360.539 2   -833264.995 1
  24235331.433    -1069909.613 2   -833695.535 1
  21118380.852      908072.950 4    707588.136 2
  23289238.596    -1651334.117 2  -1286748.628 1
 91  4 30 19 43 15.0000000  0  5 19 11 16 18 02
  20971582.675       27608.160 3     21512.935 2
  23654507.226    -1092636.511 2   -851402.065 1
  24230687.642    -1094324.564 2   -852720.156 1
  21123692.576      935994.854 4    729345.420 2
  23281234.434    -1693358.320 2  -1319494.638 1
 91  4 30 19 43 30.0000000  0  5 19 11 16 18 02
  20972285.988       31254.465 3     24354.230 3
  23650108.375    -1115723.511 2   -869391.860 1
  24226073.839    -1118545.850 2   -871593.858 1
  21129040.867      964096.140 4    751242.489 2
  23273268.654    -1735251.182 2  -1352138.299 1
 91  4 30 19 43 45.0000000  0  6 19 11 16 18 06 02
  20972998.891       35019.804 3     27288.265 2
  23645754.485    -1138620.091 2   -887233.250 1
  24221498.409    -1142571.940 2   -890315.476 1
  21134423.639      992378.281 4    773280.491 2
  24720178.875      105360.18012     82099.813 1
  23265322.951    -1777011.276 2  -1384678.544 1
 91  4 30 19 44  0.0000000  0  6 19 11 16 18 06 02
  20973734.287       38899.024 3     30311.047 2
  23641433.575    -1161331.151 2   -904930.112 1
  24216971.544    -1166408.020 2   -908889.013 1
  21139837.299     1020835.799 4    795455.149 3
  24714039.129       73077.349 2     56944.115 1
  23257398.842    -1818643.795 2  -1417119.358 1
 91  4 30 19 44 15.0000000  0  6 19 11 16 18 06 02
  20974492.760       42892.725 3     33423.035 2
  23637143.849    -1183855.888 2   -922481.806 1
  24212465.060    -1190053.688 2   -927314.201 1
  21145286.627     1049468.726 4    817766.491 3
  24707909.574       40882.725 2     31857.438 1
  23249499.608    -1860148.195 2  -1449460.313 1
 91  4 30 19 44 30.0000000  0  6 19 11 16 18 06 02
  20975276.415       47001.440 3     36624.643 3
  23632898.482    -1206193.227 2   -939887.443 1
  24208004.749    -1213508.039 2   -945590.328 1
  21150770.131     1078277.853 4    840215.130 3
  24701798.604        8776.985 2      6840.060 1
  23241626.759    -1901523.583 2  -1481700.790 1
 91  4 30 19 44 45.0000000  0  6 19 11 16 18 06 02
  20976079.264       51220.271 3     39912.048 3
  23628678.007    -1228347.882 2   -957150.745 1
  24203574.418    -1236775.247 2   -963720.582 1
  21156285.412     1107258.329 4    862797.294 3
  24695708.015      -23244.886 2    -18111.967 1
  23233776.089    -1942774.757 2  -1513844.456 1
 91  4 30 19 45  0.0000000  0  6 19 11 16 18 06 02
  20976901.597       55547.734 3     43284.112 2
  23624497.999    -1250321.132 2   -974272.668 1
  24199186.954    -1259856.982 2   -981706.376 1
  21161830.672     1136408.384 4    885511.584 2
  24689625.829      -55184.470 2    -42999.786 1
  23225950.312    -1983903.145 2  -1545892.437 1
 91  4 30 19 45 15.0000000  0  6 19 11 16 18 06 02
  20977745.507       59986.030 3     46742.542 2
  23620349.472    -1272110.309 2   -991251.174 1
  24194833.665    -1282750.618 2   -999545.506 1
  21167412.805     1165730.397 4    908359.864 2
  24683565.822      -87039.498 2    -67821.812 1
  23218148.512    -2024906.190 2  -1577842.764 1
 91  4 30 19 45 30.0000000  0  6 19 11 16 18 06 02
  20978611.910       64533.350 3     50285.920 3
  23616242.319    -1293716.888 2  -1008087.399 1
  24190510.060    -1305458.067 2  -1017239.618 1
  21173021.619     1195222.410 4    931340.624 2
  24677522.908     -118811.883 2    -92579.395 1
  23210363.499    -2065785.480 2  -1609696.639 1
 91  4 30 19 45 45.0000000  0  6 19 11 16 18 06 02
  20979498.093       69189.876 3     53914.399 2
  23612163.941    -1315140.456 2  -1024781.017 1
  24186231.423    -1327978.889 2  -1034788.321 1
  21178667.916     1224884.322 4    954453.764 2
  24671490.481     -150501.571 2   -117272.609 1
  23202606.371    -2106540.833 2  -1641453.990 1
 91  4 30 19 46  0.0000000  0  6 19 11 16 18 06 02
  20980401.971       73951.742 3     57624.958 2
  23608118.536    -1336384.583 2  -1041334.809 1
  24181970.473    -1350316.911 2  -1052194.528 1
  21184344.481     1254712.222 4    977696.249 2
  24665478.445     -182112.398 2   -141904.300 1
  23194880.121    -2147175.887 2  -1673117.562 1
 91  4 30 19 46 15.0000000  0  6 19 11 16 18 06 02
  20981331.326       78817.734 3     61416.646 3
  23604114.513    -1357450.072 2  -1057749.427 1
  24177758.985    -1372473.064 2  -1069459.074 1
  21190051.033     1284704.804 4   1001067.049 3
  24659473.005     -213645.590 2   -166475.539 1
  23187166.758    -2187691.729 2  -1704688.233 2
 91  4 30 19 46 30.0000000  0  6 19 11 16 18 06 02
  20982275.374       83789.337 3     65290.637 2
  23600133.569    -1378335.326 2  -1074023.554 1
  24173572.084    -1394445.844 2  -1086580.671 1
  21195791.160     1314863.386 4   1024567.214 3
  24653490.939     -245100.038 2   -190985.357 1
  23179483.977    -2228086.865 2  -1736164.866 1
 91  4 30 19 46 45.0000000  0  6 19 11 16 18 06 02
  20983241.008       88862.950 3     69244.115 2
  23596194.898    -1399043.403 2  -1090159.675 1
  24169429.848    -1416238.807 2  -1103562.195 1
  21201561.564     1345184.564 4   1048194.080 2
  24647515.784     -276479.147 2   -215436.548 1
  23171814.388    -2268364.720 2  -1767550.094 1
 91  4 30 19 47  0.0000000  0  6 19 11 16 18 06 02
  20984226.422       94036.836 3     73275.736 2
  23592291.598    -1419575.831 2  -1106158.877 1
  24165314.301    -1437852.895 2  -1120404.318 1
  21207359.852     1375666.433 4   1071946.162 2
  24641555.008     -307784.623 2   -239830.297 1
  23164168.480    -2308526.764 2  -1798845.104 2
 91  4 30 19 47 15.0000000  0  6 19 11 16 18 06 02
  20985230.124       99311.089 3     77385.555 3
  23588410.783    -1439932.323 2  -1122021.051 1
  24161229.929    -1459288.067 2  -1137106.998 1
  21213192.317     1406308.724 4   1095823.234 2
  24635621.515     -339016.498 2   -264166.718 1
  23156553.152    -2348572.789 2  -1830049.677 1
 91  4 30 19 47 30.0000000  0  6 19 11 16 18 06 02
  20986249.722      104682.921 3     81571.406 2
  23584574.335    -1460115.259 2  -1137747.962 1
  24157191.425    -1480547.080 2  -1153672.448 1
  21219055.058     1437108.576 4   1119823.100 2
  24629685.623     -370177.586 2   -288448.041 1
  23148953.111    -2388505.603 2  -1861166.030 1
 91  4 30 19 47 45.0000000  0  6 19 11 16 18 06 02
  20987294.196      110155.327 3     85835.632 2
  23580764.281    -1480121.523 2  -1153337.209
  24153173.905    -1501626.859 2  -1170098.271 1
  21224943.276     1468068.914 4   1143948.002 2
  24623773.114     -401264.985 2   -312671.880
  23141382.753    -2428322.003 2  -1892191.689 1
 91  4 30 19 48  0.0000000  0  6 19 11 16 18 06 02
  20988357.264      115723.733 3     90174.664 2
  23576986.893    -1499955.302 2  -1168792.038 1
  24149204.051    -1522531.772 2  -1186387.792 1
  21230865.679     1499185.170 4   1168194.395 3
  24617870.202     -432283.277 2   -336841.887 1
  23133820.788    -2468026.256 2  -1923129.973 2
 91  4 30 19 48 15.0000000  0  6 19 11 16 18 06 02
  20989429.920      121387.729 3     94588.174 3
  23573251.779    -1519616.508 2  -1184112.382 1
  24145255.791    -1543262.012 2  -1202541.197 1
  21236816.561     1530456.831 4   1192561.879 2
  24611980.780     -463232.917 2   -360958.372 1
  23126288.507    -2507618.676 2  -1953981.107 2
 91  4 30 19 48 30.0000000  0  6 19 11 16 18 06 02
  20990526.265      127148.343 3     99076.970 2
  23569544.245    -1539103.910 2  -1199297.320 1
  24141342.597    -1563816.177 2  -1218557.384 1
  21242797.719     1561884.822 3   1217051.182 2
  24606100.353     -494113.050 2   -385020.757 1
  23118772.707    -2547098.082 2  -1984744.169 1
 91  4 30 19 48 45.0000000  0  6 19 11 16 18 06 02
  20991641.491      133006.223 3    103641.573 2
  23565869.988    -1558416.706 2  -1214346.178 1
  24137465.376    -1584193.782 2  -1234436.007 1
  21248805.855     1593469.617 3   1241662.682 2
  24600235.213     -524922.975 2   -409028.402 1
  23111285.089    -2586463.836 2  -2015418.685 1
 91  4 30 19 49  0.0000000  0  6 19 11 16 18 06 02
  20992775.301      138959.756 3    108280.694 3
  23562223.608    -1577556.124 2  -1229259.956 1
  24133616.042    -1604395.866 2  -1250177.881 1
  21254847.871     1625209.494 3   1266395.022 2
  24594385.961     -555664.368 2   -432982.658 1
  23103811.867    -2625717.267 2  -2046005.657 1
 91  4 30 19 49 15.0000000  0  6 19 11 16 18 06 02
  20993924.407      145006.355 3    112992.340 2
  23558614.414    -1596524.525 2  -1244040.476 1
  24129812.278    -1624425.138 2  -1265785.055 1
  21260914.474     1657101.894 3   1291246.194 2
  24588548.401     -586339.855 2   -456885.601 1
  23096367.116    -2664860.904 2  -2076507.100 1
 91  4 30 19 49 30.0000000  0  6 19 11 16 18 06 02
  20995095.395      151146.774 3    117777.089 2
  23555044.178    -1615320.786 2  -1258686.873 1
  24126038.189    -1644280.390 2  -1281256.664 1
  21267014.355     1689147.360 3   1316216.634 2
  24582724.635     -616948.764 2   -480736.546 1
  23088936.464    -2703893.615 2  -2106922.095 1
 91  4 30 19 49 45.0000000  0  6 19 11 16 18 06 02
  20996283.475      157382.348 3    122635.995 2
  23551488.644    -1633943.277 2  -1273197.805 1
  24122286.592    -1663960.372 2  -1296591.683 1
  21273142.112     1721347.136 3   1341307.323 2
  24576915.859     -647489.829 2   -504534.783 1
  23081532.188    -2742814.220 2  -2137249.713 1
 91  4 30 19 50  0.0000000  0  6 19 11 16 18 06 02
  20997488.343      163710.537 3    127567.054 2
  23547985.870    -1652394.360 2  -1287575.251 1
  24118579.957    -1683467.662 2  -1311792.159 1
  21279297.450     1753698.356 3   1366516.014 2
  24571118.172     -677965.613 2   -528282.011 1
  23074146.802    -2781625.109 2  -2167491.846 1
 91  4 30 19 50 15.0000000  0  6 19 11 16 18 06 02
  20998706.394      170129.133 3    132568.556 2
  23544505.878    -1670676.129 2  -1301820.744 1
  24114891.906    -1702804.508 2  -1326859.788 1
  21285481.868     1786198.579 3   1391840.818 2
  24565330.380     -708378.629 2   -551980.340
  23066783.596    -2820328.388 2  -2197650.149 1
 91  4 30 19 50 30.0000000  0  6 19 11 16 18 06 02
  20999943.641      176636.603 3    137639.329 2
  23541060.062    -1688789.595 2  -1315935.060 1
  24111242.236    -1721972.080 2  -1341795.535 1
  21291696.562     1818846.550 3   1417280.757 3
  24559550.973     -738730.215 2   -575630.937 1
  23059435.388    -2858925.263 2  -2227725.533 1
 91  4 30 19 50 45.0000000  0  6 19 11 16 18 06 02
  21001200.668      183233.979 3    142780.141 2
  23537643.030    -1706733.489 2  -1329917.292 1
  24107631.236    -1740968.787 2  -1356598.115 1
  21297936.446     1851643.131 3   1442836.496 2
  24553783.266     -769019.396 1   -599232.777 1
  23052112.055    -2897414.647 2  -2257717.147 1
 91  4 30 19 51  0.0000000  0  6 19 11 16 18 06 02
  21002475.685      189923.769 3    147992.974 2
  23534269.467    -1724505.084 2  -1343765.251 1
  24104044.213    -1759792.909 2  -1371266.229 1
  21304207.208     1884590.410 3   1468509.670 2
  24548044.639     -799243.995 2   -622784.314 1
  23044810.308    -2935794.070 2  -2287623.077 1
 91  4 30 19 51 15.0000000  0  6 19 11 16 18 06 02
  21003763.598      196704.637 3    153276.771 2
  23530907.290    -1742105.195 2  -1357479.512 1
  24100500.074    -1778444.763 2  -1385800.111 1
  21310504.948     1917687.078 3   1494299.244 2
  24542291.625     -829405.016 2   -646286.432 1
  23037526.849    -2974064.447 2  -2317444.030 1
 91  4 30 19 51 30.0000000  0  6 19 11 16 18 06 02
  21005069.494      203576.860 3    158631.762 2
  23527593.686    -1759533.191 2  -1371059.751 1
  24096983.803    -1796924.138 2  -1400199.612 1
  21316829.666     1950933.672 4   1520205.647 2
  24536560.494     -859502.197 1   -669738.665 1
  23030259.287    -3012225.374 2  -2347179.711 1
 91  4 30 19 51 45.0000000  0  6 19 11 16 18 06 02
  21006392.474      210537.664 3    164055.770 2
  23524310.357    -1776791.651 2  -1384507.844 1
  24093502.912    -1815233.669 2  -1414466.773 1
  21323185.864     1984327.329 4   1546226.642 2
  24530855.739     -889538.400 2   -693143.335 1
  23023021.992    -3050279.485 2  -2376832.181 1
 91  4 30 19 52  0.0000000  0  6 19 11 16 18 06 02
  21007742.440      217588.101 3    169549.620 2
  23521061.807    -1793879.613 2  -1397823.056 1
  24090046.312    -1833372.230 2  -1428600.690 1
  21329569.049     2017868.427 3   1572362.522 2
  24525145.896     -919512.883 2   -716500.071 1
  23015796.695    -3088225.762 2  -2406400.601 1
 91  4 30 19 52 15.0000000  0  6 19 11 16 18 06 02
  21009096.603      224727.091 3    175112.479 3
  23517837.836    -1810797.787 2  -1411006.030 1
  24086629.271    -1851340.827 2  -1442602.169 1
  21335979.212     2051555.942 3   1598612.467 2
  24519454.037     -949426.741 2   -739809.549 1
  23008604.378    -3126065.164 2  -2435885.722 1
 91  4 30 19 52 30.0000000  0  6 19 11 16 18 06 02
  21010475.947      231956.625 3    180745.896 2
  23514651.042    -1827543.999 2  -1424054.993 1
  24083239.523    -1869137.305 2  -1456469.479 1
  21342415.455     2085391.863 4   1624978.069 2
  24513765.170     -979278.043 2   -763070.118 1
  23001419.547    -3163795.644 2  -2465285.978 1
 91  4 30 19 52 45.0000000  0  6 19 11 16 18 06 02
  21011863.387      239274.749 3    186448.331 2
  23511502.028    -1844119.730 2  -1436971.070 1
  24079883.942    -1886763.577 2  -1470204.264 1
  21348884.076     2119374.260 3   1651457.823 2
  24508107.792    -1009068.795 2   -786283.644 1
  22994262.899    -3201418.945 2  -2494602.734 1
 91  4 30 19 53  0.0000000  0  6 19 11 16 18 06 02
  21013274.517      246681.510 3    192219.833 2
  23508378.492    -1860524.621 2  -1449754.058 1
  24076566.743    -1904219.313 2  -1483806.114 1
  21355378.183     2153502.739 3   1678051.401 3
  24502452.202    -1038798.907 2   -809449.827 1
  22987123.648    -3238934.799 2  -2523835.769 1
 91  4 30 19 53 15.0000000  0  6 19 11 16 18 06 02
  21014699.423      254176.611 3    198060.185 2
  23505284.629    -1876758.848 2  -1462404.099 1
  24073281.914    -1921504.602 2  -1497275.074 1
  21361900.760     2187776.909 3   1704758.519 2
  24496801.115    -1068468.935 2   -832569.304 1
  22980004.178    -3276343.574 2  -2552985.361 1
 91  4 30 19 53 30.0000000  0  6 19 11 16 18 06 02
  21016140.828      261757.444 3    203967.329 2
  23502231.845    -1892824.652 2  -1474922.815 1
  24070020.468    -1938621.826 2  -1510613.227 1
  21368450.028     2222194.112 3   1731577.066 2
  24491164.119    -1098081.310 2   -855643.778 1
  22972904.487    -3313647.635 3  -2582053.334 2
 91  4 30 19 53 45.0000000  0  6 19 11 16 18 06 02
  21017599.318      269424.222 3    209941.440 2
  23499206.937    -1908721.420 2  -1487309.881 1
  24066800.100    -1955570.758 2  -1523820.110 1
  21375025.976     2256754.521 3   1758507.196 2
  24485542.409    -1127635.877 2   -878673.281 1
  22965821.295    -3350846.489 2  -2611039.359 2
 91  4 30 19 54  0.0000000  0  6 19 11 16 18 06 02
  21019080.597      277177.629 3    215983.057 2
  23496213.212    -1924448.475 2  -1499564.692 1
  24063603.116    -1972350.747 2  -1536895.403 1
  21381631.303     2291458.444 3   1785549.146 2
  24479937.792    -1157132.156 2   -901657.283 1
  22958772.576    -3387939.433 3  -2639942.828 1
 91  4 30 19 54 15.0000000  0  6 19 11 16 18 06 02
  21020570.261      285017.828 3    222092.312 2
  23493256.657    -1940005.265 2  -1511686.800 1
  24060438.501    -1988961.118 2  -1549838.595 1
  21388261.513     2326306.123 3   1812703.132 2
  24474334.972    -1186569.872 2   -924595.733 1
  22951728.648    -3424926.217 2  -2668763.622 1
 91  4 30 19 54 30.0000000  0  6 19 11 16 18 06 02
  21022075.220      292942.810 3    228267.626 3
  23490321.992    -1955393.714 2  -1523677.757 1
  24057311.972    -2005404.195 2  -1562651.317 1
  21394922.907     2361295.382 3   1839967.455 2
  24468739.045    -1215951.229 2   -947490.271 1
  22944711.706    -3461808.796 2  -2697503.148 1
 91  4 30 19 54 45.0000000  0  6 19 11 16 18 06 02
  21023600.866      300951.467 3    234508.137 2
  23487427.193    -1970614.591 2  -1535538.150 1
  24054209.716    -2021680.956 2  -1575334.502 1
  21401605.878     2396424.962 3   1867341.113 2
  24463162.601    -1245277.391 2   -970341.696 1
  22937714.552    -3498588.147 3  -2726162.296 1
 91  4 30 19 55  0.0000000  0  6 19 11 16 18 06 02
  21025140.002      309042.956 3    240813.199 3
  23484563.874    -1985668.445 2  -1547268.347 1
  24051147.935    -2037792.064 2  -1587888.586 1
  21408317.633     2431693.726 3   1894823.231 2
  24457577.772    -1274549.330 2   -993150.857 1
  22930729.387    -3535264.882 2  -2754741.471 1
 91  4 30 19 55 15.0000000  0  6 19 11 16 18 06 02
  21026695.322      317215.547 3    247181.453 2
  23481731.433    -2000556.850 2  -1558869.702 1
  24048115.838    -2053739.160 2  -1600314.860 1
  21415054.568     2467099.879 3   1922412.398 2
  24452034.911    -1303768.766 2  -1015919.218 1
  22923774.804    -3571840.609 3  -2783241.911 2
 91  4 30 19 55 30.0000000  0  6 19 11 16 18 06 02
  21028262.334      325470.094 3    253613.574 3
  23478927.777    -2015278.660 2  -1570341.174 1
  24045109.820    -2069521.024 2  -1612612.446 1
  21421816.685     2502644.002 3   1950109.078 2
  24446476.153    -1332934.927 2  -1038645.975 1
  22916828.308    -3608314.504 2  -2811663.018 1
 91  4 30 19 55 45.0000000  0  6 19 11 16 18 06 02
  21029852.136      333806.065 3    260109.130 2
  23476164.587    -2029834.075 2  -1581683.007 1
  24042141.573    -2085138.047 2  -1624781.486 1
  21428608.781     2538325.761 3   1977913.000 2
  24440937.794    -1362048.275 2  -1061331.634 1
  22909908.503    -3644686.786 3  -2840004.944 1
 91  4 30 19 56  0.0000000  0  6 19 11 16 18 06 02
  21031459.328      342221.200 3    266666.378 2
  23473420.593    -2044225.135 2  -1592896.782 1
  24039195.810    -2100592.572 2  -1636823.992 1
  21435425.464     2574142.783 3   2005822.328 2
  24435398.528    -1391111.188 2  -1083977.930 1
  22903003.678    -3680959.688 2  -2868269.440 1
 91  4 30 19 56 15.0000000  0  6 19 11 16 18 06 02
  21033067.409      350717.433 3    273286.819 2
  23470712.267    -2058449.620 2  -1603980.734 1
  24036286.623    -2115882.411 2  -1648738.129 1
  21442265.531     2610096.679 3   2033838.292 2
  24429888.342    -1420121.681 2  -1106583.451 1
  22896124.942    -3717131.168 3  -2896454.930 2
 91  4 30 19 56 30.0000000  0  6 19 11 16 18 06 02
  21034700.383      359293.196 3    279969.238 2
  23468042.313    -2072509.016 2  -1614936.048 1
  24033405.322    -2131009.295 2  -1660525.301 1
  21449135.577     2646185.666 3   2061959.542 2
  24424373.960    -1449081.693 2  -1129149.641 1
  22889259.398    -3753202.729 3  -2924562.508 1
 91  4 30 19 56 45.0000000  0  6 19 11 16 18 06 02
  21036351.034      367948.687 3    286713.777 2
  23465400.839    -2086402.967 2  -1625762.459 1
  24030567.480    -2145972.738 2  -1672185.121 1
  21456030.498     2682409.729 3   2090186.068 2
  24418867.370    -1477991.022 2  -1151676.332 1
  22882415.432    -3789174.099 3  -2952592.041 2
 91  4 30 19 57  0.0000000  0  6 19 11 16 18 06 02
  21038009.485      376683.524 3    293520.131 2
  23462780.357    -2100131.599 2  -1636460.064 1
  24027744.637    -2160773.266 2  -1683717.959 1
  21462945.513     2718768.371 3   2118517.434 2
  24413382.670    -1506850.141 2  -1174163.822 1
  22875587.057    -3825045.528 3  -2980543.718 2
 91  4 30 19 57 15.0000000  0  6 19 11 16 18 06 02
  21039689.522      385497.790 3    300388.389 2
  23460197.647    -2113694.460 2  -1647028.471 1
  24024958.666    -2175410.609 2  -1695123.719 1
  21469891.407     2755261.609 3   2146953.657 2
  24407896.165    -1535658.884 2  -1196612.123 1
  22868781.175    -3860816.732 3  -3008417.256 1
 91  4 30 19 57 30.0000000  0  6 19 11 16 18 06 02
  21041376.156      394390.331 3    307317.649 2
  23457650.307    -2127092.433 2  -1657468.425 1
  24022206.871    -2189885.796 2  -1706403.113 1
  21476861.277     2791888.034 3   2175493.641 2
  24402427.650    -1564418.453 2  -1219022.101 1
  22861992.971    -3896488.701 3  -3036213.505 2
 91  4 30 19 57 45.0000000  0  6 19 11 16 18 06 02
  21043092.166      403362.938 3    314309.288 3
  23455132.948    -2140323.669 2  -1667778.424 1
  24019483.556    -2204196.917 2  -1717554.533 1
  21483856.633     2828649.307 3   2204138.717 2
  24396956.135    -1593127.377 2  -1241392.574 1
  22855226.954    -3932059.685 3  -3063931.042 2
 91  4 30 19 58  0.0010000  0  6 19 11 16 18 06 02
  21044810.876      412415.266 3    321363.047 2
  23452645.571    -2153389.625 2  -1677959.633 1
  24016789.926    -2218345.509 2  -1728579.400 1
  21490876.579     2865547.041 3   2232890.152 2
  24391505.615    -1621788.288 2  -1263725.682 1
  22848470.835    -3967532.919 3  -3091572.448 1
 91  4 30 19 58 15.0010000  0  6 19 11 16 18 06 02
  21046545.184      421545.904 3    328477.822 2
  23450186.669    -2166288.641 2  -1688010.757 1
  24014125.068    -2232329.671 2  -1739476.123 1
  21497922.297     2902575.894 3   2261743.743 2
  24386062.281    -1650397.832 2  -1286018.685 1
  22841742.293    -4002903.908 3  -3119134.144 2
 91  4 30 19 58 30.0010000  0  6 19 11 16 18 06 02
  21048302.264      430756.692 3    335655.056 2
  23447768.549    -2179019.924 2  -1697931.217 1
  24011499.185    -2246149.322 2  -1750244.673 1
  21504996.205     2939739.108 3   2290702.037 2
  24380630.944    -1678956.680 2  -1308272.287 1
  22835024.238    -4038173.507 3  -3146616.854 2
 91  4 30 19 58 45.0010000  0  6 19 11 16 18 06 02
  21050068.941      440045.911 3    342893.407 2
  23445378.602    -2191584.998 2  -1707722.145 1
  24008899.688    -2259805.929 2  -1760886.147 1
  21512091.987     2977034.979 3   2319763.707 2
  24375202.897    -1707466.569 2  -1330487.658 1
  22828341.869    -4073343.257 3  -3174021.743 1
 91  4 30 19 59  0.0010000  0  6 19 11 16 18 06 02
  21051851.210      449410.305 3    350190.335 2
  23443013.836    -2203986.925 2  -1717385.936 1
  24006332.865    -2273302.756 2  -1771403.135 1
  21519214.756     3014460.071 3   2348926.060 2
  24369789.848    -1735930.825 2  -1352667.542 1
  22821658.898    -4108416.271 3  -3201351.280 1
 91  4 30 19 59 15.0010000  0  6 19 11 16 18 06 02
  21053646.367      458852.517 3    357547.900 2
  23440687.451    -2216223.025 2  -1726920.509 1
  24003793.623    -2286637.378 2  -1781793.745 1
  21526361.510     3052016.735 3   2378190.938 2
  24364378.893    -1764347.047 2  -1374809.954 1
  22815009.502    -4143389.872 3  -3228603.331 1
 91  4 30 19 59 30.0010000  0  6 19 11 16 18 06 02
  21055459.811      468370.545 3    364964.544 2
  23438389.842    -2228294.926 2  -1736327.118 1
  24001289.150    -2299811.576 2  -1792059.375 1
  21533533.148     3089703.166 3   2407556.920 2
  24358987.125    -1792717.039 2  -1396916.370 1
  22808372.695    -4178265.988 3  -3255779.442 2
 91  4 30 19 59 45.0010000  0  6 19 11 16 18 06 02
  21057282.844      477964.396 3    372440.267 2
  23436125.205    -2240202.381 2  -1745605.652 1
  23998809.867    -2312824.978 2  -1802199.694 1
  21540729.967     3127519.030 3   2437023.770 2
  24353590.863    -1821040.982 2  -1418986.920 1
  22801757.475    -4213044.386 3  -3282879.384 2
 91  4 30 20  0  0.0010000  0  6 19 11 16 18 06 02
  21059122.672      487632.933 3    379974.189 2
  23433893.855    -2251946.416 2  -1754756.767 1
  23996366.261    -2325678.715 2  -1812215.579 1
  21547948.668     3165462.744 3   2466590.252 2
  24348212.287    -1849320.173 2  -1441022.529 1
  22795150.046    -4247726.247 3  -3309904.131 1
 91  4 30 20  0 15.0010000  0  6 19 11 16 18 06 02
  21060975.694      497376.025 3    387566.202 2
  23431683.785    -2263526.890 2  -1763780.486 1
  23993953.236    -2338372.929 2  -1822107.114 1
  21555193.754     3203534.250 3   2496256.303 2
  24342836.102    -1877554.704 2  -1463023.365 1
  22788577.395    -4282311.581 3  -3336853.656 2
 91  4 30 20  0 30.0010000  0  6 19 11 16 18 06 02
  21062850.292      507194.083 3    395216.640 2
  23429520.778    -2274943.098 2  -1772676.204 1
  23991570.478    -2350907.050 2  -1831874.002 1
  21562462.215     3241734.137 3   2526022.385 2
  24337467.421    -1905744.256 2  -1484989.200 1
  22782008.348    -4316799.667 3  -3363727.377 2
 91  4 30 20  0 45.0010000  0  6 19 11 16 18 06 02
  21064726.696      517086.879 3    402925.316 2
  23427369.768    -2286195.127 2  -1781443.968 1
  23989209.612    -2363281.189 2  -1841516.192 1
  21569756.772     3280061.747 3   2555888.006 2
  24332116.730    -1933889.013 2  -1506920.077 1
  22775464.778    -4351190.643 3  -3390525.450 1
 91  4 30 20  1  0.0010000  0  6 19 11 16 18 06 02
  21066625.577      527052.208 3    410690.509 2
  23425265.830    -2297284.809 2  -1790085.237 1
  23986887.128    -2375497.348 2  -1851035.243 1
  21577074.704     3318514.886 3   2585851.437 2
  24326768.125    -1961991.196 2  -1528817.759 1
  22768934.697    -4385486.502 3  -3417249.417 2
 91  4 30 20  1 15.0010000  0  6 19 11 16 18 06 02
  21068535.259      537091.559 3    418513.377 2
  23423185.267    -2308210.664 2  -1798598.895 1
  23984590.112    -2387554.289 2  -1860430.230 1
  21584414.824     3357094.577 3   2615913.482 2
  24321428.227    -1990049.620 2  -1550681.384 1
  22762431.298    -4419686.015 3  -3443898.305 2
 91  4 30 20  1 30.0010000  0  6 19 11 16 18 06 02
  21070460.524      547204.813 3    426393.837 2
  23421141.279    -2318972.559 2  -1806984.731 1
  23982325.781    -2399451.831 2  -1869701.030 1
  21591781.922     3395800.740 3   2646074.070 2
  24316099.716    -2018064.331 2  -1572510.959 1
  22755940.794    -4453789.141 3  -3470472.065 2
 91  4 30 20  1 45.0010000  0  6 19 11 16 18 06 02
  21072397.786      557390.495 3    434330.741 2
  23419126.678    -2329571.887 2  -1815243.928 1
  23980088.130    -2411191.694 2  -1878848.982 1
  21599171.505     3434631.436 3   2676331.687 2
  24310780.794    -2046037.010 2  -1594307.766 1
  22749466.772    -4487797.349 3  -3496971.884 1
 91  4 30 20  2  0.0010000  0  6 19 11 16 18 06 02
  21074350.029      567648.769 3    442324.198 2
  23417131.559    -2340008.137 2  -1823376.041 1
  23977886.454    -2422773.317 2  -1887873.581 1
  21606583.276     3473586.896 3   2706686.521 2
  24305459.481    -2073967.365 2  -1616071.583 1
  22743018.236    -4521710.178 3  -3523397.373 2
 91  4 30 20  2 15.0010000  0  6 19 11 16 18 06 02
  21076316.372      577980.082 3    450374.569 2
  23415182.004    -2350280.670 2  -1831380.563 1
  23975716.258    -2434196.237 2  -1896774.548 1
  21614021.728     3512667.333 3   2737138.766 2
  24300149.554    -2101855.118 2  -1637802.198 1
  22736579.594    -4555527.161 3  -3549748.204 2
 91  4 30 20  2 30.0010000  0  6 19 11 16 18 06 02
  21078300.095      588384.774 3    458482.120 2
  23413254.645    -2360389.145 2  -1839257.246 1
  23973568.843    -2445460.235 2  -1905551.682 1
  21621482.062     3551872.758 3   2767688.410 2
  24294851.921    -2129700.055 2  -1659499.490 1
  22730165.836    -4589247.929 3  -3576024.021 1
 91  4 30 20  2 45.0010000  0  6 19 11 16 18 06 02
  21080287.422      598861.656 3    466645.931 2
  23411360.249    -2370334.377 2  -1847006.741 1
  23971460.403    -2456566.549 2  -1914205.951 1
  21628964.576     3591201.665 3   2798334.246 2
  24289560.884    -2157503.752 2  -1681164.606 1
  22723763.761    -4622873.439 3  -3602225.620 2
 91  4 30 20  3  0.0010000  0  6 19 11 16 18 06 02
  21082297.827      609412.034 3    474867.002 2
  23409499.742    -2380114.846 2  -1854627.854 1
  23969377.449    -2467513.704 2  -1922736.191 1
  21636475.882     3630655.627 3   2829077.510 2
  24284277.342    -2185264.286 2  -1702796.092 1
  22717385.681    -4656402.537 3  -3628352.120 1
 91  4 30 20  3 15.0010000  0  6 19 11 16 18 06 02
  21084318.134      620034.840 3    483144.514 2
  23407672.503    -2389731.368 2  -1862121.206 1
  23967322.668    -2478302.495 2  -1931143.027 1
  21644006.070     3670233.557 3   2859917.388 2
  24278995.004    -2212982.997 2  -1724394.979 1
  22711024.082    -4689835.966 3  -3654404.044 2
 91  4 30 20  3 30.0010000  0  6 19 11 16 18 06 02
  21086355.517      630731.097 3    491479.255 2
  23405871.353    -2399182.913 2  -1869486.058 1
  23965297.274    -2488931.845 2  -1939425.693 1
  21651558.141     3709935.790 3   2890854.127 2
  24273741.738    -2240659.226 2  -1745960.808 1
  22704677.176    -4723172.769 3  -3680380.689 2
 91  4 30 20  3 45.0010000  0  6 19 11 16 18 06 02
  21088403.702      641499.963 3    499870.584 2
  23404107.677    -2408470.254 2  -1876722.875 1
  23963311.142    -2499402.653 2  -1947584.677 1
  21659136.892     3749761.370 3   2921886.977 2
  24268478.281    -2268293.859 2  -1767494.217 1
  22698353.653    -4756413.805 3  -3706282.710 2
 91  4 30 20  4  0.0010000  0  6 19 11 16 18 06 02
  21090468.673      652340.873 3    508318.038 2
  23402370.979    -2417593.571 2  -1883831.932 1
  23961347.207    -2509715.214 2  -1955620.433 1
  21666741.130     3789709.723 3   2953015.493 2
  24263233.714    -2295887.371 2  -1788995.574 1
  22692044.527    -4789559.404 3  -3732110.359 2
 91  4 30 20  4 15.0010000  0  6 19 11 16 18 06 02
  21092543.539      663253.895 3    516821.688 2
  23400663.056    -2426552.560 2  -1890812.936 1
  23959411.446    -2519869.340 2  -1963532.725 1
  21674367.250     3829780.592 3   2984239.482 2
  24257982.848    -2323439.730 2  -1810464.799 1
  22685753.078    -4822609.368 3  -3757863.498 2
 91  4 30 20  4 30.0010000  0  6 19 11 16 18 06 02
  21094633.691      674239.410 3    525381.832 2
  23398991.412    -2435346.718 2  -1897665.497 1
  23957510.760    -2529864.894 2  -1971321.490 1
  21682014.957     3869974.421 3   3015559.301 2
  24252746.073    -2350950.710 2  -1831901.858 1
  22679488.615    -4855563.383 3  -3783541.856 2
 91  4 30 20  4 45.0010000  0  6 19 11 16 18 06 02
  21096736.730      685295.911 3    533997.285 2
  23397351.249    -2443977.375 2  -1904390.636 1
  23955635.856    -2539703.180 2  -1978987.703 1
  21689687.241     3910289.410 3   3046973.529 2
  24247528.187    -2378421.924 2  -1853307.962 1
  22673232.250    -4888422.809 3  -3809146.542 1
 91  4 30 20  5  0.0010000  0  6 19 11 16 18 06 02
  21098857.464      696425.073 3    542669.363 2
  23395736.266    -2452442.653 2  -1910986.949 1
  23953798.732    -2549382.425 2  -1986529.948 1
  21697382.011     3950727.115 3   3078483.370 2
  24242300.407    -2405851.655 2  -1874681.620 1
  22666991.764    -4921185.785 3  -3834676.038 2
 91  4 30 20  5 15.0010000  0  6 19 11 16 18 06 02
  21100984.794      707625.093 3    551396.641 2
  23394159.360    -2460744.150 2  -1917455.591 1
  23951985.288    -2558904.562 2  -1993949.726 1
  21705099.570     3991285.306 3   3110087.088 2
  24237096.307    -2433241.810 2  -1896024.610 1
  22660777.968    -4953853.925 3  -3860131.635 2
 91  4 30 20  5 30.0010000  0  6 19 11 16 18 06 02
  21103133.701      718897.513 3    560180.342 2
  23392607.931    -2468880.174 2  -1923795.325 1
  23950203.620    -2568267.801 2  -2001245.832 1
  21712841.115     4031965.445 3   3141785.827 2
  24231883.814    -2460591.008 2  -1917335.518 1
  22654586.657    -4986425.808 3  -3885512.226 2
 91  4 30 20  5 45.0010000  0  6 19 11 16 18 06 02
  21105292.214      730241.798 3    569020.049 2
  23391089.483    -2476850.998 2  -1930006.328 1
  23948456.426    -2577472.548 2  -2008418.321 1
  21720604.543     4072766.863 3   3173579.068 2
  24226690.812    -2487899.670 2  -1938614.885 1
  22648402.841    -5018901.737 3  -3910818.097 2
 91  4 30 20  6  0.0010000  0  6 19 11 16 18 06 02
  21107461.512      741657.004 3    577915.010 2
  23389607.008    -2484657.348 2  -1936089.150 1
  23946728.724    -2586519.773 2  -2015468.118 1
  21728392.243     4113688.543 3   3205466.033 2
  24221502.304    -2515168.823 2  -1959863.487 1
  22642235.803    -5051282.569 3  -3936049.821 2
 91  4 30 20  6 15.0010000  0  6 19 11 16 18 06 02
  21109646.393      753145.502 3    586867.086 2
  23388150.918    -2492296.949 2  -1942042.067 1
  23945036.096    -2595407.388 2  -2022393.512 1
  21736202.743     4154732.627 3   3237448.385 2
  24216316.789    -2542396.297 2  -1981079.616 1
  22636098.754    -5083565.914 3  -3961205.583 1
 91  4 30 20  6 30.0010000  0  6 19 11 16 18 06 02
  21111854.971      764704.914 3    595874.413 2
  23386729.607    -2499771.931 2  -1947866.676 2
  23943379.739    -2604137.514 2  -2029196.176 1
  21744035.116     4195896.320 3   3269523.897 2
  24211145.670    -2569584.568 2  -2002265.203 1
  22629975.490    -5115754.037 3  -3986287.165 2
 91  4 30 20  6 45.0010000  0  6 19 11 16 18 06 02
  21114061.141      776336.595 3    604938.059 2
  23385343.362    -2507080.660 2  -1953561.752 1
  23941751.869    -2612709.043 2  -2035875.318 1
  21751892.076     4237180.774 3   3301693.531 2
  24205982.944    -2596732.295 2  -2023419.186 1
  22623864.825    -5147845.382 3  -4011293.322 2
 91  4 30 20  7  0.0010000  0  6 19 11 16 18 06 02
  21116289.795      788039.485 3    614057.191 2
  23383982.306    -2514224.086 2  -1959128.049 1
  23940139.583    -2621122.748 2  -2042431.421 1
  21759772.123     4278585.003 3   3333956.497 2
  24200822.915    -2623840.671 2  -2044542.529 1
  22617772.142    -5179841.187 3  -4036225.028 2
 91  4 30 20  7 15.0010000  0  6 19 11 16 18 06 02
  21118525.046      799813.435 3    623231.691 2
  23382653.925    -2521202.105 2  -1964565.445 1
  23938577.666    -2629378.608 2  -2048864.552 1
  21767671.357     4320108.532 3   3366312.426 2
  24195674.280    -2650909.806 2  -2065635.174 1
  22611702.546    -5211741.446 3  -4061082.279 2
 91  4 30 20  7 30.0010000  0  6 19 11 16 18 06 02
  21120785.783      811656.832 3    632460.314 2
  23381353.422    -2528016.309 2  -1969875.164 1
  23937029.238    -2637478.314 2  -2055175.991 1
  21775595.772     4361749.414 3   3398759.804 2
  24190529.249    -2677941.541 2  -2086698.843 1
  22605654.231    -5243547.750 3  -4085866.352 2
 91  4 30 20  7 45.0010000  0  6 19 11 16 18 06 02
  21123051.615      823572.131 3    641744.955 2
  23380089.799    -2534664.042 2  -1975055.187 1
  23935520.082    -2645419.357 2  -2061363.844 1
  21783543.866     4403510.088 3   3431300.512 2
  24185389.907    -2704933.316 2  -2107731.313 1
  22599617.014    -5275257.613 3  -4110575.248 2
 91  4 30 20  8  0.0010000  0  6 19 11 16 18 06 02
  21125330.936      835554.477 3    651081.847 2
  23378854.952    -2541149.890 2  -1980109.087 1
  23934034.912    -2653206.601 2  -2067431.791 1
  21791512.647     4445385.609 3   3463930.722 2
  24180258.357    -2731890.084 2  -2128736.444 1
  22593598.076    -5306875.695 3  -4135212.627 2
 91  4 30 20  8 15.0010000  0  6 19 11 16 18 06 02
  21127623.450      847607.393 3    660473.723 2
  23377649.491    -2547470.228 2  -1985033.994 1
  23932586.919    -2660836.406 2  -2073377.121 1
  21799503.617     4487379.097 3   3496652.830 2
  24175138.201    -2758808.465 2  -2149711.792 1
  22587598.028    -5338398.365 3  -4159775.672 2
 91  4 30 20  8 30.0010000  0  6 19 11 16 18 06 02
  21129937.549      859731.562 3    669921.124 2
  23376483.301    -2553624.136 2  -1989829.203 1
  23931162.903    -2668307.998 2  -2079199.146 1
  21807514.968     4529491.158 3   3529467.357 2
  24170027.338    -2785687.755 2  -2170656.595 1
  22581619.872    -5369824.811 3  -4184263.736 2
 91  4 30 20  8 45.0010000  0  6 19 11 16 18 06 02
  21132252.242      871925.213 3    679422.672 2
  23375337.189    -2559613.335 2  -1994496.050 1
  23929771.562    -2675623.428 2  -2084899.424 1
  21815553.908     4571719.679 3   3562372.630 2
  24164914.075    -2812529.924 2  -2191572.456 1
  22575657.002    -5401156.923 3  -4208678.269 2
 91  4 30 20  9  0.0010000  0  6 19 11 16 18 06 02
  21134583.731      884188.477 3    688978.456 2
  23374235.155    -2565437.510 2  -1999034.347 1
  23928403.910    -2682782.306 2  -2090477.820 1
  21823610.525     4614064.837 3   3595368.780 2
  24159815.505    -2839334.801 2  -2212459.322 1
  22569713.911    -5432394.364 3  -4233019.058 2
 91  4 30 20  9 15.0010000  0  6 19 11 16 18 06 02
  21136932.007      896521.001 3    698588.210 2
  23373155.301    -2571097.020 2  -2003444.383 1
  23927079.430    -2689784.945 2  -2095934.389 1
  21831690.535     4656525.850 3   3628455.212 2
  24154722.031    -2866102.861 2  -2233317.446 1
  22563789.710    -5463537.489 3  -4257286.351 2
 91  4 30 20  9 30.0010000  0  6 19 11 16 18 06 02
  21139291.075      908922.871 3    708252.009 2
  23372109.326    -2576591.660 2  -2007725.840 1
  23925780.427    -2696631.457 2  -2101269.325 1
  21839795.123     4699102.585 3   3661631.806 2
  24149630.659    -2892834.216 2  -2254147.007 1
  22557879.601    -5494586.203 3  -4281480.086 2
 91  4 30 20  9 45.0010000  0  6 19 11 16 18 06 02
  21141666.626      921394.622 3    717970.250 2
  23371096.027    -2581920.831 2  -2011878.435 1
  23924503.908    -2703321.217 2  -2106482.127 1
  21847916.201     4741795.281 3   3694898.774 2
  24144549.775    -2919528.373 2  -2274947.506 1
  22551992.281    -5525539.948 3  -4305599.787 2
 91  4 30 20 10  0.0010000  0  6 19 11 16 18 06 02
  21144050.282      933933.959 3    727741.163 2
  23370115.106    -2587086.470 2  -2015903.600 1
  23923253.478    -2709856.539 2  -2111574.613 1
  21856063.664     4784601.781 3   3728254.425 2
  24139479.388    -2946187.678 2  -2295720.987 1
  22546116.348    -5556400.809 3  -4329647.143 2
 91  4 30 20 10 15.0010000  0  6 19 11 16 18 06 02
  21146448.317      946542.389 3    737565.907 2
  23369162.665    -2592086.777 2  -2019799.855 1
  23922045.914    -2716235.623 2  -2116545.272 1
  21864231.805     4827523.244 3   3761699.656 2
  24134414.994    -2972810.514 2  -2316465.938 1
  22540261.102    -5587167.064 3  -4353620.769 2
 91  4 30 20 10 30.0010000  0  6 19 11 16 18 06 02
  21148865.844      959218.891 3    747443.700 2
  23368241.703    -2596922.819 2  -2023568.175 1
  23920860.835    -2722459.716 2  -2121395.201 1
  21872418.837     4870558.327 3   3795233.416 2
  24129356.595    -2999398.113 2  -2337183.474 1
  22534425.645    -5617839.922 3  -4377521.628 2
 91  4 30 20 10 45.0010000  0  6 19 11 16 18 06 02
  21151286.966      971964.140 3    757375.054 2
  23367356.113    -2601593.746 2  -2027207.838 1
  23919702.132    -2728527.651 2  -2126123.479 1
  21880631.651     4913707.669 3   3828856.211 2
  24124301.494    -3025949.876 2  -2357873.053 1
  22528601.277    -5648418.598 3  -4401349.076 2
 91  4 30 20 11  0.0010000  0  6 19 11 16 18 06 02
  21153726.384      984778.154 3    767359.998 2
  23366495.111    -2606099.346 2  -2030718.651 1
  23918586.007    -2734439.853 2  -2130730.417 1
  21888862.753     4956971.097 3   3862567.900 2
  24119254.786    -3052465.806 2  -2378534.696 1
  22522803.887    -5678902.856 3  -4425102.979 2
 91  4 30 20 11 15.0010000  0  6 19 11 16 18 06 02
  21156174.781      997660.506 3    777398.185 2
  23365669.480    -2610440.152 2  -2034101.068 1
  23917484.270    -2740196.637 2  -2135216.194 1
  21897118.442     5000347.582 3   3896367.689 2
  24114218.871    -3078946.546 2  -2399168.972 1
  22517018.189    -5709293.226 3  -4448783.714 2
 91  4 30 20 11 30.0010000  0  6 19 11 16 18 06 02
  21158645.670     1010612.122 3    787490.356 2
  23364872.939    -2614614.983 2  -2037354.137 1
  23916415.811    -2745797.174 2  -2139580.236 1
  21905392.716     5043838.023 3   3930256.253 2
  24109187.459    -3105391.211 2  -2419775.123 1
  22511258.884    -5739588.738 3  -4472390.529 2
 91  4 30 20 11 45.0010000  0  6 19 11 16 18 06 02
  21161119.265     1023629.771 3    797633.974 2
  23364112.362    -2618626.881 2  -2040480.293 1
  23915381.222    -2751244.567 2  -2143824.956 1
  21913690.670     5087439.255 3   3964231.169 2
  24104158.437    -3131802.951 2  -2440355.592 1
  22505510.363    -5769792.395 3  -4495925.756 2
 91  4 30 20 12  0.0010000  0  6 19 11 16 18 06 02
  21163611.435     1036712.947 3    807828.647 2
  23363384.165    -2622476.152 2  -2043479.678 1
  23914377.224    -2756539.551 2  -2147950.920 1
  21922008.709     5131150.359 3   3998291.680 2
  24099137.215    -3158182.356 2  -2460910.896 1
  22499781.029    -5799904.721 3  -4519389.852 2
 91  4 30 20 12 15.0010000  0  6 19 11 16 18 06 02
  21166115.603     1049863.658 3    818075.953 2
  23362680.554    -2626160.885 2  -2046350.862 1
  23913391.802    -2761680.048 2  -2151956.470 1
  21930348.037     5174973.053 3   4032439.163 2
  24094121.682    -3184527.623 2  -2481439.566 1
  22494067.584    -5829923.758 3  -4542781.236 2
 91  4 30 20 12 30.0010000  0  6 19 11 16 18 06 02
  21168630.859     1063082.422 3    828376.289 2
  23362009.018    -2629680.363 2  -2049093.280 1
  23912450.153    -2766665.424 2  -2155841.207 1
  21938708.951     5218907.888 3   4066674.009 2
  24089117.248    -3210838.318 2  -2501941.316 1
  22488372.426    -5859848.952 3  -4566099.488 2
 91  4 30 20 12 45.0010000  0  6 19 11 16 18 06 02
  21171155.112     1076367.716 3    838728.461 2
  23361374.353    -2633035.955 2  -2051707.986 1
  23911532.193    -2771497.521 2  -2159606.473 1
  21947086.949     5262953.141 3   4100994.899 2
  24084121.512    -3237115.977 2  -2522417.308 1
  22482697.650    -5889681.721 3  -4589345.739 2
 91  4 30 20 13  0.0010000  0  6 19 11 16 18 06 02
  21173698.551     1089719.628 3    849132.547 2
  23360764.582    -2636227.335 2  -2054194.748 1
  23910636.107    -2776175.806 2  -2163251.877 1
  21955492.527     5307108.616 3   4135401.691 2
  24079135.959    -3263360.459 2  -2542867.455 1
  22477036.075    -5919421.613 3  -4612519.597 2
 91  4 30 20 13 15.0010000  0  6 19 11 16 18 06 02
  21176249.485     1103138.604 3    859588.887 2
  23360185.976    -2639254.211 2  -2056553.306 1
  23909776.003    -2780699.993 2  -2166777.201 1
  21963916.401     5351374.132 3   4169894.220 2
  24074133.025    -3289571.685 2  -2563291.713 1
  22471398.774    -5949068.390 3  -4635620.905 2
 91  4 30 20 13 30.0010000  0  6 19 11 16 18 06 02
  21178815.714     1116623.041 3    870096.240 2
  23359642.759    -2642118.073 2  -2058784.861 1
  23908939.283    -2785071.932 2  -2170183.916 1
  21972360.649     5395747.945 3   4204471.144 2
  24069153.475    -3315751.311 2  -2583691.330 1
  22465777.962    -5978623.815 3  -4658651.033 2
 91  4 30 20 13 45.0010000  0  6 19 11 16 18 06 02
  21181393.923     1130173.417 3    880654.960 2
  23359132.506    -2644818.030 2  -2060888.698 1
  23908142.436    -2789290.583 2  -2173471.174 1
  21980826.491     5440230.649 3   4239132.933 2
  24064175.416    -3341898.757 2  -2604065.871 1
  22460162.849    -6008087.191 3  -4681609.435 2
 91  4 30 20 14  0.0010000  0  6 19 11 16 18 06 02
  21183987.732     1143790.533 3    891265.692 2
  23358649.545    -2647353.290 2  -2062864.167 1
  23907374.373    -2793355.632 2  -2176638.699 1
  21989310.918     5484822.817 3   4273879.995 2
  24059205.158    -3368013.391 2  -2624414.855 1
  22454576.519    -6037457.569 3  -4704495.364 2
 91  4 30 20 14 15.0010000  0  6 19 11 16 18 06 02
  21186593.529     1157474.531 3    901928.541 2
  23358195.953    -2649723.595 2  -2064711.157 1
  23906620.690    -2797266.685 2  -2179686.287 1
  21997818.126     5529524.340 3   4308712.273 2
  24054241.199    -3394095.070 2  -2644738.169 1
  22449001.882    -6066734.707 3  -4727308.648 2
 91  4 30 20 14 30.0010000  0  6 19 11 16 18 06 02
  21189207.118     1171224.591 3    912642.876 2
  23357772.951    -2651929.724 2  -2066430.177 1
  23905905.684    -2801024.851 2  -2182614.746 1
  22006343.927     5574333.902 3   4343628.740 2
  24049287.126    -3420144.657 2  -2665036.428 1
  22443445.523    -6095919.388 3  -4750049.886 2
 91  4 30 20 14 45.0010000  0  6 19 11 16 18 06 02
  21191836.299     1185039.715 3    923407.894 2
  23357386.821    -2653972.706 2  -2068022.072 1
  23905224.253    -2804631.280 2  -2185424.921 1
  22014892.204     5619250.269 3   4378628.425 2
  24044341.752    -3446163.406 2  -2685310.650 1
  22437913.455    -6125012.773 3  -4772719.985 2
 91  4 30 20 15  0.0010000  0  6 19 11 16 18 06 02
  21194480.164     1198921.993 3    934225.252 2
  23357028.865    -2655850.177 2  -2069485.032 1
  23904574.905    -2808083.577 2  -2188115.055 1
  22023458.778     5664275.664 3   4413713.064 2
  24039392.774    -3472149.234 2  -2705559.298 1
  22432393.680    -6154012.418 3  -4795317.026 2
 91  4 30 20 15 15.0010000  0  6 19 11 16 18 06 02
  21197130.328     1212870.626 3    945094.315 2
  23356705.094    -2657562.976 2  -2070819.627 1
  23903942.945    -2811382.665 2  -2190685.751 1
  22032049.031     5709408.816 3   4448881.676 2
  24034440.804    -3498103.044 2  -2725782.981 1
  22426895.780    -6182919.294 3  -4817841.808 2
 91  4 30 20 15 30.0010000  0  6 19 11 16 18 06 02
  21199798.484     1226885.696 3    956015.141 2
  23356411.895    -2659110.765 2  -2072025.652 1
  23903340.066    -2814528.170 2  -2193136.776 1
  22040659.667     5754649.614 3   4484134.180 2
  24029520.610    -3524024.727 2  -2745981.569 1
  22421411.979    -6211733.363 3  -4840294.246 2
 91  4 30 20 15 45.0010000  0  6 19 11 16 18 06 02
  21202478.026     1240965.216 3    966986.198 2
  23356148.371    -2660495.451 2  -2073104.618 1
  23902777.654    -2817522.131 2  -2195469.746 1
  22049285.894     5799996.025 3   4519468.990 2
  24024592.023    -3549916.336 2  -2766156.766 1
  22415942.270    -6240456.334 3  -4862675.706 2
 91  4 30 20 16  0.0010000  0  6 19 11 16 18 06 02
  21205173.762     1255111.477 3    978009.240 2
  23355913.936    -2661714.644 2  -2074054.584 1
  23902236.523    -2820362.529 2  -2197683.006 1
  22057937.607     5845449.883 3   4554887.512 2
  24019674.525    -3575775.646 2  -2786306.796 1
  22410495.638    -6269085.771 3  -4884984.287 2
 91  4 30 20 16 15.0010000  0  6 19 11 16 18 06 02
  21207873.092     1269322.683 3    989082.903 2
  23355715.178    -2662769.938 2  -2074876.862 1
  23901718.784    -2823051.133 2  -2199778.036 1
  22066606.404     5891009.409 3   4590388.352 2
  24014755.230    -3601604.504 2  -2806433.066 1
  22405063.394    -6297623.500 3  -4907221.415 2
 91  4 30 20 16 30.0010000  0  6 19 11 16 18 06 02
  21210590.117     1283598.045 3   1000206.558 2
  23355541.897    -2663661.837 2  -2075571.846 1
  23901232.219    -2825588.541 2  -2201755.232 1
  22075294.693     5936673.571 3   4625970.742 2
  24009846.126    -3627403.727 2  -2826536.258 1
  22399654.838    -6326070.236 3  -4929387.625 2
 91  4 30 20 16 45.0010000  0  6 19 11 16 18 06 02
  21213315.527     1297937.138 3   1011379.872 2
  23355403.395    -2664390.767 2  -2076139.792 2
  23900781.637    -2827975.508 2  -2203615.227 1
  22084006.662     5982441.709 3   4661634.135 2
  24004948.417    -3653173.842 2  -2846616.768 1
  22394259.179    -6354426.328 3  -4951483.208 2
 91  4 30 20 17  0.0010000  0  6 19 11 16 18 06 02
  21216065.821     1312341.574 3   1022604.102 2
  23355296.661    -2664955.301 2  -2076579.666 1
  23900356.227    -2830210.614 2  -2205356.843 1
  22092734.519     6028315.089 3   4697379.547 2
  24000041.416    -3678913.424 2  -2866673.511 1
  22388873.405    -6382690.249 3  -4973506.975 2
 91  4 30 20 17 15.0010000  0  6 19 11 16 18 06 02
  21218814.920     1326810.336 3   1033878.449 2
  23355216.616    -2665356.395 2  -2076892.211 1
  23899968.893    -2832294.831 2  -2206980.933 1
  22101486.362     6074292.632 3   4733206.119 2
  23995153.601    -3704623.503 2  -2886707.244 1
  22383516.711    -6410863.013 3  -4995459.706 2
 91  4 30 20 17 30.0010000  0  6 19 11 16 18 06 02
  21221581.408     1341343.391 3   1045202.894 2
  23355168.951    -2665594.098 2  -2077077.396 1
  23899592.056    -2834228.240 2  -2208487.496 1
  22110253.194     6120373.454 3   4769113.164 2
  23990269.085    -3730304.422 2  -2906718.239 1
  22378174.711    -6438944.819 3  -5017341.555 2
 91  4 30 20 17 45.0010000  0  6 19 11 16 18 06 02
  21224357.188     1355939.322 3   1056576.350 2
  23355162.660    -2665669.490 2  -2077136.041 2
  23899255.991    -2836011.793 2  -2209877.240 1
  22119040.408     6166556.484 3   4805099.852 2
  23985384.263    -3755957.435 2  -2926707.501 1
  22372845.301    -6466936.841 3  -5039153.446 2
 91  4 30 20 18  0.0010000  0  6 19 11 16 18 06 02
  21227150.653     1370600.147 3   1068000.356 2
  23355179.142    -2665580.408 2  -2077066.664 1
  23898938.205    -2837643.917 2  -2211149.054 1
  22127849.209     6212843.433 3   4841167.509 2
  23980505.444    -3781580.576 2  -2946673.505 1
  22367534.179    -6494837.024 3  -5060893.787 2
 91  4 30 20 18 15.0010000  0  6 19 11 16 18 06 02
  21229945.018     1385323.398 3   1079473.015 2
  23355223.815    -2665329.423 2  -2076871.044 1
  23898660.302    -2839127.174 2  -2212304.794 1
  22136677.501     6259231.371 3   4877313.863 2
  23975637.409    -3807176.545 2  -2966618.261 1
  22362246.143    -6522647.876 3  -5082564.503 2
 91  4 30 20 18 30.0010000  0  6 19 11 16 18 06 02
  21232762.163     1400110.979 3   1090995.792 2
  23355307.157    -2664914.459 2  -2076547.704 1
  23898402.483    -2840459.835 2  -2213343.254 1
  22145525.276     6305722.255 3   4913540.449 2
  23970778.675    -3832743.266 2  -2986540.330 1
  22356974.886    -6550367.281 3  -5104163.971 2
 91  4 30 20 18 45.0010000  0  6 19 11 16 18 06 02
  21235585.312     1414962.697 3   1102568.554 2
  23355410.890    -2664335.794 2  -2076096.748 1
  23898172.236    -2841641.955 2  -2214264.357 1
  22154391.033     6352315.407 3   4949846.728 2
  23965907.647    -3858281.433 2  -3006440.055 1
  22351711.430    -6577995.502 3  -5125692.396 2
 91  4 30 20 19  0.0010000  0  6 19 11 16 18 06 02
  21238433.641     1429878.326 3   1114191.112 2
  23355556.582    -2663593.509 2  -2075518.336 1
  23897982.474    -2842673.724 2  -2215068.345 1
  22163276.283     6399010.199 3   4986232.202 2
  23961061.504    -3883791.114 2  -3026317.650 1
  22346472.560    -6605532.720 3  -5147149.886 2
 91  4 30 20 19 15.0010000  0  6 19 11 16 18 06 02
  21241277.468     1444857.590 3   1125863.256 2
  23355729.269    -2662687.785 2  -2074812.558 1
  23897815.188    -2843555.535 2  -2215755.467 1
  22172180.422     6445806.237 3   5022696.564 2
  23956203.066    -3909272.664 2  -3046173.300 1
  22341249.579    -6632979.085 3  -5168536.600 2
 91  4 30 20 19 30.0010000  0  6 19 11 16 18 06 02
  21244138.685     1459901.868 3   1137586.072 2
  23355929.824    -2661617.038 2  -2073978.176 1
  23897675.786    -2844285.867 2  -2216324.593 1
  22181107.640     6492705.024 3   5059240.977 2
  23951368.012    -3934724.623 2  -3066005.928 1
  22336041.876    -6660333.002 3  -5189851.272 2
 91  4 30 20 19 45.0010000  0  6 19 11 16 18 06 02
  21247014.297     1475011.341 3   1149359.679 2
  23356163.666    -2660381.040 2  -2073015.021 1
  23897570.858    -2844864.499 2  -2216775.436 1
  22190052.543     6539706.424 3   5095865.336 2
  23946524.565    -3960146.904 2  -3085815.316 1
  22330855.174    -6687594.456 3  -5211093.896 2
 91  4 30 20 20  0.0010000  0  6 19 11 16 18 06 02
  21249908.198     1490185.417 3   1161183.628 2
  23356434.380    -2658980.387 2  -2071923.596 1
  23897489.610    -2845292.433 2  -2217108.889 1
  22199016.039     6586809.447 3   5132568.889 2
  23941696.709    -3985540.346 2  -3105602.324 1
  22325685.250    -6714764.154 3  -5232265.035 2
 91  4 30 20 20 15.0010000  0  6 19 11 16 18 06 02
  21252804.489     1505426.697 3   1173059.937 2
  23356730.274    -2657412.382 2  -2070701.784 1
  23897437.748    -2845566.840 2  -2217322.711 1
  22207996.924     6634016.342 3   5169353.384 2
  23936865.852    -4010902.345 2  -3125364.805 1
  22320534.818    -6741839.313 3  -5253362.475 2
 91  4 30 20 20 30.0010000  0  6 19 11 16 18 06 02
  21255716.677     1520733.802 3   1184987.539 2
  23357057.946    -2655678.391 2  -2069350.574 1
  23897412.567    -2845689.158 2  -2217418.044 1
  22216999.692     6681325.622 3   5206217.650 2
  23932049.688    -4036234.336 2  -3145103.888 1
  22315402.971    -6768821.279 3  -5274387.330 2
 91  4 30 20 20 45.0010000  0  6 19 11 16 18 06 02
  21258639.353     1536105.798 3   1196965.713 2
  23357420.090    -2653779.280 2  -2067870.766 1
  23897411.363    -2845660.573 2  -2217395.781 1
  22226025.547     6728735.923 3   5243160.657 2
  23927229.624    -4061537.474 2  -3164820.556 1
  22310280.110    -6795711.142 3  -5295340.399 2
 91  4 30 20 21  0.0010000  0  6 19 11 16 18 06 02
  21261585.107     1551541.229 3   1208993.313 2
  23357817.022    -2651716.336 2  -2066263.226 1
  23897445.845    -2845482.464 2  -2217256.960 1
  22235064.882     6776245.783 3   5280181.227 2
  23922426.346    -4086813.095 2  -3184515.733 1
  22305186.340    -6822510.129 3  -5316222.652 2
 91  4 30 20 21 15.0010000  0  6 19 11 16 18 06 02
  21264527.275     1567040.346 3   1221070.540 2
  23358237.031    -2649489.545 2  -2064528.030 1
  23897512.095    -2845154.907 2  -2217001.665 1
  22244121.318     6823855.199 3   5317279.384 2
  23917618.279    -4112061.118 2  -3204189.416 1
  22300096.765    -6849218.006 3  -5337033.925 2
 91  4 30 20 21 30.0010000  0  6 19 11 16 18 06 02
  21267486.823     1582599.640 3   1233194.660 2
  23358696.609    -2647102.055 2  -2062667.625 1
  23897605.035    -2844681.314 2  -2216632.699 1
  22253200.832     6871560.178 3   5354452.008 2
  23912826.694    -4137285.223 2  -3223844.448 1
  22295033.873    -6875838.105 3  -5357776.797 2
 91  4 30 20 21 45.0010000  0  6 19 11 16 18 06 02
  21270462.565     1598220.774 3   1245366.964 2
  23359179.875    -2644552.406 2  -2060680.872 1
  23897724.647    -2844060.053 2  -2216148.562 1
  22262298.032     6919362.530 3   5391700.510 2
  23908017.126    -4162483.630 2  -3243479.525 1
  22289985.664    -6902368.918 3  -5378450.081 2
 91  4 30 20 22  0.0010000  0  6 19 11 16 18 06 02
  21273448.794     1613903.252 3   1257587.071 2
  23359693.417    -2641840.989 2  -2058568.069 1
  23897864.353    -2843291.510 2  -2215549.688 1
  22271413.223     6967261.293 3   5429024.147 2
  23903233.934    -4187656.931 2  -3263094.925 1
  22284953.650    -6928810.955 3  -5399054.204 2
 91  4 30 20 22 15.0010000  0  6 19 11 16 18 06 02
  21276441.027     1629647.308 3   1269855.171 2
  23360240.246    -2638967.340 2  -2056328.823 1
  23898043.026    -2842375.885 2  -2214836.231 1
  22280546.100     7015256.511 3   5466422.933 2
  23898448.648    -4212805.033 2  -3282690.772 1
  22279939.914    -6955163.879 3  -5419588.884 2
 91  4 30 20 22 30.0010000  0  6 19 11 16 18 06 02
  21279450.046     1645451.168 3   1282169.856 2
  23360819.445    -2635933.175 2  -2053964.493 1
  23898240.894    -2841314.927 2  -2214009.517 1
  22289695.764     7063346.243 3   5503895.335 2
  23893666.058    -4237929.756 2  -3302268.330 1
  22274943.280    -6981429.342 3  -5440055.414 2
 91  4 30 20 22 45.0010000  0  6 19 11 16 18 06 02
  21282465.959     1661314.773 3   1294531.104 2
  23361432.218    -2632738.787 2  -2051475.359 1
  23898469.632    -2840108.731 2  -2213069.618 1
  22298865.818     7111529.658 3   5541440.771 2
  23888896.660    -4263031.496 2  -3321828.061 1
  22269959.524    -7007607.544 3  -5460453.943 2
 91  4 30 20 23  0.0010000  0  6 19 11 16 18 06 02
  21285501.058     1677239.750 3   1306940.165 2
  23362068.680    -2629382.377 2  -2048859.927 1
  23898733.147    -2838755.809 2  -2212015.418 1
  22308052.660     7159808.054 3   5579060.196 2
  23884121.269    -4288108.509 2  -3341368.455 1
  22264995.269    -7033696.878 3  -5480783.232 2
 91  4 30 20 23 15.0010000  0  6 19 11 16 18 06 02
  21288538.853     1693223.664 3   1319395.162 2
  23362737.817    -2625866.160 2  -2046119.998 1
  23899014.358    -2837258.442 2  -2210848.572 1
  22317257.484     7208179.377 3   5616752.037 2
  23879349.472    -4313163.149 2  -3360891.507 1
  22260042.696    -7059699.773 3  -5501045.169 2
 91  4 30 20 23 30.0010000  0  6 19 11 16 18 06 02
  21291594.037     1709268.081 3   1331897.305 2
  23363433.933    -2622188.507 2  -2043254.311 1
  23899323.741    -2835615.060 2  -2209568.062 1
  22326480.901     7256644.761 3   5654517.191 2
  23874586.670    -4338193.906 2  -3380395.814 1
  22255115.601    -7085614.391 3  -5521238.304 2
 91  4 30 20 23 45.0010000  0  6 19 11 16 18 06 02
  21294655.817     1725373.837 3   1344447.240 2
  23364168.726    -2618348.818 2  -2040262.299 1
  23899674.796    -2833825.265 2  -2208173.400 1
  22335720.504     7305204.855 3   5692356.117 2
  23869829.863    -4363200.259 2  -3399881.181 1
  22250196.611    -7111440.007 3  -5541362.100 2
 91  4 30 20 24  0.0010000  0  6 19 11 16 18 06 02
  21297732.587     1741540.701 3   1357044.795 2
  23364927.497    -2614347.317 2  -2037144.223 1
  23900040.544    -2831889.446 2  -2206664.960 1
  22344980.488     7353859.065 3   5730268.414 2
  23865080.551    -4388182.470 2  -3419347.730 1
  22245303.099    -7137176.803 3  -5561416.677 2
 91  4 30 20 24 15.0010000  0  6 19 11 16 18 06 02
  21300822.244     1757768.308 3   1369689.689 2
  23365718.349    -2610184.105 2  -2033900.132 1
  23900428.174    -2829807.758 2  -2205042.873 1
  22354257.268     7402606.839 3   5768253.595 2
  23860323.438    -4413140.852 2  -3438795.805 1
  22240420.973    -7162825.015 3  -5581402.224 2
 91  4 30 20 24 30.0010000  0  6 19 11 16 18 06 02
  21303924.204     1774056.131 3   1382381.492 2
  23366540.979    -2605859.630 2  -2030530.378 1
  23900859.579    -2827580.708 2  -2203307.493 1
  22363549.334     7451447.541 3   5806311.197 2
  23855570.235    -4438076.039 2  -3458225.649 1
  22235557.440    -7188385.173 3  -5601319.167 2
 91  4 30 20 24 45.0010000  0  6 19 11 16 18 06 02
  21307033.344     1790404.414 3   1395120.403 2
  23367395.385    -2601373.774 2  -2027034.876 1
  23901307.770    -2825208.522 2  -2201459.088 1
  22372861.791     7500380.900 3   5844440.990 2
  23850847.298    -4462987.886 2  -3477637.413 1
  22230711.297    -7213857.205 3  -5621167.436 2
 91  4 30 20 25  0.0010000  0  6 19 11 16 18 06 02
  21310155.083     1806811.718 3   1407905.310 2
  23368280.076    -2596727.867 2  -2023414.658 1
  23901781.744    -2822692.271 2  -2199498.369 1
  22382195.529     7549405.191 3   5882641.637 2
  23846101.886    -4487877.884 2  -3497032.144 1
  22225879.541    -7239242.303 3  -5640947.962 2
 91  4 30 20 25 15.0010000  0  6 19 11 16 18 06 02
  21313288.819     1823279.550 3   1420737.381 2
  23369195.942    -2591920.485 2  -2019668.641 1
  23902297.686    -2820030.815 2  -2197424.502 1
  22391536.465     7598521.710 3   5920914.166 1
  23841373.261    -4512744.660 2  -3516408.759 1
  22221062.478    -7264539.123 3  -5660659.706 2
 91  4 30 20 25 30.0010000  0  6 19 11 16 18 06 02
  21316437.833     1839806.345 3   1433615.400 2
  23370139.092    -2586953.217 2  -2015798.020 1
  23902825.023    -2817225.896 2  -2195238.868 1
  22400901.979     7647728.567 3   5959257.076 2
  23836635.937    -4537589.887 2  -3535768.570 1
  22216268.799    -7289749.239 3  -5680303.888 2
 91  4 30 20 25 45.0010000  0  6 19 11 16 18 06 02
  21319589.552     1856392.319 3   1446539.545 2
  23371114.018    -2581825.686 2  -2011802.500 1
  23903385.027    -2814277.179 2  -2192941.138 1
  22410282.187     7697026.090 3   5997670.622 2
  23831915.705    -4562413.183 2  -3555111.280 1
  22211485.607    -7314872.361 3  -5699880.283 2
 91  4 30 20 26  0.0010000  0  6 19 11 16 18 06 02
  21322756.863     1873036.430 3   1459508.967 2
  23372121.620    -2576539.033 2  -2007683.009 1
  23903979.521    -2811185.785 2  -2190532.266 1
  22419680.979     7746412.662 3   6036153.570 2
  23827186.182    -4587215.950 2  -3574438.025 1
  22206724.908    -7339909.482 3  -5719389.656 2
 91  4 30 20 26 15.0010000  0  6 19 11 16 18 06 02
  21325934.364     1889739.835 3   1472524.611 2
  23373156.505    -2571092.020 2  -2003438.564 1
  23904591.997    -2807950.623 2  -2188011.367 1
  22429094.158     7795889.282 3   6074706.678 2
  23822477.040    -4611996.891 2  -3593747.777 1
  22201977.690    -7364859.455 3  -5738831.127 2
 91  4 30 20 26 30.0010000  0  6 19 11 16 18 06 02
  21329125.956     1906500.761 3   1485585.079 2
  23374227.058    -2565486.244 2  -1999070.416 1
  23905238.946    -2804573.435 2  -2185379.747 1
  22438529.526     7845453.741 3   6113328.244 2
  23817773.901    -4636757.804 2  -3613041.811 1
  22197245.470    -7389723.812 3  -5758205.893 2
 91  4 30 20 26 45.0010000  0  6 19 11 16 18 06 02
  21332325.934     1923320.618 3   1498691.463 2
  23375323.700    -2559720.405 2  -1994577.529 1
  23905905.082    -2801053.019 2  -2182636.590 1
  22447977.789     7895107.307 3   6152019.238 2
  23813058.764    -4661497.509 2  -3632319.452 2
  22192527.332    -7414501.314 3  -5777512.965 2
 91  4 30 20 27  0.0010000  0  6 19 11 16 18 06 02
  21335538.510     1940198.947 3   1511843.399 2
  23376450.617    -2553794.996 2  -1989960.301 1
  23906601.800    -2797389.980 2  -2179782.316 1
  22457443.738     7944849.176 3   6190779.018 2
  23808354.116    -4686216.727 2  -3651581.075 1
  22187832.282    -7439192.448 3  -5796752.751 2
 91  4 30 20 27 15.0010000  0  6 19 11 16 18 06 02
  21338760.981     1957137.368 3   1525042.178 2
  23377605.717    -2547708.620 2  -1985217.637 1
  23907319.510    -2793583.166 2  -2176815.980 1
  22466926.771     7994680.357 3   6229608.419 2
  23803662.067    -4710913.743 2  -3670825.457 1
  22183148.024    -7463795.785 3  -5815924.115 2
 91  4 30 20 27 30.0010000  0  6 19 11 16 18 06 02
  21341997.839     1974133.111 3   1538285.610 2
  23378793.195    -2541463.970 2  -1980351.663 1
  23908082.477    -2789635.423 2  -2173739.830 1
  22476427.193     8044598.135 3   6268505.284 2
  23798960.725    -4735591.616 2  -3690054.831 1
  22178482.359    -7488313.976 3  -5835029.142 2
 91  4 30 20 27 45.0010000  0  6 19 11 16 18 06 02
  21345239.802     1991185.409 3   1551573.120 2
  23380016.953    -2535061.864 2  -1975362.976 1
  23908848.751    -2785547.736 2  -2170554.620 1
  22485938.705     8094601.523 3   6307468.849 2
  23794268.972    -4760251.112 2  -3709269.921 1
  22173834.677    -7512748.011 3  -5854068.583 2
 91  4 30 20 28  0.0010000  0  6 19 11 16 18 06 02
  21348494.346     2008295.506 3   1564905.654 2
  23381258.091    -2528500.660 2  -1970250.341 1
  23909663.580    -2781318.384 2  -2167259.034 1
  22495471.209     8144691.661 3   6346500.013 2
  23789582.018    -4784890.727 2  -3728469.500 1
  22169198.686    -7537096.315 3  -5873041.238 2
 91  4 30 20 28 15.0010000  0  6 19 11 16 18 06 02
  21351762.981     2025462.475 3   1578282.514 2
  23382539.103    -2521781.360 2  -1965014.502 1
  23910493.408    -2776948.511 2  -2163853.899 1
  22505020.797     8194867.299 3   6385597.806 2
  23784893.860    -4809511.607 2  -3747654.573 1
  22164583.077    -7561359.818 3  -5891947.794 2
 91  4 30 20 28 30.0010000  0  6 19 11 16 18 06 02
  21355043.308     2042687.277 3   1591704.440 2
  23383846.796    -2514903.211 2  -1959654.861 1
  23911340.921    -2772437.544 2  -2160338.873 1
  22514585.078     8245128.891 3   6424762.586 2
  23780207.805    -4834113.004 2  -3766824.416 1
  22159980.966    -7585537.539 3  -5910787.510 2
 91  4 30 20 28 45.0010000  0  6 19 11 16 18 06 02
  21358330.536     2059968.965 3   1605170.685 2
  23385187.470    -2507867.063 2  -1954172.134 1
  23912235.506    -2767786.175 2  -2156714.460 1
  22524164.349     8295475.462 3   6463993.587 2
  23775534.043    -4858695.787 2  -3785979.655 1
  22155400.432    -7609630.396 3  -5929561.109 2
 91  4 30 20 29  0.0010000  0  6 19 11 16 18 06 02
  21361630.948     2077307.947 3   1618681.579 2
  23386556.326    -2500672.537 2  -1948565.968 1
  23913143.878    -2762994.299 2  -2152980.546 1
  22533761.603     8345906.978 3   6503290.770 2
  23770862.978    -4883259.617 2  -3805120.287 1
  22150829.200    -7633638.191 3  -5948268.406 2
 91  4 30 20 29 15.0010000  0  6 19 11 16 18 06 02
  21364937.363     2094705.062 3   1632237.761 2
  23387957.553    -2493318.884 2  -1942835.837 1
  23914084.924    -2758061.117 2  -2149136.516 1
  22543374.744     8396423.918 3   6542654.516 2
  23766195.803    -4907803.757 2  -3824245.493 1
  22146277.153    -7657559.841 3  -5966908.602 2
 91  4 30 20 29 30.0010000  0  6 19 11 16 18 06 02
  21368265.059     2112158.097 3   1645837.529 2
  23389385.766    -2485808.159 2  -1936983.298 1
  23915051.754    -2752988.881 2  -2145184.130 1
  22553003.478     8447024.016 3   6582083.067 2
  23761525.340    -4932330.391 2  -3843357.044 1
  22141740.995    -7681397.471 3  -5985483.320 2
 91  4 30 20 29 45.0010000  0  6 19 11 16 18 06 02
  21371589.753     2129668.264 3   1659481.820 2
  23390844.857    -2478139.368 2  -1931007.596 1
  23916036.269    -2747776.928 2  -2141122.883 1
  22562647.201     8497708.105 3   6621577.055 2
  23756863.270    -4956838.734 2  -3862454.342 1
  22137220.420    -7705150.082 3  -6003991.784 2
 91  4 30 20 30  0.0010000  0  6 19 11 16 18 06 02
  21374939.933     2147235.228 3   1673170.354 2
  23392336.022    -2470312.753 2  -1924908.898 1
  23917063.964    -2742425.484 2  -2136952.963 1
  22572314.910     8548475.600 3   6661136.045 2
  23752201.191    -4981328.896 2  -3881537.523 1
  22132715.437    -7728817.917 3  -6022434.182 2
 91  4 30 20 30 15.0010000  0  6 19 11 16 18 06 02
  21378287.722     2164858.711 3   1686902.946 2
  23393853.571    -2462328.484 2  -1918687.313 1
  23918100.647    -2736934.915 2  -2132674.593 1
  22581983.814     8599326.033 3   6700759.650 1
  23747544.217    -5005801.314 2  -3900606.838 1
  22128229.047    -7752401.036 3  -6040810.582 2
 91  4 30 20 30 30.0010000  0  6 19 11 16 18 06 02
  21381655.291     2182539.313 3   1700680.030 2
  23395402.601    -2454185.911 2  -1912342.460 1
  23919179.000    -2731304.574 2  -2128287.366 1
  22591680.306     8650259.601 3   6740448.036 2
  23742878.247    -5030255.348 2  -3919661.853 1
  22123757.045    -7775899.075 3  -6059120.685 2
 91  4 30 20 30 45.0010000  0  6 19 11 16 18 06 02
  21385025.853     2200275.940 3   1714500.778 2
  23396982.203    -2445886.284 2  -1905875.182 1
  23920275.939    -2725536.084 2  -2123792.381 1
  22601386.684     8701274.908 3   6780200.129 2
  23738227.563    -5054692.182 2  -3938703.453 1
  22119301.525    -7799313.188 3  -6077365.395 2
 91  4 30 20 31  0.0010000  0  6 19 11 16 18 06 02
  21388414.712     2218068.719 3   1728365.280 2
  23398591.488    -2437429.546 2  -1899285.498 1
  23921395.065    -2719629.294 2  -2119189.750 1
  22611108.654     8752371.885 3   6820015.848 2
  23733589.775    -5079111.889 2  -3957731.697 1
  22114862.198    -7822643.183 3  -6095544.548 2
 91  4 30 20 31 15.0010000  0  6 19 11 16 18 06 02
  21391811.658     2235916.650 3   1742272.748 2
  23400231.058    -2428816.791 2  -1892574.208 1
  23922556.761    -2713585.298 2  -2114480.162 1
  22620849.514     8803549.201 3   6859894.168 1
  23728949.893    -5103515.575 2  -3976747.475 1
  22110437.259    -7845890.049 3  -6113658.933 2
 91  4 30 20 31 30.0010000  0  6 19 11 16 18 06 02
  21395220.296     2253819.354 3   1756222.918 2
  23401899.404    -2420048.414 2  -1885741.676 1
  23923721.755    -2707404.620 2  -2109664.019 1
  22630599.658     8854805.913 3   6899834.362 1
  23724306.704    -5127903.743 2  -3995751.150 1
  22106029.413    -7869054.267 3  -6131708.915 2
 91  4 30 20 31 45.0010000  0  6 19 11 16 18 06 02
  21398631.640     2271776.882 3   1770215.794 2
  23403595.932    -2411124.089 2  -1878787.650 1
  23924930.217    -2701087.165 2  -2104741.348 1
  22640371.701     8906142.413 3   6939836.723 2
  23719671.010    -5152275.988 2  -4014742.448 1
  22101637.158    -7892135.721 3  -6149694.396 2
 91  4 30 20 32  0.0010000  0  6 19 11 16 18 06 02
  21402063.958     2289789.329 3   1784251.465 2
  23405323.931    -2402043.945 2  -1871712.188 1
  23926151.270    -2694633.044 2  -2099712.141 1
  22650159.921     8957558.236 3   6979900.889 2
  23715028.423    -5176632.586 2  -4033721.527 1
  22097260.486    -7915134.355 3  -6167615.355 2
 91  4 30 20 32 15.0010000  0  6 19 11 16 18 06 02
  21405500.185     2307857.031 3   1798330.191 2
  23407086.115    -2392807.865 2  -1864515.232 1
  23927411.900    -2688042.031 2  -2094576.337 1
  22659951.142     9009053.283 3   7020026.805 1
  23710402.632    -5200973.406 2  -4052688.321 1
  22092900.907    -7938050.016 3  -6185471.660 2
 91  4 30 20 32 30.0010000  0  6 19 11 16 18 06 02
  21408947.196     2325979.112 3   1812451.302 2
  23408871.377    -2383416.746 3  -1857197.462 1
  23928688.409    -2681315.560 2  -2089334.968 1
  22669769.647     9060626.283 3   7060213.433 1
  23705766.336    -5225299.447 2  -4071643.554 1
  22088553.613    -7960883.489 3  -6203263.900 2
 91  4 30 20 32 45.0010000  0  6 19 11 16 18 06 02
  21412410.698     2344153.703 3   1826613.312 2
  23410683.922    -2373872.238 2  -1849760.149 1
  23929996.705    -2674455.332 2  -2083989.353 1
  22679599.241     9112275.433 3   7100459.421 2
  23701147.735    -5249612.339 2  -4090588.616 1
  22084226.404    -7983636.539 3  -6220993.503 2
 91  4 30 20 33  0.0010000  0  6 19 11 16 18 06 02
  21415876.599     2362382.661 3   1840817.691 2
  23412531.246    -2364172.606 2  -1842201.959 1
  23931324.788    -2667459.569 2  -2078538.134 1
  22689439.026     9164002.308 3   7140765.958 1
  23696525.233    -5273910.434 2  -4109522.123 1
  22079910.293    -8006307.227 3  -6238658.907 2
 91  4 30 20 33 15.0010000  0  6 19 11 16 18 06 02
  21419353.590     2380664.376 3   1855063.180 2
  23414409.744    -2354319.365 2  -1834524.088 1
  23932680.749    -2660329.999 2  -2072982.654 1
  22699296.506     9215805.198 3   7181131.749 2
  23691902.138    -5298195.273 2  -4128445.266 1
  22075611.572    -8028897.288 3  -6256261.492 2
 91  4 30 20 33 30.0010000  0  6 19 11 16 18 06 02
  21422852.167     2398999.292 3   1869350.123 2
  23416311.024    -2344312.034 2  -1826726.137 1
  23934070.292    -2653066.338 2  -2067322.638 1
  22709174.062     9267684.100 3   7221556.756 2
  23687291.328    -5322466.350 2  -4147357.707 1
  22071327.534    -8051406.161 3  -6273800.821 2
 91  4 30 20 33 45.0010000  0  6 19 11 16 18 06 02
  21426341.154     2417389.004 3   1883679.766 2
  23418242.292    -2334149.262 2  -1818807.086 1
  23935472.120    -2645666.921 2  -2061556.902 1
  22719053.424     9319639.994 3   7262041.754 2
  23682667.335    -5346722.485 2  -4166258.541 1
  22067062.693    -8073832.420 3  -6291275.762 2
 91  4 30 20 34  0.0010000  0  6 19 11 16 18 06 02
  21429853.220     2435831.797 3   1898050.762 2
  23420204.726    -2323832.843 3  -1810768.303 1
  23936908.727    -2638133.853 2  -2055686.962 1
  22728958.272     9371670.969 3   7302585.264 1
  23678050.531    -5370965.409 2  -4185149.030 1
  22062811.331    -8096177.672 3  -6308687.578 2
 91  4 30 20 34 15.0010000  0  6 19 11 16 18 06 02
  21433372.781     2454327.660 3   1912463.131 2
  23422199.844    -2313362.918 2  -1802609.884 1
  23938370.514    -2630467.308 2  -2049713.054 1
  22738878.102     9423776.691 3   7343187.019 1
  23673442.713    -5395195.230 2  -4204029.341 1
  22058573.764    -8118441.967 3  -6326036.322 2
 91  4 30 20 34 30.0010000  0  6 19 11 16 18 06 02
  21436904.644     2472874.692 3   1926915.360 2
  23424220.745    -2302741.438 3  -1794333.375 1
  23939851.183    -2622669.402 2  -2043636.773 1
  22748806.927     9475955.138 3   7383845.433 1
  23668835.804    -5419413.986 2  -4222900.967 1
  22054350.889    -8140627.349 3  -6343323.577 2
 91  4 30 20 34 45.0010000  0  6 19 11 16 18 06 02
  21440440.991     2491474.468 3   1941408.707 2
  23426274.627    -2291966.688 2  -1785937.473 1
  23941360.644    -2614738.715 2  -2037457.005 1
  22758750.445     9528207.598 3   7424561.503 1
  23664233.090    -5443619.977 2  -4241762.719 1
  22050143.904    -8162732.033 3  -6360547.944 2
 91  4 30 20 35  0.0010000  0  6 19 11 16 18 06 02
  21443992.634     2510128.273 3   1955944.131 2
  23428350.095    -2281037.511 2  -1777421.183 1
  23942894.379    -2606674.058 2  -2031172.899 1
  22768702.060     9580535.036 3   7465336.024 1
  23659615.388    -5467811.978 2  -4260613.568 1
  22045952.501    -8184755.012 3  -6377708.634 2
 91  4 30 20 35 15.0010000  0  6 19 11 16 18 06 02
  21447550.873     2528834.017 3   1970520.032 2
  23430463.325    -2269956.014 2  -1768786.217 1
  23944449.106    -2598477.501 2  -2024786.009 1
  22778674.353     9632935.150 3   7506167.170 1
  23655027.961    -5491992.250 2  -4279455.231 1
  22041778.496    -8206698.367 3  -6394807.308 2
 91  4 30 20 35 30.0010000  0  6 19 11 16 18 06 02
  21451124.399     2547593.057 3   1985137.461 2
  23432602.949    -2258720.902 2  -1760031.588 1
  23946042.503    -2590148.025 2  -2018295.521 1
  22788662.238     9685408.809 3   7547055.612 1
  23650421.051    -5516159.423 2  -4298286.711 1
  22037617.073    -8228560.687 3  -6411842.815 2
 91  4 30 20 35 45.0010000  0  6 19 11 16 18 06 02
  21454697.924     2566405.549 3   1999796.547 2
  23434766.549    -2247332.165 2  -1751157.197 1
  23947647.286    -2581685.606 2  -2011701.430 1
  22798662.111     9737956.037 3   7588001.399 2
  23645827.037    -5540313.305 2  -4317107.814 1
  22033472.149    -8250341.676 3  -6428814.962 2
 91  4 30 20 36  0.0010000  0  6 19 11 16 18 06 02
  21458289.737     2585269.649 3   2014495.843 2
  23436961.027    -2235791.745 2  -1742164.635 1
  23949286.550    -2573092.068 2  -2005005.211 1
  22808676.085     9790574.674 2   7629002.819 1
  23641229.716    -5564456.059 2  -4335920.286 1
  22029343.105    -8272043.345 3  -6445725.289 2
 91  4 30 20 36 15.0010000  0  6 19 11 16 18 06 02
  21461888.147     2604186.281 3   2029236.086 2
  23439186.087    -2224098.569 2  -1733053.051 1
  23950940.212    -2564366.664 2  -1998206.203 1
  22818703.538     9843265.353 2   7670060.351 1
  23636640.195    -5588586.724 2  -4354723.294 1
  22025229.355    -8293664.514 3  -6462572.896 2
 91  4 30 20 36 30.0010000  0  6 19 11 16 18 06 02
  21465503.038     2623156.520 3   2044018.090 2
  23441438.727    -2212251.553 2  -1723821.573 1
  23952635.238    -2555508.734 2  -1991303.960 1
  22828743.887     9896029.097 2   7711174.852 1
  23632048.869    -5612704.102 2  -4373516.009 1
  22021130.290    -8315204.209 3  -6479357.011 2
 91  4 30 20 36 45.0010000  0  6 19 11 16 18 06 02
  21469119.438     2642178.630 3   2058840.515 2
  23443728.841    -2200252.766 2  -1714471.833 1
  23954341.652    -2546520.145 2  -1984299.872 1
  22838794.131     9948863.482 2   7752344.397 1
  23627467.445    -5636810.235 2  -4392299.929 1
  22017047.419    -8336664.437 3  -6496079.210 2
 91  4 30 20 37  0.0010000  0  6 19 11 16 18 06 02
  21472750.227     2661254.514 3   2073704.838 2
  23446035.751    -2188100.375 2  -1705002.454 1
  23956083.148    -2537398.922 2  -1977192.425 1
  22848864.163    10001770.272 2   7793570.329 1
  23622880.620    -5660903.271 2  -4411073.620 1
  22012980.131    -8358043.215 3  -6512737.957 2
 91  4 30 20 37 15.0010000  0  6 19 11 16 18 06 02
  21476387.306     2680383.617 3   2088610.622 2
  23448376.227    -2175794.963 2  -1695413.767 1
  23957836.032    -2528146.072 2  -1969982.414 1
  22858944.386    10054748.581 2   7834852.006 1
  23618297.390    -5684983.899 2  -4429837.679 1
  22008926.341    -8379341.143 3  -6529333.675 2
 91  4 30 20 37 30.0010000  0  6 19 11 16 18 06 02
  21480038.476     2699564.140 3   2103556.496 2
  23450749.386    -2163338.345 2  -1685707.265 1
  23959629.992    -2518763.285 2  -1962671.168 1
  22869041.989    10107796.314 2   7876187.765 1
  23613726.760    -5709053.770 2  -4448593.303 1
  22004886.031    -8400560.048 3  -6545867.836 2
 91  4 30 20 37 45.0010000  0  6 19 11 16 18 06 02
  21483702.838     2718798.257 3   2118544.107 2
  23453146.226    -2150728.393 2  -1675881.337 1
  23961430.550    -2509248.784 2  -1955257.316 1
  22879149.190    10160915.412 2   7917579.157 1
  23609139.630    -5733110.845 2  -4467338.985 1
  22000864.620    -8421697.687 3  -6562338.664 2
 91  4 30 20 38  0.0010000  0  6 19 11 16 18 06 02
  21487373.204     2738084.748 3   2133572.547 2
  23455573.944    -2137966.374 2  -1665936.914 1
  23963272.472    -2499603.942 2  -1947741.855 1
  22889272.289    10214104.563 2   7959025.132 1
  23604558.808    -5757156.357 2  -4486075.701 1
  21996856.392    -8442755.284 3  -6578747.131 2
 91  4 30 20 38 15.0010000  0  6 19 11 16 18 06 02
  21491050.759     2757423.174 3   2148641.443 2
  23458036.440    -2125052.860 2  -1655874.378 1
  23965127.588    -2489829.248 2  -1940125.238 1
  22899406.468    10267362.616 2   8000524.794 2
  23600000.156    -5781191.091 2  -4504803.971 1
  21992867.351    -8463733.546 3  -6595093.760 2
 91  4 30 20 38 30.0010000  0  6 19 11 16 18 06 02
  21494739.700     2776812.024 3   2163749.647 2
  23460520.217    -2111989.414 2  -1645695.048 1
  23967014.480    -2479926.660 2  -1932408.993 1
  22909551.448    10320688.064 2   8042076.986 1
  23595411.840    -5805216.504 2  -4523525.015 1
  21988886.110    -8484633.860 3  -6611379.675 2
 91  4 30 20 38 45.0010000  0  6 19 11 16 18 06 02
  21498439.443     2796253.019 3   2178898.471 2
  23463032.778    -2098774.570 2  -1635397.722 1
  23968922.661    -2469894.734 2  -1924591.945 1
  22919718.608    10374081.960 2   8083682.493 1
  23590853.494    -5829230.923 2  -4542237.443 1
  21984923.156    -8505454.478 3  -6627603.482 2
 91  4 30 20 39  0.0010000  0  6 19 11 16 18 06 02
  21502152.666     2815745.957 3   2194087.771 2
  23465575.624    -2085408.443 2  -1624982.503 1
  23970857.820    -2459733.602 2  -1916674.215 1
  22929889.372    10427543.959 2   8125341.064 1
  23586281.659    -5853234.553 2  -4560941.471 1
  21980979.084    -8526195.518 3  -6643765.272 2
 91  4 30 20 39 15.0010000  0  6 19 11 16 18 06 02
  21505868.899     2835291.775 3   2209318.270 2
  23468152.340    -2071890.159 2  -1614448.747 1
  23972812.768    -2449442.235 2  -1908654.981 1
  22940074.218    10481074.817 2   8167053.308 1
  23581706.823    -5877226.488 2  -4579636.410 1
  21977045.805    -8546856.217 3  -6659864.463 2
 91  4 30 20 39 30.0010000  0  6 19 11 16 18 06 02
  21509597.112     2854889.409 3   2224589.153 2
  23470756.637    -2058220.806 2  -1603797.294 1
  23974792.600    -2439022.015 2  -1900535.368 1
  22950271.654    10534673.249 2   8208818.199 1
  23577152.979    -5901207.858 2  -4598323.114 1
  21973129.915    -8567437.445 3  -6675901.742 2
 91  4 30 20 39 45.0010000  0  6 19 11 16 18 06 02
  21513337.025     2874539.350 3   2239900.790 2
  23473379.815    -2044399.911 2  -1593027.730 1
  23976801.809    -2428472.650 2  -1892315.125 1
  22960491.286    10588339.545 2   8250635.975 1
  23572590.733    -5925178.123 2  -4617001.137 1
  21969229.617    -8587938.898 3  -6691876.850 2
 91  4 30 20 40  0.0010000  0  6 19 11 16 18 06 02
  21517091.631     2894239.693 3   2255251.699 2
  23476039.874    -2030429.512 2  -1582141.681 1
  23978833.198    -2417796.250 2  -1883995.887 1
  22970713.606    10642071.333 2   8292504.787 2
  23568033.591    -5949139.311 2  -4635672.138 1
  21965344.605    -8608362.516 3  -6707791.302 2
 91  4 30 20 40 15.0010000  0  6 19 11 16 18 06 02
  21520845.025     2913993.708 3   2270644.442 2
  23478727.818    -2016306.653 2  -1571136.823 1
  23980889.479    -2406989.489 2  -1875575.102 1
  22980947.322    10695871.647 2   8334427.008 2
  23563466.852    -5973088.332 2  -4654333.620 1
  21961471.887    -8628705.118 3  -6723642.626 2
 91  4 30 20 40 30.0010000  0  6 19 11 16 18 06 02
  21524612.518     2933799.298 3   2286077.375 2
  23481446.928    -2002033.381 2  -1560014.774 1
  23982978.427    -2396055.105 2  -1867054.774 1
  22991198.120    10749737.887 2   8376400.562 1
  23558919.002    -5997027.304 2  -4672987.276 1
  21957616.558    -8648968.794 3  -6739432.451 2
 91  4 30 20 40 45.0010000  0  6 19 11 16 18 06 02
  21528393.204     2953657.401 3   2301551.212 2
  23484186.735    -1987608.784 2  -1548774.807 1
  23985076.973    -2384992.286 2  -1858434.444 1
  23001465.418    10803670.830 2   8418426.129 1
  23554360.953    -6020955.400 2  -4691632.464 1
  21953775.914    -8669152.713 3  -6755160.134 2
 91  4 30 20 41  0.0010000  0  6 19 11 16 18 06 02
  21532185.276     2973565.056 3   2317063.661 2
  23486965.516    -1973035.942 2  -1537419.343 1
  23987207.304    -2373804.206 2  -1849716.438 1
  23011738.109    10857667.199 2   8460501.083 1
  23549803.811    -6044875.460 2  -4710271.385 1
  21949948.767    -8689259.649 3  -6770827.825 2
 91  4 30 20 41 15.0010000  0  6 19 11 16 18 06 02
  21535979.154     2993523.274 3   2332615.513 2
  23489766.773    -1958313.953 2  -1525947.648 1
  23989364.605    -2362489.666 2  -1840899.968 1
  23022023.389    10911728.009 2   8502626.270 1
  23545256.555    -6068786.689 2  -4728903.459 1
  21946136.008    -8709288.841 3  -6786434.930 2
 91  4 30 20 41 30.0010000  0  6 19 11 16 18 06 02
  21539786.817     3013532.064 3   2348206.772 2
  23492592.618    -1943442.841 2  -1514359.748 1
  23991539.600    -2351049.141 2  -1831985.337 1
  23032323.956    10965852.581 2   8544801.148 1
  23540718.896    -6092689.148 2  -4747528.667 1
  21942339.434    -8729240.265 3  -6801981.451 2
 91  4 30 20 41 45.0010000  0  6 19 11 16 18 06 02
  21543605.274     3033590.665 3   2363836.850 2
  23495449.943    -1928423.602 2  -1502656.420 1
  23993741.582    -2339483.510 2  -1822973.147 1
  23042637.410    11020039.919 2   8587024.912 1
  23536170.445    -6116583.613 2  -4766147.641 1
  21938560.249    -8749114.609 3  -6817467.899 2
 91  4 30 20 42  0.0010000  0  6 19 11 16 18 06 02
  21547436.024     3053699.722 3   2379506.228 2
  23498335.441    -1913255.682 2  -1490837.245 1
  23995961.538    -2327792.354 2  -1813863.176 1
  23052961.063    11074290.198 2   8629297.742 1
  23531619.602    -6140469.583 2  -4784759.999 1
  21934790.365    -8768911.299 3  -6832893.839 2
 91  4 30 20 42 15.0010000  0  6 19 11 16 18 06 02
  21551267.970     3073857.684 3   2395213.737 2
  23501250.622    -1897940.877 2  -1478903.597 1
  23998213.881    -2315977.442 2  -1804656.794 1
  23063298.511    11128601.537 2   8671618.166 1
  23527082.537    -6164348.769 2  -4803367.086 1
  21931039.955    -8788632.092 3  -6848260.648 2
 91  4 30 20 42 30.0010000  0  6 19 11 16 18 06 02
  21555115.507     3094066.845 3   2410961.134 2
  23504195.180    -1882476.791 2  -1466853.630 1
  24000483.308    -2304036.929 2  -1795352.554 1
  23073638.952    11182976.250 2   8713987.938 1
  23522543.081    -6188218.760 2  -4821967.011 1
  21927301.848    -8808274.567 3  -6863566.413 2
 91  4 30 20 42 45.0010000  0  6 19 11 16 18 06 02
  21558966.334     3114325.739 3   2426747.282 2
  23507166.124    -1866864.845 2  -1454688.501 1
  24002776.720    -2291972.092 2  -1785951.400 1
  23084007.575    11237412.650 2   8756405.774 1
  23517994.333    -6212080.772 2  -4840560.709 1
  21923579.019    -8827839.975 3  -6878812.134 2
 91  4 30 20 43  0.0010000  0  6 19 11 16 18 06 02
  21562833.957     3134634.175 3   2442572.019 2
  23510166.750    -1851105.586 2  -1442408.553 1
  24005096.814    -2279783.527 2  -1776453.851 1
  23094372.603    11291909.834 2   8798870.995 1
  23513450.375    -6235935.415 2  -4859148.678 1
  21919870.891    -8847328.843 3  -6893998.223 2
 91  4 30 20 43 15.0010000  0  6 19 11 16 18 06 02
  21566703.682     3154992.570 3   2458435.697 2
  23513191.056    -1835198.738 2  -1430013.574 1
  24007438.494    -2267470.664 2  -1766859.473 1
  23104754.409    11346467.969 2   8841383.720 1
  23508913.318    -6259782.422 2  -4877730.681 1
  21916175.650    -8866740.796 3  -6909124.360 2
 91  4 30 20 43 30.0010000  0  6 19 11 16 18 06 02
  21570589.296     3175401.003 3   2474338.369 2
  23516249.241    -1819144.274 2  -1417503.569 1
  24009807.160    -2255033.978 2  -1757168.562 1
  23115147.619    11401087.158 2   8883943.989 1
  23504374.464    -6283621.701 2  -4896306.653 1
  21912497.494    -8886075.787 3  -6924190.534 2
 91  4 30 20 43 45.0010000  0  6 19 11 16 18 06 02
  21574479.997     3195858.823 3   2490279.525 2
  23519326.308    -1802943.029 2  -1404879.226 1
  24012198.302    -2242474.439 2  -1747381.948 1
  23125551.011    11455766.249 2   8926550.956 1
  23499834.703    -6307453.985 2  -4914877.194 1
  21908829.833    -8905334.539 3  -6939197.313 2
 91  4 30 20 44  0.0010000  0  6 19 11 16 18 06 02
  21578385.399     3216365.480 3   2506258.726 2
  23522439.654    -1786595.525 2  -1392140.888 1
  24014611.929    -2229792.419 2  -1737499.947 1
  23135971.199    11510504.333 2   8969203.876 1
  23495313.229    -6331279.801 2  -4933442.700 1
  21905179.562    -8924517.701 3  -6954145.176 2
 91  4 30 20 44 15.0010000  0  6 19 11 16 18 06 02
  21582294.989     3236922.275 3   2522277.001 2
  23525578.477    -1770100.638 2  -1379287.726 1
  24017048.939    -2216986.909 2  -1727521.634 1
  23146396.186    11565302.437 2   9011903.569 1
  23490774.977    -6355097.955 2  -4952002.246 1
  21901544.873    -8943623.897 3  -6969033.069 2
 91  4 30 20 44 30.0010000  0  6 19 11 16 18 06 02
  21586217.170     3257528.262 3   2538333.616 2
  23528745.490    -1753459.555 2  -1366320.627 1
  24019504.543    -2204059.189 2  -1717448.089 1
  23156833.755    11620159.419 2   9054649.179 1
  23486254.106    -6378909.369 2  -4970556.512 1
  21897922.182    -8962654.105 3  -6983861.772 2
 91  4 30 20 44 45.0010000  0  6 19 11 16 18 06 02
  21590143.251     3278185.472 3   2554430.139 2
  23531946.968    -1736670.229 2  -1353238.005 1
  24021997.018    -2191007.318 2  -1707277.839 1
  23167285.720    11675077.062 2   9097442.021 1
  23481722.441    -6402712.130 2  -4989104.020 1
  21894315.981    -8981606.390 3  -6998629.737 2
 91  4 30 20 45  0.0010000  0  6 19 11 16 18 06 02
  21594088.222     3298892.313 3   2570565.329 2
  23535162.250    -1719734.187 2  -1340041.077 1
  24024501.788    -2177833.304 2  -1697012.387 1
  23177754.472    11730053.174 2   9140280.401 1
  23477187.478    -6426507.648 2  -5007645.926 1
  21890723.871    -9000482.142 3  -7013338.059 2
 91  4 30 20 45 15.0010000  0  6 19 11 16 18 06 02
  21598035.295     3319648.209 3   2586738.743 2
  23538413.496    -1702652.406 2  -1326730.579 1
  24027030.534    -2164537.840 2  -1686652.338 1
  23188217.230    11785086.948 2   9183163.750 1
  23472651.321    -6450296.875 2  -5026182.931 1
  21887146.445    -9019282.096 3  -7027987.327 2
 91  4 30 20 45 30.0010000  0  6 19 11 16 18 06 02
  21601998.850     3340454.393 3   2602951.343 2
  23541689.329    -1685423.852 2  -1313305.729 1
  24029582.070    -2151120.259 2  -1676197.109 1
  23198704.270    11840179.112 2   9226092.589 1
  23468133.154    -6474078.539 2  -5044714.039 1
  21883581.610    -9038005.326 3  -7042576.798 2
 91  4 30 20 45 45.0010000  0  6 19 11 16 18 06 02
  21605963.304     3361309.544 3   2619202.116 2
  23544997.541    -1668049.896 2  -1299767.558 1
  24032165.077    -2137581.862 2  -1665647.738 1
  23209198.805    11895328.344 2   9269065.881 1
  23463610.179    -6497854.160 2  -5063240.389 1
  21880032.969    -9056653.141 3  -7057107.519 2
 91  4 30 20 46  0.0010000  0  6 19 11 16 18 06 02
  21609950.243     3382214.326 3   2635491.536 2
  23548334.224    -1650529.855 2  -1286115.547 1
  24034758.284    -2123922.271 2  -1655003.929 1
  23219704.132    11950535.190 2   9312084.072 1
  23459089.910    -6521622.782 2  -5081761.329 1
  21876500.216    -9075224.681 3  -7071578.811 2
 91  4 30 20 46 15.0010000  0  6 19 11 16 18 06 02
  21613930.890     3403168.562 3   2651819.510 2
  23551695.799    -1632864.074 2  -1272349.965 1
  24037376.070    -2110141.499 2  -1644265.723 1
  23230221.754    12005799.076 2   9355146.722 1
  23454564.240    -6545384.841 2  -5100277.126 1
  21872982.749    -9093720.230 3  -7085990.873 2
 91  4 30 20 46 30.0010000  0  6 19 11 16 18 06 02
  21617927.418     3424170.682 3   2668184.801 2
  23555081.656    -1615054.332 2  -1258472.252 1
  24040029.532    -2096241.535 2  -1633434.601 1
  23240745.666    12061117.746 2   9398252.051 1
  23450042.173    -6569141.981 2  -5118789.105 1
  21869474.575    -9112141.551 3  -7100345.100 2
 91  4 30 20 46 45.0010000  0  6 19 11 16 18 06 02
  21621935.646     3445222.225 3   2684588.583 2
  23558500.790    -1597099.261 2  -1244481.255 1
  24042701.588    -2082221.169 2  -1622509.706 1
  23251285.170    12116492.597 2   9441401.152 1
  23445528.499    -6592892.780 2  -5137296.176 1
  21865984.994    -9130487.035 3  -7114640.239 2
 91  4 30 20 47  0.0010000  0  6 19 11 16 18 06 02
  21625952.267     3466322.060 3   2701030.007 2
  23561941.807    -1578999.987 2  -1230377.936 1
  24045392.822    -2068081.625 2  -1611491.890 1
  23261829.167    12171922.240 2   9484592.945 1
  23441009.129    -6616638.313 2  -5155799.113 1
  21862506.502    -9148757.885 3  -7128877.220 2
 91  4 30 20 47 15.0010000  0  6 19 11 16 18 06 02
  21629968.583     3487470.840 3   2717509.568 2
  23565413.406    -1560756.020 2  -1216161.841 1
  24048098.452    -2053822.702 2  -1600381.115 1
  23272389.062    12227406.975 2   9527827.696 1
  23436482.263    -6640377.993 2  -5174297.474 1
  21859045.697    -9166953.461 3  -7143055.546 2
 91  4 30 20 47 30.0010000  0  6 19 11 16 18 06 02
  21634003.492     3508667.777 3   2734026.646 2
  23568911.084    -1542368.337 2  -1201833.787 1
  24050833.451    -2039445.252 2  -1589177.895 1
  23282957.943    12282945.554 2   9571104.382 1
  23431977.280    -6664112.669 2  -5192791.944 1
  21855595.684    -9185074.665 3  -7157175.912 2
 91  4 30 20 47 45.0010000  0  6 19 11 16 18 06 02
  21638053.085     3529912.072 3   2750580.642 2
  23572438.140    -1523837.856 2  -1187394.421 1
  24053592.147    -2024950.078 2  -1577883.051 1
  23293540.017    12338537.079 2   9614422.315 1
  23427447.718    -6687843.165 2  -5211283.167 1
  21852161.865    -9203122.184 3  -7171238.873 2
 91  4 30 20 48  0.0010000  0  6 19 11 16 18 06 02
  21642104.782     3551205.060 3   2767172.569 2
  23575993.683    -1505163.492 2  -1172842.981 1
  24056371.522    -2010336.239 2  -1566495.664 1
  23304129.586    12394182.472 2   9657782.234 1
  23422943.337    -6711568.246 2  -5229770.160 1
  21848744.824    -9221094.800 3  -7185243.458 2
 91  4 30 20 48 15.0010000  0  6 19 11 16 18 06 02
  21646161.870     3572547.178 3   2783802.776 2
  23579574.999    -1486344.875 2  -1158179.113 1
  24059178.180    -1995603.386 2  -1555015.613 1
  23314730.549    12449882.089 2   9701184.424 1
  23418419.464    -6735287.426 2  -5248252.581 1
  21845336.788    -9238992.099 3  -7199189.374 2
 91  4 30 20 48 30.0010000  0  6 19 11 16 18 06 02
  21650232.753     3593937.054 3   2800470.199 2
  23583179.708    -1467383.474 2  -1143403.987 1
  24061999.522    -1980753.276 2  -1543444.095 1
  23325338.406    12505633.883 2   9744627.257 1
  23413926.173    -6759002.146 2  -5266731.504 1
  21841944.937    -9256815.462 3  -7213077.664 2
 91  4 30 20 48 45.0010000  0  6 19 11 16 18 06 02
  21654313.530     3615374.942 3   2817175.041 2
  23586820.984    -1448279.266 2  -1128517.570 1
  24064846.656    -1965786.166 2  -1531781.461 1
  23335960.947    12561438.112 2   9788110.937 1
  23409401.113    -6782712.225 2  -5285206.810 1
  21838565.380    -9274564.813 3  -7226908.280 2
 91  4 30 20 49  0.0010000  0  6 19 11 16 18 06 02
  21658399.699     3636859.688 3   2833916.378 2
  23590479.955    -1429033.457 2  -1113520.838 1
  24067719.861    -1950703.132 2  -1520028.510 1
  23346583.793    12617293.321 2   9831634.347 1
  23404893.730    -6806418.853 2  -5303679.455 1
  21835204.703    -9292241.169 3  -7240682.026 2
 91  4 30 20 49 15.0010000  0  6 19 11 16 18 06 02
  21662499.959     3658393.367 3   2850695.869 2
  23594170.693    -1409644.363 2  -1098412.453 1
  24070615.559    -1935502.430 2  -1508183.844 1
  23357227.326    12673201.038 2   9875198.660 1
  23400385.746    -6830120.117 2  -5322147.881 1
  21831854.820    -9309842.678 3  -7254397.441 2
 91  4 30 20 49 30.0010000  0  6 19 11 16 18 06 02
  21666609.215     3679975.291 3   2867512.930 2
  23597884.527    -1390112.818 2  -1083193.063 1
  24073526.543    -1920184.976 2  -1496248.220 1
  23367872.657    12729160.098 2   9918802.981 1
  23395874.769    -6853816.831 2  -5340612.774 1
  21828518.434    -9327370.157 3  -7268055.167 2
 91  4 30 20 49 45.0010000  0  6 19 11 16 18 06 02
  21670722.973     3701606.315 3   2884368.268 2
  23601630.434    -1370437.794 2  -1067861.860 1
  24076467.210    -1904750.237 2  -1484221.187 1
  23378532.376    12785171.329 2   9962447.938 1
  23391364.995    -6877507.903 2  -5359073.277 1
  21825197.029    -9344822.796 3  -7281654.592 2
 91  4 30 20 50  0.0010000  0  6 19 11 16 18 06 02
  21674846.320     3723284.888 3   2901260.652 2
  23605405.719    -1350621.058 2  -1052420.241 1
  24079425.859    -1889199.694 2  -1472103.930 1
  23389201.989    12841232.840 2  10006132.109 1
  23386854.620    -6901195.033 2  -5377530.708 1
  21821888.817    -9362201.955 3  -7295196.742 2
 91  4 30 20 50 15.0010000  0  6 19 11 16 18 06 02
  21678981.655     3745011.243 3   2918190.267 2
  23609198.995    -1330662.680 2  -1036868.276 1
  24082411.190    -1873533.471 2  -1459896.518 1
  23399881.199    12897344.703 2  10049855.535 1
  23382346.941    -6924878.074 2  -5395984.928 1
  21818597.401    -9379507.465 3  -7308681.512 2
 91  4 30 20 50 30.0010000  0  6 19 11 16 18 06 02
  21683129.284     3766785.433 3   2935157.165 2
  23613027.041    -1310562.811 2  -1021206.042 1
  24085412.418    -1857751.812 2  -1447599.201 1
  23410566.700    12953506.465 2  10093617.794 1
  23377845.553    -6948556.980 2  -5414436.003 1
  21815318.269    -9396739.382 3  -7322108.935 2
 91  4 30 20 50 45.0010000  0  6 19 11 16 18 06 02
  21687277.811     3788607.185 3   2952161.113 2
  23616877.274    -1290321.683 2  -1005433.767 1
  24088440.319    -1841855.551 2  -1435212.526 1
  23421261.799    13009717.478 2  10137418.481 1
  23373333.075    -6972232.173 2  -5432884.107 1
  21812053.525    -9413898.239 3  -7335479.436 2
 91  4 30 20 51  0.0010000  0  6 19 11 16 18 06 02
  21691438.327     3810476.505 3   2969202.136 2
  23620758.691    -1269939.476 2   -989551.500 1
  24091480.513    -1825844.509 2  -1422736.431 1
  23431975.779    13065977.521 2  10181257.317 1
  23368830.194    -6995903.494 2  -5451329.215 1
  21808802.881    -9430983.820 3  -7348792.817 2
 91  4 30 20 51 15.0010000  0  6 19 11 16 18 06 02
  21695609.339     3832393.651 3   2986280.423 2
  23624661.083    -1249416.291 2   -973559.404 1
  24094550.993    -1809718.951 2  -1410171.099 1
  23442687.063    13122286.689 2  10225134.449 1
  23364336.310    -7019570.875 2  -5469771.270 1
  21805566.320    -9447995.999 3  -7362049.023 2
 91  4 30 20 51 30.0010000  0  6 19 11 16 18 06 02
  21699790.551     3854357.131 3   3003394.815 2
  23628591.064    -1228753.809 2   -957458.743 1
  24097637.954    -1793480.598 2  -1397517.925 1
  23453412.743    13178642.988 2  10269048.288 1
  23359819.931    -7043236.002 2  -5488211.556 1
  21802339.356    -9464936.589 3  -7375249.440 2
 91  4 30 20 51 45.0010000  0  6 19 11 16 18 06 02
  21703978.045     3876369.350 3   3020547.182 2
  23632554.323    -1207949.818 2   -941247.833 1
  24100753.097    -1777127.217 2  -1384775.028 1
  23464144.113    13235048.380 2  10313000.419 1
  23355317.950    -7066896.485 2  -5506648.219 1
  21799130.976    -9481803.156 3  -7388392.171 2
 91  4 30 20 52  0.0010000  0  6 19 11 16 18 06 02
  21708179.342     3898430.072 3   3037737.334 2
  23636542.466    -1187004.630 2   -924926.922 1
  24103887.130    -1760659.086 2  -1371942.791 1
  23474891.073    13291502.406 2  10356990.422 1
  23350824.658    -7090552.443 2  -5525081.388 1
  21795936.391    -9498595.840 3  -7401477.342 2
 91  4 30 20 52 15.0010000  0  6 19 11 16 18 06 02
  21712378.833     3920539.572 3   3054965.504 2
  23640553.084    -1165918.091 2   -908495.845 1
  24107045.139    -1744076.399 2  -1359021.222 1
  23485642.231    13348004.863 2  10401018.173 1
  23346322.677    -7114203.645 2  -5543510.823 1
  21792753.489    -9515314.396 3  -7414504.742 2
 91  4 30 20 52 30.0010000  0  6 19 11 16 18 06 02
  21716603.208     3942698.358 3   3072232.082 2
  23644587.696    -1144689.708 2   -891954.245 1
  24110215.748    -1727378.746 2  -1346010.137 1
  23496399.383    13404556.218 2  10445084.018 1
  23341822.492    -7137849.553 2  -5561936.116 1
  21789584.381    -9531958.396 3  -7427474.037 2
 91  4 30 20 52 45.0010000  0  6 19 11 16 18 06 02
  21720829.083     3964904.094 3   3089535.238 2
  23648658.876    -1123321.944 2   -875304.053 1
  24113417.828    -1710568.421 2  -1332911.208 1
  23507172.423    13461153.958 2  10489186.011 1
  23337324.105    -7161492.462 2  -5580359.094 1
  21786432.365    -9548530.109 3  -7440387.015 2
 91  4 30 20 53  0.0010000  0  6 19 11 16 18 06 02
  21725061.555     3987157.454 3   3106875.516 2
  23652748.046    -1101814.528 2   -858544.989 1
  24116637.602    -1693645.365 2  -1319724.497 1
  23517947.261    13517798.028 2  10533324.124 1
  23332831.713    -7185131.912 2  -5598779.378 1
  21783293.237    -9565029.169 3  -7453243.380 2
 91  4 30 20 53 15.0010000  0  6 19 11 16 18 06 02
  21729305.719     4009458.973 3   3124253.310 2
  23656871.385    -1080167.222 2   -841676.955 1
  24119878.056    -1676609.718 2  -1306450.020 1
  23528741.887    13574488.697 2  10577498.516 1
  23328326.738    -7208767.592 2  -5617196.690 1
  21780167.301    -9581455.219 3  -7466042.858 2
 91  4 30 20 53 30.0010000  0  6 19 11 16 18 06 02
  21733561.870     4031808.637 3   3141668.625 2
  23661014.520    -1058379.986 2   -824699.883 1
  24123139.501    -1659461.381 2  -1293087.743 1
  23539534.122    13631226.127 2  10621709.350 1
  23323823.256    -7232399.200 2  -5635610.873 1
  21777053.659    -9597808.001 3  -7478785.247 2
 91  4 30 20 53 45.0010000  0  6 19 11 16 18 06 02
  21737818.624     4054206.930 3   3159121.834 2
  23665190.331    -1036452.519 2   -807613.537 1
  24126432.418    -1642199.879 2  -1279637.273 1
  23550340.135    13688010.373 2  10665956.692 1
  23319334.161    -7256026.357 2  -5654021.576 1
  21773958.304    -9614086.970 3  -7491470.109 2
 91  4 30 20 54  0.0010000  0  6 19 11 16 18 06 02
  21742091.860     4076651.541 3   3176611.114 2
  23669384.124    -1014387.552 2   -790420.049 1
  24129742.725    -1624828.285 2  -1266100.986 1
  23561155.448    13744838.166 2  10710237.923 1
  23314833.375    -7279651.752 2  -5672430.905 1
  21770871.038    -9630294.830 3  -7504099.567 2
 91  4 30 20 54 15.0010000  0  6 19 11 16 18 06 02
  21746372.599     4099142.460 3   3194136.492 2
  23673611.797     -992185.093 2   -773119.439 1
  24133063.231    -1607346.602 2  -1252478.957 1
  23571974.060    13801709.643 2  10754553.200 1
  23310340.389    -7303275.152 2  -5690838.669 1
  21767802.967    -9646431.439 3  -7516673.505 2
 91  4 30 20 54 30.0010000  0  6 19 11 16 18 06 02
  21750664.427     4121679.408 3   3211697.738 2
  23677864.058     -969845.623 2   -755712.068 1
  24136408.909    -1589755.438 2  -1238771.600 1
  23582804.066    13858624.249 2  10798902.115 1
  23305848.895    -7326896.991 2  -5709245.236 1
  21764743.882    -9662497.290 3  -7529192.312 2
 91  4 30 20 54 45.0010000  0  6 19 11 16 18 06 02
  21754955.357     4144264.072 3   3229296.155 2
  23682141.193     -947367.802 2   -738196.917 1
  24139776.783    -1572053.277 2  -1224977.750 1
  23593640.067    13915582.726 2  10843285.200 1
  23301352.907    -7350515.730 2  -5727649.370 1
  21761702.484    -9678490.920 3  -7541654.825 2
 91  4 30 20 55  0.0010000  0  6 19 11 16 18 06 02
  21759265.177     4166895.359 3   3246930.908 2
  23686443.213     -924752.860 2   -720574.845 1
  24143163.835    -1554241.470 2  -1211098.510 1
  23604494.652    13972584.147 2  10887701.732 1
  23296856.021    -7374132.388 2  -5746051.885 1
  21758671.582    -9694413.345 3  -7554061.883 2
 91  4 30 20 55 15.0010000  0  6 19 11 16 18 06 02
  21763578.286     4189573.739 3   3264602.358 2
  23690774.619     -902000.379 2   -702845.636 2
  24146576.374    -1536319.859 2  -1197133.610 1
  23615344.142    14029629.065 2  10932152.157 1
  23292363.331    -7397746.445 2  -5764452.393 1
  21755656.568    -9710264.095 3  -7566413.071 2
 91  4 30 20 55 30.0010000  0  6 19 11 16 18 06 02
  21767905.792     4212298.434 3   3282309.893 2
  23695129.102     -879111.314 2   -685010.000 1
  24150017.094    -1518289.540 2  -1183084.092 1
  23626209.520    14086715.799 2  10976635.148 1
  23287864.351    -7421358.764 2  -5782851.499 1
  21752653.255    -9726044.036 3  -7578709.085 2
 91  4 30 20 55 45.0010000  0  6 19 11 16 18 06 02
  21772235.994     4235069.129 3   3300053.276 2
  23699510.573     -856086.369 2   -667068.488 1
  24153460.206    -1500151.470 2  -1168950.546 1
  23637079.391    14143843.692 2  11021150.288 1
  23283374.655    -7444969.784 2  -5801249.603 1
  21749664.617    -9741753.530 3  -7590950.206 2
 91  4 30 20 56  0.0010000  0  6 19 11 16 18 06 02
  21776577.285     4257885.271 3   3317832.079 2
  23703915.418     -832926.186 2   -649021.604 1
  24156928.209    -1481905.957 2  -1154733.306 1
  23647960.361    14201012.073 2  11065696.913 1
  23278890.655    -7468579.949 2  -5819647.079 1
  21746688.884    -9757393.250 3  -7603136.957 2
 91  4 30 20 56 15.0010000  0  6 19 11 16 18 06 02
  21780927.275     4280747.877 3   3335647.078 2
  23708350.853     -809629.984 2   -630868.706 1
  24160419.893    -1463552.293 2  -1140431.804 1
  23658848.520    14258221.623 2  11110275.626 1
  23274392.277    -7492188.318 2  -5838043.153 1
  21743721.832    -9772962.217 3  -7615268.588 2
 91  4 30 20 56 30.0010000  0  6 19 11 16 18 06 02
  21785292.858     4303657.985 2   3353499.095 2
  23712809.663     -786196.752 2   -612609.052 1
  24163935.257    -1445089.834 2  -1126045.541 1
  23669742.979    14315473.287 2  11154887.181 1
  23269898.087    -7515793.809 2  -5856436.956 1
  21740776.375    -9788459.262 3  -7627344.164 2
 91  4 30 20 56 45.0010000  0  6 19 11 16 18 06 02
  21789658.736     4326615.472 3   3371388.014 2
  23717293.662     -762626.914 2   -594242.942 1
  24167469.807    -1426518.731 2  -1111574.588 1
  23680645.832    14372766.289 2  11199530.926 1
  23265410.493    -7539396.717 2  -5874828.733 1
  21737841.109    -9803884.759 3  -7639363.996 2
 91  4 30 20 57  0.0010000  0  6 19 11 16 18 06 02
  21794034.500     4349618.909 3   3389312.745 2
  23721806.131     -738922.066 2   -575771.625 1
  24171029.547    -1407840.816 2  -1097020.393 1
  23691558.273    14430098.988 2  11244205.570 1
  23260918.702    -7562998.340 2  -5893219.553 1
  21734917.229    -9819240.094 3  -7651329.154 2
 91  4 30 20 57 15.0010000  0  6 19 11 16 18 06 02
  21798421.363     4372667.244 3   3407272.463 2
  23726342.298     -715083.382 2   -557196.031 2
  24174603.073    -1389057.430 2  -1082384.108 1
  23702468.926    14487470.089 2  11288910.184 1
  23256423.910    -7586599.785 2  -5911610.179 1
  21732010.145    -9834526.514 3  -7663240.608 2
 91  4 30 20 57 30.0010000  0  6 19 11 16 18 06 02
  21802818.722     4395762.740 2   3425268.940 2
  23730904.841     -691109.004 2   -538514.688 1
  24178197.879    -1370166.662 2  -1067664.005 1
  23713395.458    14544881.402 2  11333646.091 1
  23251938.419    -7610199.109 2  -5929999.195 1
  21729112.353    -9849741.793 3  -7675096.632 2
 91  4 30 20 57 45.0010000  0  6 19 11 16 18 06 02
  21807220.574     4418904.232 2   3443301.243 2
  23735490.758     -667000.268 2   -519728.668 1
  24181815.474    -1351170.252 2  -1052861.667 1
  23724332.190    14602331.641 2  11378412.358 1
  23247445.433    -7633797.334 2  -5948387.369 1
  21726234.044    -9864887.079 3  -7686898.121 2
 91  4 30 20 58  0.0010000  0  6 19 11 16 18 06 02
  21811631.719     4442091.855 3   3461369.508 2
  23740104.866     -642757.110 2   -500837.904 1
  24185443.270    -1332068.004 2  -1037976.868 1
  23735270.414    14659820.232 2  11423208.508 1
  23242954.235    -7657394.244 2  -5966774.481 1
  21723363.527    -9879962.197 3  -7698644.928 2
 91  4 30 20 58 15.0010000  0  6 19 11 16 18 06 02
  21816051.562     4465326.512 2   3479474.402 2
  23744742.959     -618378.889 2   -481841.920 1
  24189103.436    -1312859.303 2  -1023009.146 1
  23746215.234    14717347.973 2  11468035.166 1
  23238463.649    -7680989.081 2  -5985159.994 1
  21720508.305    -9894966.692 4  -7710336.702 2
 91  4 30 20 58 30.0010000  0  6 19 11 16 18 06 02
  21820490.287     4488607.408 2   3497615.352 2
  23749410.125     -593866.704 2   -462741.518 1
  24192777.090    -1293545.225 2  -1007959.226 1
  23757170.254    14774913.603 2  11512891.300 1
  23233977.250    -7704582.724 2  -6003544.593 1
  21717665.970    -9909901.367 3  -7721974.069 2
 91  4 30 20 58 45.0010000  0  6 19 11 16 18 06 02
  21824923.017     4511933.590 2   3515791.583 2
  23754100.682     -569221.777 2   -443537.686 1
  24196474.129    -1274127.187 2   -992828.365 1
  23768132.463    14832515.922 2  11557776.095 1
  23229482.467    -7728176.142 2  -6021928.993 1
  21714836.836    -9924767.122 4  -7733557.743 2
 91  4 30 20 59  0.0010000  0  6 19 11 16 18 06 02
  21829365.642     4535305.417 3   3534003.366 2
  23758811.918     -544444.056 2   -424230.341 1
  24200186.156    -1254604.941 2   -977616.308 1
  23779105.169    14890154.956 2  11602689.473 1
  23224992.770    -7751769.082 2  -6040313.025 1
  21712020.876    -9939563.694 3  -7745087.496 2
 91  4 30 20 59 15.0010000  0  6 19 11 16 18 06 02
  21833825.953     4558723.149 3   3552250.929 2
  23763556.728     -519533.167 2   -404819.289 1
  24203923.670    -1234978.382 2   -962322.887 1
  23790080.274    14947830.771 2  11647631.474 1
  23220506.973    -7775361.025 2  -6058696.287 1
  21709218.424    -9954290.873 3  -7756563.190 2
 91  4 30 20 59 30.0010000  0  6 19 11 16 18 06 02
  21838290.163     4582186.711 3   3570534.202 2
  23768328.229     -494489.697 2   -385304.899 1
  24207677.674    -1215248.165 2   -946948.728 1
  23801057.473    15005542.664 2  11692601.602 1
  23216016.989    -7798952.438 2  -6077079.146 1
  21706429.748    -9968948.991 3  -7767985.057 2
 91  4 30 20 59 45.0010000  0  6 19 11 16 18 06 02
  21842763.073     4605697.303 3   3588854.121 2
  23773109.318     -469312.585 2   -365686.401 1
  24211449.059    -1195412.887 2   -931492.729 1
  23812047.865    15063291.922 2  11737600.890 1
  23211526.097    -7822541.970 2  -6095460.537 1
  21703652.476    -9983536.801 3  -7779352.147 2
 91  4 30 21  0  0.0010000  0  6 19 11 16 18 06 02
  21847249.760     4629253.335 3   3607209.459 2
  23777927.881     -444003.451 2   -345964.980 1
  24215247.736    -1175474.760 2   -915956.579 1
  23823046.048    15121076.389 2  11782627.538 1
  23207039.105    -7846131.037 2  -6113841.531 1
  21700891.389    -9998055.656 3  -7790665.498 2
 91  4 30 21  0 15.0010000  0  6 19 11 16 18 06 02
  21851740.058     4652854.947 3   3625600.294 2
  23782767.429     -418562.499 2   -326140.891 1
  24219057.197    -1155433.978 2   -900340.418 1
  23834049.029    15178895.880 2  11827681.563 1
  23202543.414    -7869719.718 2  -6132222.287 1
  21698140.188   -10012505.722 4  -7801925.256 2
 91  4 30 21  0 30.0010000  0  6 19 11 16 18 06 02
  21856242.040     4676503.894 2   3644028.019 2
  23787636.964     -392988.108 2   -306212.765 1
  24222885.548    -1135289.081 2   -884643.178 1
  23845060.710    15236751.911 2  11872764.012 1
  23198061.517    -7893306.275 2  -6150601.316 1
  21695404.884   -10026885.271 4  -7813130.057 2
 91  4 30 21  0 45.0010000  0  6 19 11 16 18 06 02
  21860747.922     4700197.819 2   3662490.792 2
  23792527.772     -367282.888 2   -286182.739 1
  24226745.074    -1115042.699 2   -868866.819 1
  23856078.385    15294641.886 2  11917872.917 1
  23193572.423    -7916893.044 2  -6168980.577 1
  21692680.373   -10041196.897 3  -7824281.939 2
 91  4 30 21  1  0.0010000  0  6 19 11 16 18 06 02
  21865264.893     4723937.624 3   3680989.324 2
  23797448.271     -341446.211 2   -266050.264 1
  24230620.488    -1094694.242 2   -853010.933 1
  23867095.754    15352566.192 2  11963008.582 1
  23189086.931    -7940479.230 2  -6187359.359 1
  21689970.842   -10055439.637 3  -7835380.146 2
 91  4 30 21  1 15.0010000  0  6 19 11 16 18 06 02
  21869792.361     4747724.799 2   3699524.769 2
  23802383.454     -315476.847 2   -245814.421 1
  24234508.798    -1074242.664 2   -837074.684 1
  23878122.416    15410526.083 2  12008171.952 1
  23184593.937    -7964063.413 2  -6205736.563 1
  21687273.013   -10069612.098 3  -7846423.582 2
 91  4 30 21  1 30.0010000  0  6 19 11 16 18 06 02
  21874327.018     4771557.515 3   3718095.694 2
  23807354.908     -289376.872 2   -225476.795 1
  24238418.091    -1053689.907 2   -821059.644 1
  23889167.671    15468519.347 2  12053361.348 1
  23180108.149    -7987647.373 2  -6224113.600 1
  21684587.171   -10083716.190 3  -7857413.742 2
 91  4 30 21  1 45.0010000  0  6 19 11 16 18 06 02
  21878869.170     4795435.173 2   3736701.634 2
  23812344.361     -263147.149 2   -205038.092 1
  24242349.573    -1033037.016 2   -804966.510 1
  23900207.534    15526544.955 2  12098575.894 1
  23175622.047    -8011231.685 2  -6242490.932 1
  21681917.523   -10097752.671 3  -7868351.226 2
 91  4 30 21  2  0.0010000  0  6 19 11 16 18 06 02
  21883422.124     4819358.892 2   3755343.475 2
  23817355.392     -236786.574 2   -184497.388 1
  24246301.131    -1012282.862 2   -788794.546 1
  23911255.781    15584603.993 2  12143816.571 1
  23171127.263    -8034815.257 2  -6260867.696 2
  21679259.262   -10111720.430 3  -7879235.158 2
 91  4 30 21  2 15.0010000  0  6 19 11 16 18 06 02
  21887985.565     4843331.038 3   3774023.027 2
  23822396.995     -210293.081 2   -163853.106 1
  24250273.682     -991425.391 2   -772542.007 1
  23922313.330    15642698.329 2  12189084.691 1
  23166648.665    -8058395.736 2  -6279242.026 1
  21676614.489   -10125617.039 3  -7890063.644 2
 91  4 30 21  2 30.0010000  0  6 19 11 16 18 06 02
  21892556.196     4867350.199 3   3792739.242 2
  23827471.283     -183668.380 2   -143106.604 1
  24254257.924     -970466.322 2   -756210.260 1
  23933370.870    15700826.315 2  12234379.090 1
  23162162.266    -8081974.597 2  -6297615.117 1
  21673986.809   -10139444.016 3  -7900837.877 2
 91  4 30 21  2 45.0010000  0  6 19 11 16 18 06 02
  21897133.729     4891416.917 2   3811492.504 2
  23832562.358     -156912.142 2   -122257.584 1
  24258263.151     -949405.573 2   -739799.415 1
  23944437.109    15758988.192 2  12279700.269 1
  23157670.475    -8105551.353 2  -6315986.560 1
  21671368.125   -10153200.981 3  -7911557.557 2
 91  4 30 21  3  0.0010000  0  6 19 11 16 18 06 02
  21901731.346     4915529.192 2   3830281.269 2
  23837676.223     -130026.523 2   -101307.752 1
  24262294.160     -928245.266 2   -723310.877 1
  23955512.640    15817181.279 2  12325045.355 1
  23153188.579    -8129127.871 2  -6334357.773 1
  21668762.031   -10166889.757 4  -7922224.104 2
 91  4 30 21  3 15.0010000  0  6 19 11 16 18 06 02
  21906319.672     4939687.140 2   3849105.611 2
  23842817.659     -103011.678 2    -80257.232 1
  24266338.361     -906985.847 2   -706745.201 1
  23966591.478    15875405.631 2  12370414.813 1
  23148696.788    -8152704.193 2  -6352728.900 1
  21666169.723   -10180510.643 3  -7932837.739 2
 91  4 30 21  3 30.0010000  0  6 19 11 16 18 06 02
  21910931.380     4963890.266 3   3867965.167 2
  23847977.985      -75868.296 2    -59106.558 1
  24270398.756     -885628.146 2   -690102.838 1
  23977678.098    15933660.514 2  12415808.067 1
  23144219.089    -8176280.781 2  -6371100.199 1
  21663592.107   -10194064.090 3  -7943398.831 2
 91  4 30 21  3 45.0010000  0  6 19 11 16 18 06 02
  21915541.588     4988139.389 2   3886860.566 2
  23853167.697      -48595.881 2    -37855.360 1
  24274490.021     -864171.323 2   -673383.312 1
  23988769.823    15991946.343 2  12461225.433 1
  23139727.900    -8199856.782 2  -6389471.051 1
  21661023.488   -10207549.392 3  -7953906.822 2
 91  4 30 21  4  0.0010000  0  6 19 11 16 18 06 02
  21920169.482     5012434.069 3   3905791.471 2
  23858384.388      -21195.252 2    -16504.223 1
  24278589.679     -842616.316 2   -656587.287 1
  23999866.635    16050262.183 2  12506666.120 1
  23135240.602    -8223432.854 2  -6407841.966 1
  21658471.952   -10220967.257 3  -7964362.265 2
 91  4 30 21  4 15.0010000  0  6 19 11 16 18 06 02
  21924794.383     5036774.440 3   3924757.957 2
  23863627.454        6333.604 2      4946.803 1
  24282705.837     -820963.335 2   -639714.863 1
  24010967.949    16108607.931 2  12552130.160 1
  23130751.211    -8247008.854 2  -6426212.791 1
  21655931.209   -10234317.475 3  -7974765.002 2
 91  4 30 21  4 30.0010000  0  6 19 11 16 18 06 02
  21929440.268     5061160.010 3   3943759.683 2
  23868885.519       33989.955 2     26497.190 1
  24286846.869     -799213.118 2   -622766.693 1
  24022072.569    16166982.676 2  12597616.803 1
  23126262.125    -8270585.152 2  -6444583.870 1
  21653401.259   -10247600.522 3  -7985115.392 2
 91  4 30 21  4 45.0010000  0  6 19 11 16 18 06 02
  21934084.949     5085590.078 2   3962796.078 2
  23874175.351       61772.903 2     48146.199 1
  24290998.991     -777366.739 2   -605743.617 1
  24033193.366    16225385.761 2  12643125.547 1
  23121783.518    -8294162.447 2  -6462955.741 1
  21650887.206   -10260817.196 3  -7995414.065 2
 91  4 30 21  5  0.0010000  0  6 19 11 16 18 06 02
  21938747.917     5110064.786 2   3981867.243 2
  23879484.973       89682.279 2     69893.785 1
  24295182.297     -755424.188 2   -588645.613 1
  24044310.271    16283816.647 2  12688655.940 1
  23117295.933    -8317740.669 2  -6481328.328 1
  21648384.836   -10273967.499 4  -8005661.028 2
 91  4 30 21  5 15.0010000  0  6 19 11 16 18 06 02
  21943411.793     5134586.438 2   4000974.991 2
  23884817.986      117720.063 2     91741.391 1
  24299371.292     -733383.949 2   -571471.417 1
  24055436.469    16342277.207 2  12734209.419 1
  23112806.838    -8341317.625 2  -6499699.930 1
  21645896.854   -10287049.340 4  -8015854.637 2
 91  4 30 21  5 30.0010000  0  6 19 11 16 18 06 02
  21948082.859     5159152.191 3   4020117.109 2
  23890182.471      145883.357 2    113686.836 1
  24303582.178     -711248.771 2   -554223.273 1
  24066562.964    16400764.635 2  12779783.801 1
  23108320.143    -8364895.965 2  -6518072.591 1
  21643419.376   -10300065.479 4  -8025997.044 2
 91  4 30 21  5 45.0010000  0  6 19 11 16 18 06 02
  21952766.218     5183763.023 2   4039294.354 2
  23895561.649      174172.755 2    135730.503 1
  24307814.047     -689017.893 2   -536900.609 1
  24077699.954    16459279.228 2  12825379.412 1
  23103834.652    -8388475.001 2  -6536445.800 1
  21640955.083   -10313015.143 4  -8036087.659 2
 91  4 30 21  6  0.0010000  0  6 19 11 16 18 06 02
  21957465.466     5208418.155 2   4058506.114 2
  23900968.704      202587.318 2    157871.695 1
  24312061.509     -666692.495 2   -519504.277 1
  24088837.547    16517819.945 2  12870995.346 1
  23099346.752    -8412055.290 2  -6554820.005 1
  21638502.472   -10325898.979 4  -8046126.991 2
 91  4 30 21  6 15.0010000  0  6 19 11 16 18 06 02
  21962162.009     5233119.068 3   4077753.547 2
  23906398.845      231128.184 2    180111.316 1
  24316325.156     -644271.536 2   -502033.443 1
  24099985.924    16576388.185 2  12916632.764 1
  23094857.963    -8435635.482 2  -6573194.102 1
  21636062.766   -10338715.687 3  -8056114.002 2
 91  4 30 21  6 30.0010000  0  6 19 11 16 18 06 02
  21966876.551     5257866.921 3   4097037.565 2
  23911856.863      259796.308 2    202450.115 1
  24320612.787     -621753.966 2   -484487.385 1
  24111139.405    16634984.910 2  12962292.359 1
  23090370.666    -8459214.393 2  -6591567.234 1
  21633635.345   -10351464.289 4  -8066047.945 2
 91  4 30 21  6 45.0010000  0  6 19 11 16 18 06 02
  21971592.281     5282660.289 2   4116357.038 2
  23917335.272      288590.036 2    224886.763 1
  24324918.114     -599141.399 2   -466867.299 1
  24122295.879    16693608.185 2  13007972.599 1
  23085882.173    -8482793.369 2  -6609940.408 1
  21631225.618   -10364146.045 4  -8075929.806 3
 91  4 30 21  7  0.0010000  0  6 19 11 16 18 06 02
  21976318.812     5307497.825 2   4135710.934 2
  23922845.457      317507.646 2    247419.932 1
  24329237.523     -576435.625 2   -449174.515 1
  24133453.854    16752256.116 2  13053672.133 1
  23081396.385    -8506373.852 2  -6628314.748 1
  21628823.081   -10376762.603 4  -8085760.860 2
 91  4 30 21  7 15.0010000  0  6 19 11 16 18 06 02
  21981048.938     5332381.424 2   4155100.731 2
  23928369.131      346550.888 2    270051.030 1
  24333579.111     -553635.568 2   -431408.269 1
  24144614.830    16810930.428 2  13099392.146 1
  23076908.791    -8529953.972 2  -6646688.804 2
  21626434.635   -10389312.180 4  -8095539.726 2
 91  4 30 21  7 30.0010000  0  6 19 11 16 18 06 02
  21985796.749     5357310.627 3   4174526.050 2
  23933917.393      375719.050 2    292779.470 1
  24337933.298     -530741.784 2   -413569.050 1
  24155788.693    16869630.350 2  13145132.199
  23072424.190    -8553534.113 2  -6665062.891 1
  21624060.576   -10401795.127 4  -8105266.665 3
 91  4 30 21  7 45.0010000  0  6 19 11 16 18 06 02
  21990544.866     5382287.787 2   4193988.746 1
  23939490.234      405014.060 2    315606.731 1
  24342306.671     -507752.188 2   -395655.230 1
  24166964.362    16928357.662 2  13190893.544 1
  23067936.596    -8577112.141 2  -6683435.301 1
  21621697.607   -10414209.298 4  -8114940.018 2
 91  4 30 21  8  0.0010000  0  6 19 11 16 18 06 02
  21995311.559     5407313.715 2   4213489.446 2
  23945089.756      434436.632 2    338533.403 1
  24346704.327     -484666.234 2   -377666.158 1
  24178144.219    16987113.119 2  13236676.801 1
  23063446.908    -8600687.077 2  -6701805.338 1
  21619349.035   -10426553.774 4  -8124559.060 2
 91  4 30 21  8 15.0010000  0  6 19 11 16 18 06 02
  22000080.660     5432386.278 2   4233026.476 2
  23950708.769      463984.391 2    361557.629 1
  24351113.674     -461486.270 2   -359603.852 1
  24189327.374    17045894.282 2  13282480.095 1
  23058962.909    -8624261.045 2  -6720174.611 1
  21617012.451   -10438830.892 4  -8134125.617 2
 91  4 30 21  8 30.0010000  0  6 19 11 16 18 06 02
  22004858.451     5457506.864 3   4252600.921 2
  23956360.153      493658.536 2    384680.294 1
  24355537.112     -438210.966 2   -341467.367 1
  24200526.121    17104702.299 2  13328304.377 1
  23054476.519    -8647832.602 2  -6738541.999 1
  21614689.059   -10451039.396 4  -8143638.708 2
 91  4 30 21  8 45.0010000  0  6 19 11 16 18 06 02
  22009647.934     5482674.049 2   4272211.689 2
  23962024.136      523457.128 2    407899.951 1
  24359986.037     -414842.432 2   -323258.138 1
  24211724.868    17163535.091 2  13374147.908 1
  23049992.223    -8671403.359 2  -6756908.766 1
  21612378.266   -10463180.956 4  -8153099.638 2
 91  4 30 21  9  0.0010000  0  6 19 11 16 18 06 02
  22014455.713     5507889.122 2   4291859.767 2
  23967721.091      553381.241 2    431217.420 1
  24364449.942     -391379.753 2   -304975.633 1
  24222923.022    17222393.784 2  13420011.589 1
  23045509.428    -8694972.008 2  -6775273.902 1
  21610080.055   -10475254.317 4  -8162507.421 3
 91  4 30 21  9 15.0010000  0  6 19 11 16 18 06 02
  22019251.190     5533151.426 3   4311544.642 2
  23973439.030      583429.917 2    454631.977 1
  24368931.542     -367824.129 2   -286620.678 1
  24234123.270    17281277.271 2  13465894.630 1
  23041020.036    -8718539.257 2  -6793637.921 1
  21607795.333   -10487260.290 4  -8171862.697 2
 91  4 30 21  9 30.0010000  0  6 19 11 16 18 06 02
  22024073.654     5558460.876 3   4331266.261 2
  23979182.455      613602.880 2    478143.346 1
  24373442.214     -344175.575 2   -268193.333 1
  24245333.107    17340185.280 2  13511796.759 1
  23036541.735    -8742105.038 2  -6812000.839 1
  21605524.108   -10499198.869 4  -8181165.457 2
 91  4 30 21  9 45.0010000  0  6 19 11 16 18 06 02
  22028897.915     5583817.642 3   4351024.733 2
  23984946.568      643899.950 2    501751.428 1
  24377957.388     -320434.281 2   -249693.731 1
  24256549.836    17399117.449 2  13557717.710 1
  23032054.141    -8765669.340 2  -6830362.558 1
  21603266.068   -10511070.012 4  -8190415.670 2
 91  4 30 21 10  0.0010000  0  6 19 11 16 18 06 02
  22033732.061     5609222.623 3   4370820.802 2
  23990736.759      674321.860 2    525456.804 1
  24382495.046     -296599.816 2   -231121.435 1
  24267771.670    17458074.599 2  13603658.159 1
  23027571.346    -8789231.171 2  -6848722.374 1
  21601018.227   -10522872.955 4  -8199612.742 2
 91  4 30 21 10 15.0010000  0  6 19 11 16 18 06 02
  22038576.713     5634672.947 2   4390652.185 2
  23996546.138      704865.428 2    549256.998 1
  24387044.100     -272675.239 2   -212479.051 1
  24278989.603    17517053.431 2  13649615.504 1
  23023088.245    -8812793.405 2  -6867082.497 1
  21598786.571   -10534610.555 4  -8208758.897 2
 91  4 30 21 10 30.0010000  0  6 19 11 16 18 06 02
  22043424.950     5660170.396 3   4410520.304 2
  24002387.589      735532.214 2    573153.187 1
  24391621.929     -248659.408 2   -193765.417 1
  24290216.829    17576055.491 2  13695590.891 1
  23018605.747    -8836354.218 2  -6885441.507 1
  21596565.106   -10546281.094 4  -8217852.795 2
 91  4 30 21 10 45.0010000  0  6 19 11 16 18 06 02
  22048288.789     5685715.088 2   4430425.230 2
  24008243.141      766322.154 2    597145.305 1
  24396197.367     -224552.055 2   -174980.546 1
  24301448.854    17635080.604 2  13741584.290 1
  23014118.755    -8859913.373 2  -6903799.254 1
  21594359.232   -10557884.469 4  -8226894.359 3
 91  4 30 21 11  0.0010000  0  6 19 11 16 18 06 02
  22053164.013     5711308.255 2   4450367.933 2
  24014124.771      797236.007 2    621233.990 1
  24400809.975     -200352.383 2   -156123.738 1
  24312682.379    17694129.363 2  13787596.108 1
  23009636.858    -8883469.835 2  -6922154.865 2
  21592162.355   -10569419.695 4  -8235882.816 2
 91  4 30 21 11 15.0010000  0  6 19 11 16 18 06 02
  22058039.237     5736949.170 2   4470347.831 2
  24020035.178      828272.837 2    645418.530 1
  24405427.677     -176061.864 2   -137196.172 1
  24323925.197    17753200.775 2  13833625.586 1
  23005159.158    -8907024.351 2  -6940508.993 1
  21589979.568   -10580887.643 4  -8244818.846 3
 91  4 30 21 11 30.0010000  0  6 19 11 16 18 06 02
  22062925.551     5762636.090 3   4490363.589 2
  24025962.676      859430.789 2    669697.415 1
  24410067.865     -151682.156 2   -118199.093 1
  24335175.509    17812293.090 2  13879671.334 1
  23000673.667    -8930578.474 2  -6958862.804 2
  21587809.075   -10592289.961 4  -8253703.742 2
 91  4 30 21 11 45.0010000  0  6 19 11 16 18 06 02
  22067818.767     5788371.325 3   4510416.984 2
  24031912.956      890711.868 2    694072.269 1
  24414722.143     -127211.385 2    -99131.057 1
  24346423.719    17871408.319 2  13925734.902 1
  22996190.270    -8954129.949 2  -6977214.542 1
  21585650.265   -10603624.431 4  -8262535.765 2
 91  4 30 21 12  0.0010000  0  6 19 11 16 18 06 02
  22072727.565     5814153.198 3   4530506.729 2
  24037892.614      922114.191 2    718541.609 1
  24419393.506     -102651.643 2    -79993.615 1
  24357682.425    17930544.353 2  13971814.743 1
  22991709.272    -8977680.358 2  -6995565.455 1
  21583509.751   -10614892.586 4  -8271316.125 2
 91  4 30 21 12 15.0010000  0  6 19 11 16 18 06 02
  22077643.562     5839983.197 2   4550633.975 2
  24043891.763      953638.919 2    743106.314 1
  24424090.354      -78001.648 2    -60786.002 1
  24368935.136    17989702.428 2  14017911.725 1
  22987228.876    -9001228.276 2  -7013914.440 1
  21581377.623   -10626093.183 4  -8280043.832 3
 91  4 30 21 12 30.0010000  0  6 19 11 16 18 06 02
  22082568.860     5865860.391 2   4570797.995 2
  24049915.491      985284.662 2    767765.324 1
  24428798.292      -53262.784 2    -41509.049 1
  24380197.141    18048880.922 2  14064025.067 1
  22982746.378    -9024774.840 2  -7032262.355 1
  21579258.390   -10637227.511 4  -8288719.906 2
 91  4 30 21 12 45.0010000  0  6 19 11 16 18 06 02
  22087501.644     5891784.548 2   4590998.611 2
  24055956.608     1017050.816 2    792518.145 1
  24433521.821      -28435.823 2    -22163.444 1
  24391454.651    18108079.270 2  14110153.447 1
  22978270.772    -9048320.284 2  -7050609.399 1
  21577151.450   -10648295.997 4  -8297344.669 2
 91  4 30 21 13  0.0010000  0  6 19 11 16 18 06 02
  22092446.416     5917755.299 2   4611235.538 2
  24062026.806     1048936.609 2    817364.191 1
  24438260.943       -3521.312 2     -2749.626 1
  24402723.548    18167296.635 2  14156296.637 1
  22973786.180    -9071865.012 2  -7068955.901 1
  21575057.101   -10659299.093 3  -8305918.486 2
 91  4 30 21 13 15.0010000  0  6 19 11 16 18 06 02
  22097390.595     5943773.810 2   4631509.675 2
  24068112.892     1080943.285 2    842304.426 1
  24443016.249       21481.675 2     16733.124 1
  24414000.839    18226534.287 2  14202455.629 1
  22969306.979    -9095407.646 2  -7087300.734 1
  21572975.639   -10670235.324 3  -8314440.194 3
 91  4 30 21 13 30.0010000  0  6 19 11 16 18 06 02
  22102354.859     5969837.537 3   4651819.036 1
  24074228.356     1113067.934 2    867336.594 1
  24447792.243       46570.336 2     36282.644 1
  24425281.130    18285789.268 2  14248628.119 1
  22964825.982    -9118950.692 2  -7105645.914 2
  21570909.473   -10681107.632 3  -8322912.096 2
 91  4 30 21 13 45.0010000  0  6 19 11 16 18 06 02
  22107320.624     5995947.701 2   4672164.588 2
  24080361.209     1145311.359 2    892461.320 2
  24452587.729       71745.410 2     55899.427 1
  24436560.820    18345062.457 2  14294814.806 1
  22960345.280    -9142493.037 2  -7123990.570 1
  21568851.394   -10691914.677 4  -8331333.133 2
 91  4 30 21 14  0.0020000  0  6 19 11 16 18 06 02
  22112301.076     6022107.338 2   4692548.699 2
  24086523.145     1177676.855 2    917681.206 1
  24457400.292       97009.691 2     75585.801 1
  24447841.115    18404358.743 2  14341019.513 1
  22955866.083    -9166034.862 2  -7142334.792 1
  21566805.315   -10702656.135 4  -8339703.069 2
 91  4 30 21 14 15.0020000  0  6 19 11 16 18 06 02
  22117284.518     6048311.910 2   4712967.827 2
  24092705.470     1210158.785 2    942991.746 1
  24462219.161      122358.479 2     95337.989 1
  24459131.293    18463668.790 2  14387234.892 1
  22951387.485    -9189574.170 2  -7160677.051 2
  21564776.614   -10713331.790 4  -8348021.744 2
 91  4 30 21 14 30.0020000  0  6 19 11 16 18 06 02
  22122283.857     6074562.516 2   4733422.804 2
  24098906.675     1242758.380 2    968394.056 1
  24467057.810      147792.387 2    115156.518 1
  24470421.776    18522995.709 2  14433463.411 1
  22946906.784    -9213113.083 3  -7179019.012 1
  21562758.409   -10723942.971 4  -8356290.161 2
 91  4 30 21 14 45.0020000  0  6 19 11 16 18 06 02
  22127287.699     6100857.752 2   4753912.575 2
  24105130.068     1275473.994 2    993886.697 1
  24471913.246      173309.524 2    135039.939 1
  24481709.868    18582337.830 2  14479703.812 1
  22942429.983    -9236652.849 2  -7197361.630 2
  21560749.505   -10734491.058 4  -8364509.421 3
 91  4 30 21 15  0.0020000  0  6 19 11 16 18 06 02
  22132299.628     6127198.909 2   4774438.120 2
  24111381.338     1308306.521 2   1019470.460 1
  24476788.470      198911.074 2    154989.128 1
  24493006.048    18641696.061 2  14525956.756 1
  22937946.594    -9260192.232 2  -7215703.964 2
  21558755.286   -10744974.815 4  -8372678.556 3
 91  4 30 21 15 15.0020000  0  6 19 11 16 18 06 02
  22137320.850     6153586.777 2   4795000.069 1
  24117650.896     1341256.403 2   1045145.683 1
  24481666.993      224597.131 2    175004.084 1
  24504304.026    18701070.799 2  14572222.600 1
  22933472.786    -9283730.504 2  -7234045.414 2
  21556772.758   -10755393.672 4  -8380797.119 3
 91  4 30 21 15 30.0020000  0  6 19 11 16 18 06 02
  22142353.466     6180020.725 2   4815597.919 2
  24123945.338     1374322.650 2   1070911.546 1
  24486574.596      250366.939 2    195084.407 1
  24515607.396    18760461.051 2  14618500.503 1
  22928993.289    -9307268.337 2  -7252386.521 2
  21554801.319   -10765748.563 4  -8388865.832 2
 91  4 30 21 15 45.0020000  0  6 19 11 16 18 06 02
  22147386.083     6206502.003 2   4836232.648 2
  24130258.068     1407506.213 2   1096768.831 1
  24491499.588      276221.387 2    215230.593 1
  24526909.876    18819867.486 2  14664791.458 1
  22924512.893    -9330804.496 2  -7270726.350 1
  21552843.379   -10776038.118 4  -8396883.647 3
 91  4 30 21 16  0.0020000  0  6 19 11 16 18 06 02
  22152439.989     6233030.985 2   4856904.556 2
  24136597.182     1440807.315 2   1122717.713 1
  24496430.278      302160.460 2    235442.785 1
  24538222.546    18879290.615 2  14711095.010 1
  22920030.691    -9354338.563 2  -7289064.523 1
  21550897.723   -10786262.075 4  -8404850.337 3
 91  4 30 21 16 15.0020000  0  6 19 11 16 18 06 02
  22157492.691     6259604.984 2   4877611.550 1
  24142951.583     1474223.181 2   1148756.055 1
  24501389.438      328181.361 2    255718.720 1
  24549531.614    18938727.441 2  14757409.210 1
  22915557.790    -9377872.981 2  -7307402.974 2
  21548965.862   -10796423.028 4  -8412767.937 2
 91  4 30 21 16 30.0020000  0  6 19 11 16 18 06 02
  22162563.680     6286223.069 2   4898352.865 2
  24149335.361     1507752.258 2   1174882.611 1
  24506349.209      354282.489 2    276057.138 1
  24560846.082    18998176.426 2  14803733.337 1
  22911077.089    -9401408.818 2  -7325742.537 1
  21547043.293   -10806522.164 4  -8420637.363 3
 91  4 30 21 16 45.0020000  0  6 19 11 16 18 06 02
  22167632.567     6312888.106 2   4919130.772 2
  24155733.536     1541397.363 2   1201099.509 1
  24511332.354      380466.604 2    296460.270 1
  24572157.549    19057640.168 2  14850068.575 1
  22906597.592    -9424943.021 2  -7344080.810 1
  21545133.314   -10816556.576 4  -8428456.367 3
 91  4 30 21 17  0.0020000  0  6 19 11 16 18 06 02
  22172722.141     6339600.207 2   4939945.373 2
  24162162.885     1575158.203 2   1227406.648 1
  24516333.796      406733.224 2    316927.675 1
  24583476.213    19117118.431 2  14896415.473 1
  22902121.088    -9448475.721 2  -7362417.935 2
  21543236.231   -10826526.405 4  -8436225.039 3
 91  4 30 21 17 15.0020000  0  6 19 11 16 18 06 02
  22177807.824     6366357.093 2   4960794.864 1
  24168601.527     1609032.049 2   1253801.843 1
  24521350.219      433079.724 2    337457.328 1
  24594800.271    19176608.785 2  14942771.377 1
  22897642.795    -9472009.161 2  -7380755.620 2
  21541351.433   -10836434.169 4  -8443945.349 2
 91  4 30 21 17 30.0020000  0  6 19 11 16 18 06 02
  22182912.990     6393159.982 2   4981680.217 2
  24175077.041     1643020.004 2   1280285.965 1
  24526380.436      459506.982 2    358049.865 1
  24606123.734    19236111.985 2  14989137.715 1
  22893162.094    -9495542.035 2  -7399092.872 2
  21539477.132   -10846278.657 4  -8451616.350 2
 91  4 30 21 17 45.0020000  0  6 19 11 16 18 06 02
  22188014.858     6420009.942 2   5002602.233 1
  24181566.350     1677122.859 2   1306859.626 1
  24531417.851      486016.014 2    378706.286 1
  24617443.595    19295628.871 2  15035514.287 1
  22888686.793    -9519073.289 2  -7417428.864 1
  21537615.123   -10856058.878 4  -8459237.283 3
 91  4 30 21 18  0.0020000  0  6 19 11 16 18 06 02
  22193139.812     6446906.329 2   5023560.427 2
  24188076.345     1711339.673 2   1333522.052 1
  24536480.151      512605.651 2    399425.284 1
  24628773.654    19355158.287 2  15081900.657 1
  22884205.490    -9542603.451 2  -7435763.997 1
  21535767.800   -10865775.494 4  -8466808.643 2
 91  4 30 21 18 15.0020000  0  6 19 11 16 18 06 02
  22198259.069     6473850.614 2   5044555.934 2
  24194609.419     1745671.511 2   1360274.130 1
  24541553.235      539277.149 2    420208.106 1
  24640101.010    19414701.401 2  15128297.663 1
  22879730.495    -9566130.957 2  -7454097.093 1
  21533930.370   -10875426.980 4  -8474329.260 2
 91  4 30 21 18 30.0020000  0  6 19 11 16 18 06 02
  22203400.505     6500839.214 2   5065585.986 1
  24201164.078     1780114.543 2   1387112.812 1
  24546644.013      566026.431 2    441051.679 1
  24651435.868    19474254.364 2  15174702.789 1
  22875256.094    -9589659.416 2  -7472430.888 2
  21532105.235   -10885017.059 4  -8481802.017 3
 91  4 30 21 18 45.0020000  0  6 19 11 16 18 06 02
  22208544.044     6527873.331 2   5086651.501 2
  24207739.128     1814669.657 2   1414038.863 1
  24551752.477      592854.532 2    461956.585 1
  24662774.016    19533818.174 2  15221116.396 1
  22870778.385    -9613187.621 2  -7490764.504 2
  21530292.393   -10894544.695 4  -8489226.125 3
 91  4 30 21 19  0.0020000  0  6 19 11 16 18 06 02
  22213696.579     6554954.177 2   5107753.427 1
  24214340.563     1849337.674 2   1441052.909 1
  24556868.732      619762.248 2    482923.486 1
  24674112.767    19593393.659 2  15267538.619 1
  22866297.693    -9636714.363 2  -7509096.995 1
  21528490.640   -10904008.846 4  -8496600.766 2
 91  4 30 21 19 15.0020000  0  6 19 11 16 18 06 02
  22218862.000     6582080.973 2   5128891.161 2
  24220954.283     1884117.425 2   1468153.979 1
  24562005.675      646747.996 2    503951.230 1
  24685448.219    19652979.590 2  15313969.450 1
  22861820.892    -9660240.456 2  -7527428.962 2
  21526702.673   -10913410.414 4  -8503926.635 2
 91  4 30 21 19 30.0020000  0  6 19 11 16 18 06 02
  22224032.221     6609254.857 2   5150065.593 2
  24227591.386     1919009.867 2   1495342.916 1
  24567155.810      673812.776 2    525040.629 1
  24696787.571    19712577.030 2  15360409.260 1
  22857343.489    -9683764.689 2  -7545759.475 1
  21524924.008   -10922748.299 4  -8511202.877 2
 91  4 30 21 19 45.0020000  0  6 19 11 16 18 06 02
  22229210.538     6636473.939 2   5171275.230 2
  24234258.469     1954012.864 2   1522617.955 1
  24572319.138      700954.923 2    546190.232 1
  24708136.808    19772183.672 2  15406856.232 1
  22852868.791    -9707288.854 2  -7564089.954 1
  21523159.128   -10932024.554 4  -8518431.112 3
 91  4 30 21 20  0.0020000  0  6 19 11 16 18 06 02
  22234407.439     6663741.210 2   5192522.419 1
  24240937.845     1989129.015 2   1549981.188 1
  24577503.449      728176.588 2    567401.838 1
  24719484.258    19831802.074 2  15453311.890 1
  22848391.990    -9730810.076 3  -7582418.115 1
  21521405.337   -10941236.290 4  -8525609.054 2
 91  4 30 21 20 15.0020000  0  6 19 11 16 18 06 02
  22239595.948     6691054.825 2   5213805.704 1
  24247644.505     2024356.130 2   1577430.844 1
  24582694.051      755475.389 2    588673.655 1
  24730826.908    19891429.927 2  15499774.918 1
  22843914.290    -9754330.177 2  -7600745.421 1
  21519668.046   -10950385.426 4  -8532738.236 3
 91  4 30 21 20 30.0020000  0  6 19 11 16 18 06 02
  22244808.738     6718413.069 2   5235123.787 1
  24254364.051     2059692.204 2   1604965.426 1
  24587906.850      782849.516 2    610004.007 1
  24742178.248    19951065.357 2  15546243.835 1
  22839440.185    -9777850.692 2  -7619073.044 1
  21517936.443   -10959473.748 4  -8539820.023 2
 91  4 30 21 20 45.0020000  0  6 19 11 16 18 06 02
  22250017.331     6745817.797 2   5256478.094 1
  24261110.585     2095138.768 2   1632586.123 1
  24593133.731      810300.437 2    631394.098 1
  24753522.094    20010709.737 2  15592719.755 1
  22834966.682    -9801369.889 2  -7637399.655 1
  21516218.635   -10968499.523 4  -8546853.073 2
 91  4 30 21 21  0.0020000  0  6 19 11 16 18 06 02
  22255244.212     6773270.079 2   5277869.451 1
  24267873.600     2130696.582 2   1660293.467 1
  24598369.302      837828.911 2    652844.795 1
  24764879.132    20070363.993 2  15639203.766 1
  22830490.178    -9824886.603 3  -7655724.327 1
  21514512.815   -10977461.787 4  -8553836.639 2
 91  4 30 21 21 15.0020000  0  6 19 11 16 18 06 02
  22260474.095     6800769.403 2   5299297.476 2
  24274664.797     2166364.936 2   1688086.958 1
  24603621.068      865434.333 2    674355.430 1
  24776232.872    20130027.356 2  15685694.485 1
  22826016.081    -9848401.178 3  -7674047.302 2
  21512817.788   -10986360.946 4  -8560771.019 2
 91  4 30 21 21 30.0020000  0  6 19 11 16 18 06 02
  22265727.055     6828316.091 2   5320762.380 2
  24281475.486     2202143.654 2   1715966.492 1
  24608892.316      893116.131 2    695925.527 1
  24787585.713    20189699.659 2  15732192.568 1
  22821539.280    -9871913.434 3  -7692368.506 1
  21511138.353   -10995197.055 4  -8567656.277 2
 91  4 30 21 21 45.0020000  0  6 19 11 16 18 06 02
  22270968.028     6855907.994 2   5342262.526 2
  24288299.961     2238030.362 2   1743930.153 1
  24614174.061      920871.938 2    717553.329
  24798952.043    20249378.555 2  15778695.416 1
  22817066.973    -9895425.512 3  -7710689.564 1
  21509468.803   -11003972.190 4  -8574494.023 3
 91  4 30 21 22  0.0020000  0  6 19 11 16 18 06 02
  22276227.584     6883547.531 2   5363799.788 1
  24295149.616     2274027.028 2   1771979.499 1
  24619472.296      948703.748 2    739240.286 1
  24810301.586    20309065.923 2  15825205.278 1
  22812594.072    -9918934.906 3  -7729008.533 2
  21507810.352   -11012683.960 4  -8581282.401 3
 91  4 30 21 22 15.0020000  0  6 19 11 16 18 06 02
  22281492.542     6911234.675 2   5385374.148 1
  24302024.461     2310133.444 2   1800114.298 1
  24624774.422      976611.167 2    760986.270
  24821660.718    20368761.607 2  15871721.157 1
  22808122.070    -9942441.563 3  -7747325.356 1
  21506166.594   -11021332.667 4  -8588021.625 3
 91  4 30 21 22 30.0020000  0  6 19 11 16 18 06 02
  22286777.585     6938970.918 2   5406986.770 2
  24308915.788     2346350.873 2   1828335.670 1
  24630106.528     1004595.583 2    782792.276 1
  24833027.650    20428466.745 2  15918244.864 1
  22803648.261    -9965943.979 3  -7765638.877 1
  21504531.823   -11029916.957 4  -8594710.660 3
 91  4 30 21 22 45.0020000  0  6 19 11 16 18 06 02
  22292058.125     6966754.014 2   5428635.915 2
  24315825.402     2382676.732 2   1856641.488 1
  24635447.935     1032654.507 2    804656.600 1
  24844384.994    20488178.932 2  15964774.083 1
  22799177.158    -9989444.299 3  -7783950.773 2
  21502908.150   -11038438.992 4  -8601351.188 3
 91  4 30 21 23  0.0020000  0  6 19 11 16 18 06 02
  22297359.658     6994584.883 2   5450322.258 1
  24322763.198     2419111.533 2   1885032.253 1
  24640798.931     1060787.766 2    826578.580 1
  24855750.425    20547898.373 2  16011308.554 1
  22794703.655   -10012941.613 3  -7802260.314 1
  21501300.959   -11046898.063 4  -8607942.659 3
 91  4 30 21 23 15.0020000  0  6 19 11 16 18 06 02
  22302660.886     7022462.301 2   5472044.897 2
  24329715.688     2455653.932 2   1913506.831 1
  24646164.917     1088994.655 2    848557.899 1
  24867117.349    20607623.905 2  16057848.097 1
  22790227.753   -10036437.040 3  -7820568.398 2
  21499702.170   -11055295.443 4  -8614486.051 3
 91  4 30 21 23 30.0020000  0  6 19 11 16 18 06 02
  22307984.302     7050388.067 2   5493805.192 2
  24336681.963     2492305.213 2   1942066.197 1
  24651542.594     1117276.211 2    870595.334 1
  24878482.484    20667356.832 2  16104393.238 1
  22785761.745   -10059928.789 3  -7838873.618 2
  21498117.760   -11063629.461 4  -8620980.067 3
 91  4 30 21 23 45.0020000  0  6 19 11 16 18 06 02
  22313302.020     7078360.763 2   5515602.070 1
  24343682.424     2529063.513 2   1970709.033 1
  24656946.054     1145630.722 2    892689.835 1
  24889854.215    20727095.495 2  16150942.863 1
  22781293.337   -10083418.324 3  -7857177.102 1
  21496542.956   -11071901.665 4  -8627425.924 3
 91  4 30 21 24  0.0020000  0  6 19 11 16 18 06 02
  22318633.533     7106381.278 2   5537436.199 1
  24350699.365     2565929.518 2   1999435.776 1
  24662350.412     1174058.627 2    914841.266 1
  24901223.538    20786840.613 2  16197497.679 1
  22776824.633   -10106904.607 3  -7875478.046 1
  21494979.539   -11080111.111 4  -8633822.877 2
 91  4 30 21 24 15.0020000  0  6 19 11 16 18 06 02
  22323976.135     7134452.402 2   5559309.759 1
  24357734.595     2602905.605 2   2028248.342 1
  24667773.059     1202562.317 2    937051.735 1
  24912589.571    20846594.248 2  16244058.738 1
  22772357.124   -10130384.812 3  -7893774.272 1
  21493429.008   -11088255.251 4  -8640168.938 2
 91  4 30 21 24 30.0020000  0  6 19 11 16 18 06 02
  22329324.130     7162571.191 2   5581220.481 1
  24364793.505     2639988.544 2   2057144.125 1
  24673209.796     1231138.629 2    959318.836 1
  24923963.702    20906353.137 2  16290623.926 1
  22767890.514   -10153862.024 3  -7912068.156 2
  21491891.670   -11096337.083 4  -8646466.448 3
 91  4 30 21 24 45.0020000  0  6 19 11 16 18 06 02
  22334681.722     7190740.338 2   5603170.419 1
  24371874.603     2677180.882 2   2086125.115 1
  24678669.010     1259789.890 2    981644.405 1
  24935335.424    20966120.074 2  16337195.754 1
  22763420.911   -10177333.135 3  -7930357.287 2
  21490366.931   -11104353.997 4  -8652713.381 2
 91  4 30 21 25  0.0020000  0  6 19 11 16 18 06 02
  22340052.506     7218959.965 2   5625159.699 1
  24378970.690     2714482.428 2   2115191.271 1
  24684137.829     1288515.658 2   1004028.091 1
  24946712.547    21025894.652 2  16383773.163
  22758958.803   -10200798.221 3  -7948641.737 2
  21488852.680   -11112305.807 4  -8658909.579 3
 91  4 30 21 25 15.0020000  0  6 19 11 16 18 06 02
  22345435.881     7247235.517 2   5647192.573 1
  24386086.863     2751898.221 2   2144346.369 1
  24689616.535     1317321.375 2   1026473.861
  24958082.777    21085681.924 2  16430360.859 1
  22754499.985   -10224251.706 3  -7966917.132 2
  21487353.418   -11120187.345 4  -8665051.019 3
 91  4 30 21 25 30.0020000  0  6 19 11 16 18 06 02
  22350831.244     7275568.736 2   5669270.367 1
  24393229.115     2789429.627 2   2173591.622 1
  24695114.130     1346208.276 2   1048983.083
  24969468.599    21145483.281 2  16476959.547 1
  22750032.179   -10247691.804 3  -7985182.092 2
  21485866.747   -11127996.940 4  -8671136.395 3
 91  4 30 21 25 45.0020000  0  6 19 11 16 18 06 02
  22356231.100     7303963.288 2   5691395.964 1
  24400394.462     2827080.058 2   2202929.571 1
  24700611.725     1375179.539 2   1071557.966 1
  24980857.414    21205302.293 2  16523572.004 1
  22745573.370   -10271114.772 3  -8003433.724 1
  21484395.066   -11135730.883 4  -8677162.821 2
 91  4 30 21 26  0.0020000  0  6 19 11 16 18 06 02
  22361646.557     7332418.854 2   5713569.101 1
  24407583.184     2864848.680 2   2232359.686 1
  24706153.085     1404234.379 2   1094198.054 1
  24992238.438    21265138.155 2  16570197.556 1
  22741122.648   -10294521.030 3  -8021672.323 2
  21482938.068   -11143389.807 4  -8683130.794 3
 91  4 30 21 26 15.0020000  0  6 19 11 16 18 06 02
  22367071.001     7360937.799 2   5735791.609 2
  24414789.897     2902737.824 2   2261883.693 1
  24711698.948     1433375.039 2   1116904.931 1
  25003632.348    21324993.125 2  16616837.570 1
  22736669.527   -10317907.988 3  -8039895.866 1
  21481494.874   -11150971.390 4  -8689038.505 2
 91  4 30 21 26 30.0020000  0  6 19 11 16 18 06 02
  22372513.427     7389521.280 2   5758064.423 1
  24422026.581     2940748.157 2   2291502.144 1
  24717253.797     1462602.199 2   1139679.253 1
  25015026.555    21384867.816 2  16663493.417 1
  22732225.707   -10341274.461 3  -8058103.473 2
  21480068.459   -11158474.581 4  -8694885.132 3
 91  4 30 21 26 45.0020000  0  6 19 11 16 18 06 02
  22377965.756     7418171.586 2   5780389.295 2
  24429283.961     2978881.662 2   2321216.568 1
  24722838.032     1491917.661 2   1162522.291 1
  25026424.365    21444764.283 2  16710166.203 1
  22727780.683   -10364618.108 3  -8076293.279 2
  21478655.532   -11165897.095 4  -8700668.888 3
 91  4 30 21 27  0.0020000  0  6 19 11 16 18 06 02
  22383429.472     7446891.676 2   5802768.562 1
  24436559.619     3017140.897 2   2351028.866 1
  24728427.363     1521324.123 2   1185436.257 1
  25037821.879    21504685.177 2  16756857.602 1
  22723345.256   -10387936.169 3  -8094463.146 2
  21477259.401   -11173236.257 4  -8706387.706 3
 91  4 30 21 27 15.0020000  0  6 19 11 16 18 06 02
  22388905.481     7475682.891 2   5825203.228 1
  24443863.164     3055526.766 2   2380939.928 1
  24734050.870     1550822.553 2   1208421.996 1
  25049231.974    21564631.292 2  16803569.063 1
  22718911.627   -10411227.166 3  -8112611.947 2
  21475877.361   -11180490.804 4  -8712040.574 2
 91  4 30 21 27 30.0020000  0  6 19 11 16 18 06 02
  22394396.786     7504547.384 2   5847695.011 2
  24451196.984     3094041.232 2   2410951.182 1
  24739683.373     1580414.898 2   1231480.857 1
  25060642.078    21624604.748 2  16850301.401 1
  22714488.485   -10434488.802 3  -8130737.843 2
  21474513.601   -11187658.662 4  -8717625.898 3
 91  4 30 21 27 45.0020000  0  6 19 11 16 18 06 02
  22399906.666     7533486.320 2   5870244.794 2
  24458555.392     3132685.164 2   2441063.326 1
  24745331.162     1610101.863 2   1254613.398 1
  25072065.968    21684606.351 2  16897056.085 1
  22710064.454   -10457719.638 3  -8148839.760 1
  21473166.034   -11194738.585 4  -8723142.700 3
 91  4 30 21 28  0.0020000  0  6 19 11 16 18 06 02
  22405431.544     7562502.761 2   5892854.981 1
  24465932.088     3171461.299 2   2471278.499 1
  24750989.142     1639886.227 2   1277821.857 1
  25083492.257    21744638.765 2  16943834.785 1
  22705650.901   -10480916.804 3  -8166915.427 2
  21471834.957   -11201727.685 4  -8728588.733 3
 91  4 30 21 28 15.0020000  0  6 19 11 16 18 06 02
  22410969.912     7591598.289 2   5915526.782 1
  24473332.463     3210370.891 2   2501597.687 1
  24756689.701     1669769.089 2   1301107.096 1
  25094913.756    21804703.314 2  16990638.536 1
  22701240.062   -10504078.572 3  -8184963.511 2
  21470521.863   -11208624.489 4  -8733962.856 2
 91  4 30 21 28 30.0020000  0  6 19 11 16 18 06 02
  22416519.962     7620774.426 2   5938261.403 2
  24480763.420     3249415.192 2   2532021.770 1
  24762386.054     1699751.650 2   1324470.053 1
  25106357.435    21864801.198 2  17037467.815 1
  22696842.406   -10527203.384 3  -8202982.810 1
  21469229.160   -11215427.496 4  -8739263.875 3
 91  4 30 21 28 45.0020000  0  6 19 11 16 18 06 02
  22422085.910     7650032.982 2   5961060.233 2
  24488218.057     3288595.595 2   2562551.944 1
  24768113.887     1729835.176 2   1347911.686 1
  25117799.307    21924933.993 2  17084324.734 1
  22692452.246   -10550289.322 3  -8220971.809 2
  21467952.641   -11222135.004 4  -8744490.481 3
 91  4 30 21 29  0.0020000  0  6 19 11 16 18 06 02
  22427669.849     7679373.851 2   5983923.215 2
  24495701.182     3327911.586 2   2593187.745 1
  24773859.712     1760019.266 2   1371431.589 1
  25129245.384    21985101.097 2  17131207.944 1
  22688064.476   -10573336.523 3  -8238930.629 1
  21466695.318   -11228747.391 4  -8749642.972 2
 91  4 30 21 29 15.0020000  0  6 19 11 16 18 06 02
  22433264.572     7708797.792 2   6006850.936 2
  24503208.885     3367363.595 2   2623929.613 1
  24779622.027     1790304.495 2   1395030.349 1
  25140706.452    22045302.931 2  17178118.703 1
  22683686.312   -10596344.167 3  -8256858.610 2
  21465454.477   -11235263.981 4  -8754720.816 3
 91  4 30 21 29 30.0020000  0  6 19 11 16 18 06 02
  22438887.180     7738305.826 2   6029844.163 2
  24510742.362     3406952.359 2   2654777.922 1
  24785400.221     1820691.535 2   1418708.431 1
  25152164.518    22105540.387 2  17225056.765 1
  22679315.041   -10619311.170 3  -8274754.944 2
  21464232.822   -11241683.903 4  -8759723.329 2
 91  4 30 21 29 45.0020000  0  6 19 11 16 18 06 02
  22444510.391     7767899.076 2   6052903.807 1
  24518306.430     3446678.621 2   2685733.441 1
  24791207.200     1851180.962 2   1442466.354 1
  25163629.782    22165814.082 2  17272023.058 1
  22674950.061   -10642236.363 3  -8292618.686 1
  21463030.354   -11248005.956 4  -8764649.583 2
 91  4 30 21 30  0.0020000  0  6 19 11 16 18 06 02
  22450163.877     7797575.562 2   6076028.315 2
  24525885.181     3486540.100 2   2716794.343 1
  24797027.973     1881770.308 2   1466302.211 1
  25175114.233    22226121.877 2  17319016.299 1
  22670597.375   -10665121.638 3  -8310451.329 1
  21461847.072   -11254232.230 4  -8769501.204 3
 91  4 30 21 30 15.0020000  0  6 19 11 16 18 06 02
  22455826.054     7827336.492 2   6099218.605 1
  24533496.312     3526537.706 2   2747961.320 1
  24802867.331     1912460.605 2   1490216.534 1
  25186595.682    22286464.498 2  17366036.317 1
  22666249.182   -10687965.710 3  -8328251.858 2
  21460679.382   -11260361.884 4  -8774277.542 2
 91  4 30 21 30 30.0020000  0  6 19 11 16 18 06 02
  22461506.519     7857180.567 2   6122473.668 1
  24541132.327     3566669.828 2   2779233.091 1
  24808724.976     1943250.289 2   1514208.356 1
  25198086.729    22346840.410 2  17413082.278 1
  22661911.485   -10710769.648 3  -8346021.122 2
  21459530.573   -11266395.984 4  -8778979.414 3
 91  4 30 21 30 45.0020000  0  6 19 11 16 18 06 02
  22467197.183     7887108.590 2   6145794.189 1
  24548795.319     3606936.926 2   2810610.027 1
  24814604.504     1974139.776 2   1538277.896 1
  25209574.478    22407250.294 2  17460154.712 1
  22657582.182   -10733532.660 3  -8363758.493 2
  21458401.256   -11272333.688 4  -8783606.172 3
 91  4 30 21 31  0.0020000  0  6 19 11 16 18 06 02
  22472913.621     7917119.248 2   6169179.079 1
  24556483.205     3647337.266 2   2842090.793 1
  24820498.726     2005127.269 2   1562423.976 1
  25221076.614    22467692.439 2  17507252.630 1
  22653257.678   -10756256.092 3  -8381465.018 2
  21457287.531   -11278176.637 4  -8788159.102 3
 91  4 30 21 31 15.0020000  0  6 19 11 16 18 06 02
  22478637.860     7947211.539 2   6192627.583 1
  24564200.162     3687869.428 2   2873674.258 1
  24826420.230     2036211.111 2   1586644.982 1
  25232592.842    22528165.555 2  17554374.405 1
  22648938.863   -10778940.941 3  -8399141.479 2
  21456194.187   -11283926.043 4  -8792639.133 3
 91  4 30 21 31 30.0020000  0  6 19 11 16 18 06 02
  22484377.987     7977387.403 2   6216141.222 1
  24571935.407     3728535.095 2   2905361.754 1
  24832354.918     2067392.936 2   1610942.375 1
  25244097.971    22588671.290 2  17601521.529 1
  22644632.350   -10801585.163 3  -8416786.303 2
  21455118.826   -11289579.936 4  -8797044.740 3
 91  4 30 21 31 45.0020000  0  6 19 11 16 18 06 02
  22490134.901     8007646.343 2   6239719.566 1
  24579697.927     3769333.664 2   2937152.824 1
  24838302.799     2098672.198 2   1635315.745 1
  25255625.297    22649209.056 2  17648693.976 1
  22640327.032   -10824188.910 3  -8434399.553 2
  21454062.059   -11295138.762 4  -8801376.271 3
 91  4 30 21 32  0.0020000  0  6 19 11 16 18 06 02
  22495914.300     8037990.607 2   6263364.416 1
  24587490.435     3810266.996 2   2969048.934 1
  24844273.469     2130050.841 2   1659766.524 1
  25267146.917    22709780.597 2  17695892.436 1
  22636033.100   -10846749.874 3  -8451979.500 1
  21453022.078   -11300600.325 4  -8805632.021 3
 91  4 30 21 32 15.0020000  0  6 19 11 16 18 06 02
  22501700.897     8068423.967 2   6287078.678 1
  24595302.130     3851338.266 2   3001052.489 1
  24850257.926     2161532.072 2   1684297.214 1
  25278682.933    22770388.984 2  17743119.565 1
  22631752.667   -10869264.512 3  -8469523.325 2
  21452002.488   -11305961.382 4  -8809809.441 3
 91  4 30 21 32 30.0020000  0  6 19 11 16 18 06 02
  22507514.768     8098944.658 2   6310861.018 2
  24603150.697     3892545.418 2   3033161.960 1
  24856276.261     2193113.972 2   1708906.396 1
  25290220.144    22831032.184 2  17790374.090 1
  22627475.522   -10891734.461 3  -8487032.335 2
  21451000.278   -11311223.655 4  -8813909.891 3
 91  4 30 21 32 45.0020000  0  6 19 11 16 18 06 02
  22513330.446     8129552.235 2   6334711.049 1
  24611021.147     3933887.590 2   3065376.625 1
  24862304.788     2224795.409 2   1733593.014 1
  25301768.149    22891709.760 2  17837655.165 1
  22623208.281   -10914160.120 3  -8504506.832 2
  21450017.561   -11316387.818 4  -8817933.887 3
 91  4 30 21 33  0.0020000  0  6 19 11 16 18 06 02
  22519180.893     8160245.250 2   6358627.627 1
  24618903.288     3975363.148 2   3097695.243 1
  24868351.297     2256574.426 2   1758355.849 1
  25313318.553    22952419.589 1  17884961.706 1
  22618947.627   -10936542.809 3  -8521947.834 2
  21449054.029   -11321455.107 4  -8821882.417 3
 91  4 30 21 33 15.0020000  0  6 19 11 16 18 06 02
  22525031.646     8191022.911 2   6382610.172 1
  24626826.201     4016970.916 2   3130116.792 1
  24874415.204     2288449.984 2   1783193.814 1
  25324877.053    23013160.997 2  17932292.841 1
  22614696.571   -10958883.112 3  -8539355.812 2
  21448106.081   -11326426.427 4  -8825756.148 3
 91  4 30 21 33 30.0020000  0  6 19 11 16 18 06 02
  22530903.679     8221882.756 2   6406656.774 1
  24634765.902     4058708.049 2   3162639.218 1
  24880496.195     2320419.394 2   1808104.934 1
  25336443.642    23073931.208 2  17979646.017 1
  22610454.205   -10981183.630 3  -8556732.801 2
  21447178.829   -11331304.382 4  -8829557.136 3
 91  4 30 21 33 45.0020000  0  6 19 11 16 18 06 02
  22536791.601     8252823.122 2   6430766.110 1
  24642729.292     4100572.765 2   3195261.064 1
  24886599.069     2352480.763 2   1833087.679 1
  25348005.144    23134728.171 2  18027020.046 1
  22606217.842   -11003445.713 3  -8574079.843 2
  21446267.160   -11336090.674 4  -8833286.687 3
 91  4 30 21 34  0.0020000  0  6 19 11 16 18 06 02
  22542697.819     8283842.934 2   6454937.373 1
  24650723.559     4142563.482 2   3227981.100 1
  24892717.830     2384632.517 2   1858140.891 1
  25359589.724    23195550.373 2  18074414.191 1
  22601984.768   -11025670.475 3  -8591397.798 2
  21445375.576   -11340786.590 4  -8836945.800 3
 91  4 30 21 34 15.0020000  0  6 19 11 16 18 06 02
  22548611.820     8314940.251 2   6479169.007 1
  24658738.811     4184677.853 2   3260797.468 1
  24898854.880     2416872.435 2   1883262.792 1
  25371163.808    23256395.615 2  18121825.910 1
  22597765.192   -11047859.767 3  -8608688.106 2
  21444495.082   -11345394.101 4  -8840536.072 3
 91  4 30 21 34 30.0020000  0  6 19 11 16 18 06 02
  22554548.611     8346113.276 2   6503459.613 1
  24666769.348     4226913.829 2   3293708.577 1
  24905005.724     2449198.145 2   1908451.543 1
  25382753.484    23317261.974 2  18169254.420 1
  22593546.811   -11070015.309 3  -8625952.120 2
  21443636.775   -11349915.263 4  -8844059.031 3
 91  4 30 21 34 45.0020000  0  6 19 11 16 18 06 02
  22560487.801     8377360.177 2   6527807.835 1
  24674841.863     4269269.155 2   3326712.776 1
  24911176.950     2481607.523 2   1933705.481 1
  25394340.167    23378147.065 2  18216697.582 1
  22589338.028   -11092138.907 3  -8643191.248 2
  21442791.364   -11354351.844 4  -8847516.082 3
 91  4 30 21 35  0.0020000  0  6 19 11 16 18 06 02
  22566455.767     8408680.106 2   6552212.930 1
  24682918.871     4311742.543 2   3359808.896 1
  24917355.077     2514099.271 2   1959023.562 1
  25405926.841    23439049.664 2  18264153.967 1
  22585133.738   -11114231.345 3  -8660406.078 2
  21441965.437   -11358704.962 4  -8850908.107 3
 91  4 30 21 35 15.0020000  0  6 19 11 16 18 06 02
  22572426.437     8440074.004 2   6576675.679 1
  24691024.061     4354334.698 2   3392997.552 1
  24923558.080     2546674.047 2   1984406.310 1
  25417524.011    23499970.669 2  18311625.104 1
  22580937.842   -11136291.512 3  -8677595.779 2
  21441152.100   -11362973.597 4  -8854234.290 3
 91  4 30 21 35 30.0020000  0  6 19 11 16 18 06 02
  22578413.886     8471539.305 2   6601194.074 1
  24699146.936     4397042.646 2   3426276.504 1
  24929772.181     2579328.682 2   2009851.438 1
  25429115.789    23560907.193 2  18359108.332 1
  22576744.345   -11158321.964 3  -8694762.320 2
  21440356.152   -11367160.601 4  -8857496.870 3
 91  4 30 21 35 45.0020000  0  6 19 11 16 18 06 02
  22584414.536     8503077.873 2   6625769.527 1
  24707298.893     4439867.973 2   3459646.802 1
  24936004.561     2612064.819 2   2035359.955 1
  25440722.252    23621860.603 2  18406604.261 1
  22572558.047   -11180320.647 3  -8711904.101 2
  21439575.490   -11371263.966 4  -8860694.273 3
 91  4 30 21 36  0.0020000  0  6 19 11 16 18 06 02
  22590435.568     8534686.927 2   6650399.927 1
  24715473.334     4482807.645 2   3493106.294 1
  24942245.047     2644879.252 2   2060929.594 1
  25452319.126    23682827.953 2  18454111.105 1
  22568376.242   -11202290.295 3  -8729023.260 2
  21438810.123   -11375286.530 4  -8863828.718 3
 91  4 30 21 36 15.0020000  0  6 19 11 16 18 06 02
  22596455.396     8566366.164 2   6675085.010 1
  24723664.562     4525860.980 2   3526654.302 1
  24948511.001     2677771.542 2   2086559.845 1
  25463919.594    23743808.458 2  18501628.521 1
  22564201.931   -11224231.117 3  -8746119.957 2
  21438058.839   -11379228.902 4  -8866900.661 3
 91  4 30 21 36 30.0020000  0  6 19 11 16 18 06 02
  22602499.218     8598116.526 2   6699825.511 1
  24731876.181     4569028.459 2   3560291.330 1
  24954776.668     2710742.135 2   2112251.079 1
  25475527.558    23804802.932 2  18549156.466 1
  22560033.310   -11246142.052 3  -8763193.370 2
  21437326.148   -11383090.058 4  -8869909.347 3
 91  4 30 21 36 45.0020000  0  6 19 11 16 18 06 02
  22608559.521     8629936.957 2   6724620.633 2
  24740112.675     4612308.793 2   3594016.175 1
  24961065.718     2743789.462 2   2138002.092 1
  25487139.718    23865809.994 2  18596694.684 1
  22555870.098   -11268024.123 3  -8780244.274 2
  21436603.945   -11386871.300 4  -8872855.750 3
 91  4 30 21 37  0.0020000  0  4 19 11 16 06
  22614623.419     8661825.945 2   6749469.156 1
  24748372.857     4655700.062 2   3627827.550 1
  24967367.951     2776911.896 2   2163811.639 1
  22551709.879   -11289878.597 3  -8797273.688 2
 91  4 30 21 37 15.0020000  0  5 19 11 16 06 02
  22620705.309     8693784.160 2   6774371.599 1
  24756647.428     4699202.278 2   3661725.379 1
  24973694.170     2810109.495 2   2189679.764 1
  22547553.857   -11311705.058 3  -8814281.275 2
  21435211.112      249958.69114    194803.935 3
 91  4 30 21 37 30.0020000  0  5 19 11 16 06 02
  22626798.297     8725811.184 2   6799327.712 1
  24764947.188     4742814.925 2   3695709.272 1
  24980023.093     2843381.513 2   2215605.962 1
  22543408.025   -11333503.753 3  -8831267.220 2
  21434534.480      246412.964 4    192041.057 3
 91  4 30 21 37 45.0020000  0  5 19 11 16 06 02
  22632910.462     8757906.678 2   6824337.149 1
  24773263.124     4786537.368 2   3729778.668 1
  24986367.294     2876727.308 2   2241589.468 1
  22539267.289   -11355274.760 3  -8848231.597 2
  21433876.135      242945.279 4    189338.984 3
 91  4 30 21 38  0.0020000  0  5 19 11 16 06 02
  22639030.123     8790069.128 2   6849398.749 2
  24781609.947     4830367.878 2   3763932.297 1
  24992728.291     2910145.032 2   2267629.177 1
  22535126.257   -11377019.363 3  -8865175.389 2
  21433230.085      239554.014 4    186696.461 3
 91  4 30 21 38 15.0020000  0  5 19 11 16 06 02
  22645161.178     8822298.764 2   6874512.745 2
  24789970.861     4874306.278 2   3798170.005 1
  24999088.093     2943634.422 2   2293724.614 1
  22530997.212   -11398737.488 3  -8882098.555 2
  21432600.219      236239.256 4    184113.547 3
 91  4 30 21 38 30.0020000  0  5 19 11 16 06 02
  22651308.122     8854597.158 2   6899680.294 2
  24798353.361     4918353.681 2   3832492.615 1
  25005484.462     2977196.920 2   2319877.130 1
  22526868.770   -11420427.415 3  -8898999.750 2
  21431981.749      233002.445 4    181591.381 3
 91  4 30 21 38 45.0020000  0  5 19 11 16 06 02
  22657467.962     8886961.713 2   6924899.398 1
  24806751.741     4962507.219 2   3866897.985 1
  25011885.036     3010829.308 2   2346084.081 1
  22522745.126   -11442091.507 3  -8915880.815 2
  21431381.260      229840.884 4    179127.851 3
 91  4 30 21 39  0.0020000  0  5 19 11 16 06 02
  22663636.195     8919391.628 2   6950169.417 1
  24815172.614     5006765.801 2   3901385.173 1
  25018297.293     3044530.430 2   2372344.643
  22518628.978   -11463730.502 3  -8932742.333 2
  21430794.567      226753.900 4    176722.426 3
 91  4 30 21 39 15.0020000  0  5 19 11 16 06 02
  22669820.910     8951887.328 2   6975490.705 1
  24823620.465     5051129.432 2   3935954.225 1
  25024711.949     3078300.191 1   2398658.607 1
  22514513.422   -11485344.009 3  -8949583.968 2
  21430222.269      223741.673 4    174375.246 3
 91  4 30 21 39 30.0020000  0  5 19 11 16 06 02
  22676020.920     8984448.264 2   7000862.831 1
  24832081.508     5095597.128 2   3970604.358 1
  25031168.879     3112137.945 1   2425025.451 1
  22510407.168   -11506932.535 3  -8966406.146 2
  21429661.053      220803.388 4    172085.702 3
 91  4 30 21 39 45.0020000  0  5 19 11 16 06 02
  22682229.018     9017073.199 2   7026284.829 1
  24840561.136     5140167.282 2   4005334.343 1
  25037615.024     3146041.873 2   2451443.956 1
  22506299.710   -11528497.182 3  -8983209.725 2
  21429116.929      217937.780 4    169852.782 3
 91  4 30 21 40  0.0020000  0  5 19 11 16 06 02
  22688446.714     9049761.598 2   7051756.266 1
  24849065.352     5184839.064 2   4040143.455 1
  25044071.352     3180011.086 2   2477913.431
  22502202.451   -11550038.265 3  -8999994.938 2
  21428585.099      215144.195 4    167675.976 3
 91  4 30 21 40 15.0020000  0  4 19 11 16 06
  22694677.602     9082513.490 2   7077277.171 1
  24857581.555     5229612.325 2   4075031.728 1
  25050556.463     3214045.382 2   2504433.905 1
  22498108.481   -11571555.558 3  -9016761.611 2
 91  4 30 21 40 30.0020000  0  5 19 11 16 06 02
  22700924.675     9115328.686 2   7102847.411 2
  24866116.945     5274486.418 2   4109998.528 1
  25057048.764     3248144.335 2   2531004.471 1
  22494019.014   -11593049.171 3  -9033509.826 2
  21427564.008      249101.43314    194136.007 3
 91  4 30 21 40 45.0020000  0  5 19 11 16 06 02
  22707180.448     9148205.340 2   7128465.556 1
  24874683.816     5319459.072 2   4145042.159 1
  25063540.176     3282305.408 2   2557623.316 1
  22489928.945   -11614520.977 3  -9050241.058 2
  21427071.144      246521.637 4    192125.792 3
 91  4 30 21 41  0.0020000  0  5 19 11 16 06 02
  22713447.911     9181144.023 2   7154132.036 2
  24883262.072     5364530.534 2   4180162.744 1
  25070061.558     3316528.942 2   2584290.927 1
  22485848.770   -11635970.177 3  -9066954.674 2
  21426592.380      244012.249 4    190170.448 3
 91  4 30 21 41 15.0020000  0  5 19 11 16 06 02
  22719728.559     9214143.739 2   7179846.054 1
  24891856.522     5409699.498 2   4215359.339 1
  25076585.042     3350813.273 2   2611005.807 1
  22481773.088   -11657397.829 3  -9083651.504 2
  21426129.199      241572.091 4    188269.050 3
 91  4 30 21 41 30.0020000  0  5 19 11 16 06 02
  22726022.399     9247206.438 2   7205609.160 1
  24900464.165     5454967.283 2   4250632.960 1
  25083122.618     3385159.989 2   2637769.410 1
  22477699.213   -11678801.982 3  -9100330.005 2
  21425679.506      239202.930 4    186422.952 3
 91  4 30 21 41 45.0020000  0  5 19 11 16 06 02
  22732324.937     9280332.825 2   7231421.882 1
  24909097.887     5500334.507 2   4285983.964 1
  25089663.483     3419569.484 2   2664581.845 1
  22473632.527   -11700181.564 3  -9116989.384 2
  21425243.914      236905.605 4    184632.842 3
 91  4 30 21 42  0.0020000  0  5 19 11 16 06 02
  22738639.770     9313522.927 2   7257284.276 1
  24917752.000     5545800.922 2   4321412.344 1
  25096231.640     3454042.001 2   2691443.336 1
  22469567.638   -11721536.442 3  -9133629.492 2
  21424818.809      234679.933 4    182898.576 3
 91  4 30 21 42 15.0020000  0  5 19 11 16 06 02
  22744969.889     9346780.229 2   7283199.023 1
  24926418.703     5591369.473 2   4356920.313 1
  25102802.188     3488580.247 2   2718356.116 1
  22465506.650   -11742863.209 3  -9150247.713 2
  21424408.092      232529.212 4    181222.706 3
 91  4 30 21 42 30.0020000  0  5 19 11 16 06 02
  22751312.293     9380102.503 2   7309164.360 1
  24935116.275     5637037.553 2   4392505.755 1
  25109381.435     3523181.554 2   2745318.142 1
  22461456.157   -11764163.925 3  -9166845.629 1
  21424012.365      230451.061 4    179603.384 3
 91  4 30 21 42 45.0020000  0  5 19 11 16 06 02
  22757663.395     9413487.201 2   7335178.410 1
  24943820.453     5682802.256 2   4428166.597 1
  25115974.171     3557843.024 2   2772326.955 1
  22457406.259   -11785440.909 3  -9183425.055 2
  21423632.229      228442.906 4    178038.599 3
 91  4 30 21 43  0.0020000  0  5 19 11 16 06 02
  22764028.589     9446937.023 2   7361243.127 1
  24952552.210     5728666.068 2   4463904.634 1
  25122593.292     3592566.874 2   2799384.455 1
  22453362.659   -11806691.396 3  -9199983.829 2
  21423263.480      226507.479 4    176530.502 3
 91  4 30 21 43 15.0020000  0  5 19 11 16 06 02
  22770403.075     9480451.748 2   7387358.481 1
  24961295.354     5774628.405 2   4499719.373 1
  25129213.904     3627352.438 2   2826489.963 1
  22449325.656   -11827915.537 3  -9216522.080 2
  21422908.229      224644.331 4    175078.709 3
 91  4 30 21 43 30.0020000  0  5 19 11 16 06 02
  22776794.654     9514030.062 2   7413523.351 1
  24970069.681     5820687.706 2   4535609.749 1
  25135837.222     3662198.582 2   2853642.628 1
  22445290.747   -11849114.230 3  -9233040.488 2
  21422570.061      222852.324 4    173682.355 3
 91  4 30 21 43 45.0020000  0  5 19 11 16 06 02
  22783192.819     9547676.052 2   7439740.980 1
  24978846.102     5866847.697 2   4571578.499 1
  25142477.623     3697108.846 2   2880845.282 1
  22441262.739   -11870283.391 3  -9249535.885 2
  21422240.295      221135.329 4    172344.448 3
 91  4 30 21 44  0.0020000  0  5 19 11 16 06 02
  22789614.377     9581387.641 2   7466009.692 1
  24987647.713     5913105.720 2   4607623.716 1
  25149130.920     3732080.426 2   2908095.789 1
  22437237.724   -11891425.180 3  -9266009.965 2
  21421930.004      219491.124 4    171063.269 3
 91  4 30 21 44 15.0020000  0  5 19 11 16 06 02
  22796036.529     9615166.289 2   7492330.677 1
  24996473.300     5959462.854 2   4643746.149 1
  25155802.199     3767114.694 2   2935395.100 1
  22433220.501   -11912537.990 3  -9282461.459 2
  21421628.412      217921.205 4    169839.975 3
 91  4 30 21 44 30.0020000  0  5 19 11 16 06 02
  22802487.770     9649011.631 2   7518703.611 1
  25005306.984     6005918.544 2   4679945.359 1
  25162480.075     3802210.816 2   2962742.548 1
  22429209.883   -11933621.981 3  -9298890.502 2
  21421344.515      216424.837 4    168673.988 3
 91  4 30 21 44 45.0020000  0  5 19 11 16 06 02
  22808934.203     9682924.845 2   7545129.467 1
  25014165.256     6052473.557 2   4716222.008 1
  25169173.245     3837369.527 2   2990138.862 1
  22425205.852   -11954675.991 3  -9315296.183 2
  21421073.801      215003.205 4    167566.236 3
 91  4 30 21 45  0.0020000  0  5 19 11 16 06 02
  22815401.629     9716905.200 2   7571607.615 1
  25023046.605     6099126.802 2   4752575.154 1
  25175873.003     3872589.773 2   3017583.062 1
  22421200.625   -11975700.526 3  -9331678.891 2
  21420815.974      213655.576 4    166516.158 3
 91  4 30 21 45 15.0020000  0  5 19 11 16 06 02
  22821882.840     9750951.465 2   7598137.134 1
  25031941.749     6145876.678 2   4789003.612 1
  25182588.056     3907869.830 2   3045073.884 1
  22417205.895   -11996696.745 3  -9348039.541 2
  21420576.443      212380.601 4    165522.693 3
 91  4 30 21 45 30.0020000  0  5 19 11 16 06 02
  22828374.548     9785063.600 2   7624717.993 1
  25040853.078     6192722.840 2   4825507.092 1
  25189313.300     3943209.518 2   3072611.140 1
  22413217.456   -12017664.455 3  -9364377.972 2
  21420345.306      211178.112 4    164585.707 3
 91  4 30 21 45 45.0020000  0  5 19 11 16 06 02
  22834875.845     9819242.914 2   7651351.177 1
  25049791.088     6239666.218 2   4862086.359 1
  25196048.736     3978609.690 2   3100195.622 1
  22409235.011   -12038602.304 3  -9380693.131 2
  21420129.753      210049.278 4    163706.108 3
 91  4 30 21 46  0.0020000  0  5 19 11 16 06 02
  22841391.835     9853488.618 2   7678036.095 1
  25058743.791     6286705.709 2   4898740.445 1
  25202792.267     4014068.862 2   3127825.958 1
  22405255.567   -12059510.918 3  -9396985.521 2
  21419931.893      208993.350 4    162883.328 3
 91  4 30 21 46 15.0020000  0  5 19 11 16 06 02
  22847918.914     9887800.937 2   7704772.919 2
  25067712.086     6333841.313 2   4935469.474 1
  25209557.089     4049587.329 2   3155502.586 1
  22401280.617   -12080389.801 3  -9413254.734 2
  21419743.920      208010.455 4    162117.454 3
 91  4 30 21 46 30.0020000  0  5 19 11 16 06 02
  22854466.977     9922178.083 2   7731560.261 1
  25076694.464     6381070.605 2   4972271.540 1
  25216326.098     4085162.795 2   3183223.631 1
  22397314.663   -12101240.853 3  -9429502.253 2
  21419569.740      207098.578 4    161406.916 3
 91  4 30 21 46 45.0020000  0  5 19 11 16 06 02
  22861018.348     9956621.032 2   7758398.885 2
  25085702.929     6428394.435 2   5009147.218 1
  25223105.307     4120795.780 2   3210989.449 1
  22393348.106   -12122062.826 3  -9445727.134 2
  21419407.253      206258.767 4    160752.541 3
 91  4 30 21 47  0.0020000  0  5 19 11 16 06 02
  22867584.097     9991131.168 2   7785289.860 2
  25094729.979     6475813.463 2   5046097.107 1
  25229901.006     4156487.340 2   3238800.908 1
  22389390.850   -12142854.434 3  -9461928.342 2
  21419263.951      205492.132 4    160155.176 3
 91  4 30 21 47 15.0020000  0  6 19 11 16 06 15 02
  22874165.141    10025706.976 2   7812231.992 1
  25103769.026     6523326.073 2   5083119.887 1
  25236699.698     4192235.452 2   3266656.449 1
  22385442.878   -12163616.819 3  -9478106.774 2
  25414414.269           0.340 2         0.007 1
  21419132.647      204797.279 4    159613.756 3
 91  4 30 21 47 30.0020000  0  5 19 11 16 06 02
  22880765.075    10060349.350 2   7839226.014 1
  25112834.144     6570932.869 2   5120216.034 1
  25243514.881     4228040.934 2   3294556.638 1
  22381498.213   -12184348.972 3  -9494261.657 2
  21419012.729      204174.800 4    159128.725 3
 91  4 30 21 47 45.0020000  0  6 19 11 16 06 15 02
  22887363.212    10095056.205 2   7866270.277 1
  25121902.865     6618631.389 2   5157383.711 1
  25250340.856     4263901.329 2   3322499.744 1
  22377558.041   -12205052.923 3  -9510394.567 2
  25404829.606        3384.24212      2637.051 1
  21418907.801      203622.707 4    158698.539 3
 91  4 30 21 48  0.0020000  0  5 19 11 16 06 02
  22893978.127    10129826.097 2   7893363.644 1
  25130997.369     6666419.921 2   5194621.528 1
  25257171.325     4299814.765 2   3350484.135 1
  22373622.362   -12225729.722 3  -9526506.309 2
  21418815.167      203139.466 4    158322.015 3
 91  4 30 21 48 15.0020000  0  6 19 11 16 06 15 02
  22900605.641    10164661.045 2   7920507.719 1
  25140113.162     6714299.996 2   5231930.646 1
  25264021.583     4335782.678 2   3378510.875 1
  22369694.179   -12246377.545 3  -9542595.477 2
  25395284.808        3400.611 2      2650.054 1
  21418739.616      202726.905 4    158000.557 3
 91  4 30 21 48 30.0020000  0  6 19 11 16 06 15 02
  22907254.139    10199560.117 2   7947701.749 1
  25149241.240     6762270.310 2   5269310.062 1
  25270866.439     4371803.901 2   3406579.299 1
  22365770.497   -12266997.053 3  -9558662.584 2
  25390523.804        6735.82512      5248.991 1
  21418670.967      202384.054 4    157733.418 3
 91  4 30 21 48 45.0020000  0  5 19 11 16 06 02
  22913901.739    10234521.825 2   7974944.596 1
  25158383.112     6810329.084 2   5306758.451 1
  25277734.985     4407876.380 2   3434687.526 1
  22361849.512   -12287589.675 3  -9574708.729 2
  21418620.300      202109.437 4    157519.453 3
 91  4 30 21 49  0.0020000  0  5 19 11 16 06 02
  22920564.022    10269548.529 2   8002238.095 1
  25167544.773     6858478.172 2   5344277.193 1
  25284612.229     4444002.262 2   3462837.403 1
  22357937.225   -12308152.955 3  -9590732.019 2
  21418580.130      201905.100 4    157360.258 3
 91  4 30 21 49 15.0020000  0  5 19 11 16 06 02
  22927243.398    10304638.338 2   8029580.771 2
  25176725.917     6906715.477 2   5381864.700 1
  25291488.269     4480179.369 2   3491027.182 1
  22354029.424   -12328688.428 3  -9606733.656 2
  21418555.839      201769.175 4    157254.364 3
 91  4 30 21 49 30.0020000  0  5 19 11 16 06 02
  22933930.270    10339790.951 2   8056972.395 1
  25185917.549     6955040.284 2   5419520.383 1
  25298384.691     4516407.089 2   3519256.465 1
  22350128.227   -12349196.466 3  -9622713.896 2
  21418542.053      201701.296 4    157201.483 3
 91  4 30 21 49 45.0020000  0  5 19 11 16 06 02
  22940630.036    10375005.381 2   8084412.158 1
  25195137.372     7003451.343 2   5457243.268 1
  25305295.213     4552684.120 2   3547524.173 1
  22346228.827   -12369677.795 3  -9638673.320 2
  21418544.147      201700.412 4    157200.832 3
 91  4 30 21 50  0.0020000  0  5 19 11 16 06 02
  22947344.182    10410282.481 2   8111900.764 2
  25204361.086     7051949.051 2   5495033.652 1
  25312199.732     4589010.535 1   3575830.374 1
  22342335.719   -12390131.540 3  -9654611.268 2
  21418552.541      201767.396 4    157253.041 3
 91  4 30 21 50 15.0020000  0  5 19 11 16 06 02
  22954070.028    10445623.553 2   8139439.198 1
  25213609.684     7100534.275 2   5532892.243 1
  25319126.133     4625387.445 1   3604175.867 1
  22338449.512   -12410556.313 3  -9670526.620 2
  21418581.325      201903.236 4    157358.907 3
 91  4 30 21 50 30.0020000  0  5 19 11 16 06 02
  22960814.162    10481026.401 2   8167025.805 1
  25222873.568     7149204.737 2   5570817.223 1
  25326054.638     4661812.313 1   3632558.975 1
  22334570.197   -12430953.811 3  -9686420.735 2
  21418619.401      202105.887 4    157516.842 3
 91  4 30 21 50 45.0020000  0  5 19 11 16 06 02
  22967556.795    10516492.458 2   8194661.664 1
  25232153.044     7197961.460 2   5608809.458 1
  25332997.233     4698286.122 1   3660980.249 1
  22330692.986   -12451322.660 3  -9702292.536 2
  21418671.865      202376.657 4    157727.849 3
 91  4 30 21 51  0.0020000  0  5 19 11 16 06 02
  22974316.216    10552022.855 2   8222347.649 1
  25241441.210     7246805.154 2   5646869.407 1
  25339956.912     4734809.786 1   3689440.106 1
  22326820.564   -12471661.484 3  -9718140.920 2
  21418735.122      202716.453 4    157992.656 3
 91  4 30 21 51 15.0020000  0  5 19 11 06 15 02
  22981094.517    10587614.744 2   8250081.549 1
  25250751.268     7295732.576 2   5684994.667 1
  22322958.037   -12491973.071 3  -9733968.083 2
  25339046.142      -15914.918 2    -12401.180 1
  21418811.563      203122.472 4    158309.054 3
 91  4 30 21 51 30.0020000  0  4 19 11 06 02
  22987877.626    10623270.794 2   8277865.463 1
  25260079.308     7344746.049 2   5723186.928 1
  22319097.613   -12512254.643 3  -9749771.865 2
  21418903.604      203597.271 4    158679.047 3
 91  4 30 21 51 45.0020000  0  4 19 11 06 02
  22994671.520    10658989.939 2   8305698.495 1
  25269418.447     7393844.331 2   5761445.306 1
  22315245.573   -12532506.899 3  -9765552.807 2
  21419006.430      204139.803 4    159101.819 3
 91  4 30 21 52  0.0020000  0  4 19 11 06 02
  23001483.701    10694772.403 2   8333580.900 1
  25278789.056     7443027.112 2   5799769.546 1
  22311393.848   -12552729.669 3  -9781310.763 2
  21419121.549      204750.054 4    159577.366 3
 91  4 30 21 52 15.0020000  0  4 19 11 06 02
  23008305.183    10730616.493 2   8361511.343 1
  25288159.073     7492292.266 2   5838157.932 1
  22307551.406   -12572924.567 3  -9797047.011 2
  21419252.862      205426.079 4    160104.158 3
 91  4 30 21 52 30.0020000  0  4 19 11 06 02
  23015134.753    10766522.670 2   8389490.129 1
  25297544.978     7541639.956 2   5876610.705 1
  22303714.958   -12593090.892 3  -9812760.986 2
  21419394.060      206168.487 4    160682.679 3
 91  4 30 21 52 45.0020000  0  5 19 11 06 15 02
  23021983.815    10802492.835 2   8417518.788 1
  25306957.556     7591071.711 2   5915128.877 1
  22299887.209   -12613226.582 3  -9828451.086 2
  25311606.442      -15538.88712    -12107.971 1
  21419546.959      206979.113 4    161314.362 3
 91  4 30 21 53  0.0020000  0  4 19 11 06 02
  23028843.662    10838526.125 2   8445596.635 1
  25316383.334     7640586.362 2   5953711.710 1
  22296058.561   -12633332.371 3  -9844117.894 2
  21419714.542      207856.924 4    161998.389 3
 91  4 30 21 53 15.0020000  0  4 19 11 06 02
  23035711.605    10874620.173 2   8473721.826 1
  25325811.504     7690181.260 2   5992357.068 1
  22292235.908   -12653410.378 3  -9859763.062 2
  21419893.520      208799.486 4    162732.863 3
 91  4 30 21 53 30.0020000  0  4 19 11 06 02
  23042589.748    10910775.159 2   8501894.510 2
  25335270.560     7739856.185 2   6031064.774 1
  22288421.046   -12673460.391 3  -9875386.403 2
  21420084.783      209806.836 4    163517.842 3
 91  4 30 21 53 45.0020000  0  4 19 11 06 02
  23049478.980    10946985.556 2   8530110.358 1
  25344735.907     7789605.257 2   6069830.259 1
  22284608.287   -12693487.755 3  -9890992.095 2
  21420287.442      210873.495 4    164349.029 3
 91  4 30 21 54  0.0020000  0  4 19 11 06 02
  23056382.295    10983249.922 2   8558368.267 1
  25354212.946     7839426.563 2   6108652.064 1
  22280801.522   -12713493.725 3  -9906581.119 2
  21420501.791      211997.828 4    165225.146 3
 91  4 30 21 54 15.0020000  0  4 19 11 06 02
  23063293.114    11019575.034 2   8586673.520 2
  25363713.665     7889326.594 2   6147535.191 1
  22277001.056   -12733471.371 3  -9922148.067 2
  21420727.536      213186.582 4    166151.474 3
 91  4 30 21 54 30.0020000  0  4 19 11 06 02
  23070220.423    11055961.887 2   8615026.858 1
  25373217.088     7939306.030 2   6186480.152 1
  22273205.084   -12753419.455 3  -9937691.986 2
  21420967.974      214440.789 4    167128.799 3
 91  4 30 21 54 45.0020000  0  5 19 11 06 15 02
  23077152.818    11092412.417 2   8643429.856 1
  25382748.092     7989366.398 2   6225488.222 1
  22269416.005   -12773335.992 3  -9953211.327 2
  25275702.994        3627.89312      2827.350 1
  21421217.102      215762.179 4    168158.479 3
 91  4 30 21 55  0.0020000  0  4 19 11 06 02
  23084107.105    11128925.651 2   8671881.687 1
  25392288.082     8039506.577 2   6264558.483 1
  22265631.123   -12793221.691 3  -9968706.641 2
  21421481.516      217149.893 4    169239.826 3
 91  4 30 21 55 15.0020000  0  4 19 11 06 02
  23091060.188    11165503.354 2   8700383.734 1
  25401841.570     8089727.740 2   6303691.834 1
  22261853.142   -12813074.779 3  -9984176.523 2
  21421757.622      218605.520 4    170374.105 3
 91  4 30 21 55 30.0020000  0  4 19 11 06 02
  23098033.662    11202144.847 2   8728935.518 1
  25411418.145     8140028.868 2   6342887.519 1
  22258080.553   -12832895.565 3  -9999621.247 2
  21422048.125      220128.264 4    171560.676 3
 91  4 30 21 55 45.0020000  0  4 19 11 06 02
  23105019.132    11238850.333 2   8757537.137 1
  25421002.808     8190409.822 2   6382145.311 1
  22254313.959   -12852683.914 3 -10015040.695 2
  21422352.413      221718.094 4    172799.527 3
 91  4 30 21 56  0.0020000  0  4 19 11 06 02
  23112020.186    11275620.928 2   8786189.521 1
  25430610.558     8240871.480 2   6421466.077 1
  22250558.759   -12872438.416 3 -10030433.767 2
  21422667.198      223376.041 4    174091.463 3
 91  4 30 21 56 15.0020000  0  4 19 11 06 02
  23119022.731    11312456.126 2   8814892.218 1
  25440225.802     8291413.161 2   6460849.133 1
  22246804.458   -12892159.279 3 -10045800.638 2
  21422995.166      225101.777 4    175436.210 3
 91  4 30 21 56 30.0020000  0  4 19 11 06 02
  23126047.473    11349355.972 2   8843645.311 1
  25449860.530     8342034.445 2   6500294.285 1
  22243059.153   -12911846.284 3 -10061141.118 2
  21423335.131      226895.399 4    176833.855 3
 91  4 30 21 56 45.0020000  0  4 19 11 06 02
  23133079.100    11386320.221 2   8872448.563 1
  25459508.153     8392734.669 2   6539800.920 1
  22239319.842   -12931499.552 3 -10076455.300 2
  21423690.688      228756.526 4    178284.111 3
 91  4 30 21 57  0.0020000  0  4 19 11 06 02
  23140128.726    11423348.493 2   8901301.728 1
  25469168.960     8443512.836 2   6579368.361 1
  22235585.320   -12951119.556 3 -10091743.583 2
  21424057.334      230684.289 4    179786.283 3
 91  4 30 21 57 15.0020000  0  4 19 11 06 02
  23147185.533    11460441.228 2   8930205.107 1
  25478849.259     8494369.278 2   6618996.742 1
  22231858.006   -12970705.431 3 -10107005.266 2
  21424436.868      232679.253 4    181340.819 3
 91  4 30 21 57 30.0020000  0  4 19 11 06 02
  23154260.340    11497599.989 2   8959159.956 1
  25488538.850     8545305.178 2   6658686.989 1
  22228136.381   -12990255.450 3 -10122239.011 2
  21424830.501      234742.985 4    182948.935 3
 91  4 30 21 57 45.0020000  0  4 19 11 06 02
  23161342.336    11534823.604 2   8988165.323 1
  25498253.927     8596319.001 2   6698437.987 1
  22224423.149   -13009770.609 3 -10137445.578 2
  21425234.622      236874.221 4    184609.671 3
 91  4 30 21 58  0.0020000  0  4 19 11 06 02
  23168440.221    11572112.509 2   9017221.546 2
  25507982.188     8647410.752 2   6738249.707 1
  22220717.115   -13029250.427 3 -10152624.632 2
  21425653.427      239073.252 4    186323.222 3
 91  4 30 21 58 15.0020000  0  4 19 11 06 02
  23175541.107    11609465.056 2   9046327.386 1
  25517704.760     8698578.474 2   6778120.627 1
  22217014.677   -13048696.301 3 -10167777.206 2
  21426086.629      241338.577 4    188088.433 3
 91  4 30 21 58 30.0020000  0  4 19 11 06 02
  23182664.478    11646883.096 2   9075484.236 1
  25527457.905     8749823.709 2   6818051.950 1
  22213323.039   -13068106.279 3 -10182901.831 2
  21426530.021      243671.776 4    189906.531 3
 91  4 30 21 58 45.0020000  0  4 19 11 06 02
  23189802.236    11684366.768 2   9104692.238 1
  25537223.047     8801146.405 2   6858043.611 1
  22209633.487   -13087479.813 3 -10197998.049 2
  21426985.411      246073.104 4    191777.715 3
 91  4 30 21 59  0.0020000  0  4 19 11 06 02
  23196945.387    11721915.568 2   9133951.025 1
  25547002.882     8852545.721 2   6898095.019 1
  22205955.636   -13106817.363 3 -10213066.229 2
  21427456.384      248541.841 4    193701.431 3
 91  4 30 21 59 15.0020000  0  4 19 11 06 02
  23204096.635    11759528.805 2   9163259.990 1
  25556803.988     8904020.513 2   6938205.205 1
  22202282.880   -13126119.406 3 -10228106.751 2
  21427939.345      251077.113 4    195676.988 3
 91  4 30 21 59 30.0020000  0  5 19 11 06 15 02
  23211268.273    11797206.207 2   9192618.952 1
  25566606.308     8955570.086 2   6978373.670 1
  22198617.915   -13145386.151 3 -10243119.753 2
  25194040.425        -551.103 2      -429.018 1
  21428432.802      253678.688 4    197704.205 3
 91  4 30 21 59 45.0020000  0  5 19 11 06 15 02
  23218451.603    11834948.089 2   9222028.172 1
  25576430.807     9007194.588 2   7018600.503 1
  22194957.750   -13164616.986 3 -10258104.780 2
  25189901.495      -22359.244 2    -17422.245 1
  21428943.648      256346.985 4    199783.420 3
 91  4 30 22  0  0.0020000  0  5 19 11 06 15 02
  23225651.719    11872754.047 2   9251487.285 1
  25586272.991     9058893.204 2   7058885.120 1
  22191304.180   -13183812.019 3 -10273061.919 2
  25185767.059      -44087.487 2    -34353.274 1
  21429463.490      259081.523 4    201914.254 3
 91  4 30 22  0 15.0020000  0  5 19 11 06 15 02
  23232860.823    11910624.698 2   9280996.854 1
  25596123.569     9110666.163 2   7099227.643 1
  22187658.402   -13202970.527 3 -10287990.581 2
  25181644.008      -65734.784 2    -51221.065 1
  21429993.820      261882.600 4    204096.927 3
 91  4 30 22  0 30.0020000  0  5 19 11 06 15 02
  23240071.733    11948560.183 2   9310556.944 2
  25605993.343     9162513.040 2   7139627.808 1
  22184018.322   -13222092.406 3 -10302890.713 2
  25177541.654      -87300.796 2    -68025.725 1
  21430540.046      264750.076 4    206331.343 3
 91  4 30 22  0 45.0020000  0  5 19 11 06 15 02
  23247308.120    11986562.174 2   9340168.836 1
  25615870.602     9214435.277 2   7180086.660 1
  22180386.940   -13241175.683 3 -10317760.764 2
  25173453.382     -108783.611 2    -84765.572 1
  21431099.762      267685.836 4    208618.981 3
 91  4 30 22  1  0.0020000  0  5 19 11 06 15 02
  23254550.214    12024627.525 2   9369830.085 2
  25625761.656     9266429.521 2   7220601.616 1
  22176763.045   -13260223.197 3 -10332602.940 2
  25169382.796     -130185.925 2   -101442.624 1
  21431671.466      270686.942 4    210957.519 3
 91  4 30 22  1 15.0020000  0  5 19 11 06 15 02
  23261804.889    12062756.981 2   9399541.290 1
  25635676.093     9318496.199 2   7261173.049 1
  22173147.551   -13279234.024 3 -10347416.537 2
  25165320.316     -151506.574 2   -118055.876 1
  21432253.056      273753.920 4    213347.390 3
 91  4 30 22  1 30.0020000  0  5 19 11 06 15 02
  23269067.660    12100950.298 2   9429302.260 1
  25645593.829     9370634.656 2   7301800.410 1
  22169535.348   -13298208.255 3 -10362201.618 2
  25161284.804     -172745.322 2   -134605.511 1
  21432848.745      276886.383 4    215788.296 3
 91  4 30 22  1 45.0020000  0  5 19 11 06 15 02
  23276353.214    12139209.712 2   9459114.756 1
  25655530.742     9422846.808 2   7342485.164 1
  22165933.945   -13317143.478 3 -10376956.300 2
  25157255.296     -193899.862 2   -151089.500 1
  21433459.721      280086.548 4    218281.953 3
 91  4 30 22  2  0.0020000  0  5 19 11 06 15 02
  23283643.566    12177533.231 2   9488977.189 1
  25665481.458     9475130.280 2   7383225.517 1
  22162337.630   -13336041.543 3 -10391682.030 2
  25153245.873     -214971.748 2   -167509.027 1
  21434078.497      283352.424 4    220826.804 3
 91  4 30 22  2 15.0020000  0  5 19 11 06 15 02
  23290956.402    12215920.539 2   9518889.333 1
  25675443.560     9527484.377 2   7424020.968 1
  22158744.020   -13354902.535 3 -10406378.872 2
  25149257.128     -235960.692 2   -183864.293 1
  21434714.060      286683.571 4    223422.532 3
 91  4 30 22  2 30.0020000  0  5 19 11 06 15 02
  23298273.444    12254370.025 2   9548849.903 1
  25685411.064     9579907.099 2   7464869.837 1
  22155166.594   -13373727.853 3 -10421047.903 2
  25145273.488     -256868.127 2   -200155.785 1
  21435359.805      290078.105 4    226067.644 3
 91  4 30 22  2 45.0020000  0  6 19 11 13 06 15 02
  23305593.776    12292882.710 2   9578859.758 1
  25695405.545     9632399.262 2   7505772.737 1
  24848668.726           0.909 2         0.078 1
  22151587.074   -13392516.205 3 -10435688.138 2
  25141308.737     -277692.389 2   -216382.372 1
  21436017.556      293537.053 4    228762.949 3
 91  4 30 22  3  0.0020000  0  6 19 11 13 06 15 02
  23312939.584    12331457.342 2   9608917.866 1
  25705406.614     9684959.261 2   7546728.549 1
  24838153.504      -55305.814 2    -43096.126 1
  22148018.941   -13411268.674 3 -10450300.414 2
  25137367.963     -298434.687 2   -232545.053 1
  21436688.491      297059.136 4    231507.448 3
 91  4 30 22  3 15.0020000  0  6 19 11 13 06 15 02
  23320288.700    12370095.715 2   9639025.661 1
  25715429.879     9737588.412 2   7587738.247 1
  24827622.995     -110589.451 2    -86174.498 1
  22144459.210   -13429983.433 3 -10464883.308 2
  25133433.786     -319092.723 2   -248642.232 1
  21437370.219      300646.073 4    234302.488 3
 91  4 30 22  3 30.0020000  0  6 19 11 13 06 15 02
  23327654.899    12408796.388 2   9669181.961 1
  25725453.738     9790284.971 2   7628800.289 1
  24817114.073     -165850.929 2   -129235.182 1
  22140902.769   -13448661.786 3 -10479437.829 2
  25129515.496     -339667.794 2   -264674.553 1
  21438061.841      304296.424 4    237146.935 3
 91  4 30 22  3 45.0020000  0  6 19 11 13 06 15 02
  23335027.398    12447559.661 2   9699387.066 1
  25735495.291     9843048.978 2   7669915.103 1
  24806594.951     -221089.525 2   -172278.441 1
  22137355.925   -13467302.927 3 -10493963.357 2
  25125614.300     -360158.974 2   -280641.671 1
  21438774.150      308010.426 4    240040.984 3
 91  4 30 22  4  0.0020000  0  6 19 11 13 06 15 02
  23342420.881    12486385.853 2   9729641.187 1
  25745546.730     9895880.371 2   7711082.630 1
  24796093.218     -276304.348 2   -215303.228 1
  22133818.076   -13485906.560 3 -10508459.662 2
  25121731.391     -380565.521 2   -296542.685 1
  21439488.850      311788.306 4    242984.808 3
 91  4 30 22  4 15.0020000  0  6 19 11 13 06 15 02
  23349822.452    12525272.255 2   9759942.230 1
  25755613.761     9948776.080 2   7752300.109 1
  24785587.899     -331497.537 2   -258310.684 1
  22130283.220   -13504475.050 3 -10522928.570 2
  25117854.772     -400889.917 2   -312379.814 1
  21440223.643      315627.332 4    245976.267 3
 91  4 30 22  4 30.0020000  0  6 19 11 13 06 15 02
  23357235.427    12564219.858 2   9790290.982 1
  25765691.881    10001736.742 2   7793568.079 1
  24775087.361     -386668.068 2   -301300.665 1
  22126756.767   -13523007.331 3 -10537369.277 2
  25114005.734     -421131.071 2   -328152.014 1
  21440962.329      319528.356 4    249016.048 3
 91  4 30 22  4 45.0020000  0  6 19 11 13 06 15 02
  23364654.387    12603229.567 2   9820688.099 1
  25775781.396    10054763.087 2   7834887.287 1
  24764596.430     -441814.569 2   -344271.952
  22123237.198   -13541502.075 3 -10551780.726 2
  25110177.087     -441287.329 2   -343858.140 1
  21441719.607      323492.373 4    252104.913 3
 91  4 30 22  5  0.0020000  0  6 19 11 13 06 15 02
  23372083.843    12642303.100 2   9851134.969 1
  25785883.502    10107856.352 2   7876258.664 1
  24754104.888     -496934.868 2   -387222.820 1
  22119727.235   -13559957.441 3 -10566161.492 2
  25106362.827     -461356.516 2   -359496.308 1
  21442485.872      327520.984 4    255244.108 3
 91  4 30 22  5 15.0020000  0  6 19 11 13 06 15 02
  23379538.785    12681439.933 2   9881631.150 1
  25796004.497    10161015.784 2   7917681.617 1
  24743620.544     -552028.831 2   -430153.105 1
  22116220.858   -13578373.706 3 -10580511.792 2
  25102556.062     -481338.926 2   -375066.786 1
  21443264.737      331613.664 4    258433.223 3
 91  4 30 22  5 30.0020000  0  6 19 11 13 06 15 02
  23386993.126    12720639.937 2   9912176.536 1
  25806128.189    10214240.848 2   7959155.717 1
  24733149.096     -607096.104 2   -473062.475 1
  22112724.680   -13596750.911 3 -10594831.655 2
  25098769.085     -501234.344 2   -390569.816 1
  21444055.886      335770.195 4    261672.103 3
 91  4 30 22  5 45.0020000  0  6 19 11 13 06 15 02
  23394476.844    12759902.817 2   9942770.944 1
  25816272.864    10267530.827 2   8000680.282 1
  24722670.449     -662136.828 2   -515951.470 1
  22109235.099   -13615089.138 3 -10609121.148 2
  25094996.200     -521042.765 2   -406004.813 1
  21444857.531      339990.100 4    264960.363 3
 91  4 30 22  6  0.0020000  0  5 19 13 06 15 02
  23401949.463    12799230.100 2   9973415.523 1
  24712193.007     -717149.081 2   -558818.368 1
  22105753.004   -13633386.539 3 -10623378.822 2
  25091248.792     -540762.220 2   -421370.586 1
  21445673.573      344274.869 4    268299.152 3
 91  4 30 22  6 15.0020000  0  5 19 13 06 15 02
  23409453.572    12838623.157 2  10004111.352 1
  24701745.535     -772131.187 2   -601661.378 1
  22102278.108   -13651641.774 3 -10637603.653 2
  25087512.177     -560391.188 2   -436665.813 1
  21446501.892      348625.625 4    271689.373 3
 91  4 30 22  6 30.0020000  0  5 19 13 06 15 02
  23416958.875    12878081.785 2  10034858.291 1
  24691286.076     -827082.900 2   -644481.115
  22098812.808   -13669854.741 3 -10651795.535 2
  25083793.247     -579929.343 2   -451890.261 1
  21447339.816      353042.319 4    275130.969 3
 91  4 30 22  6 45.0020000  0  5 19 13 06 15 02
  23424483.366    12917606.310 2  10065656.547 1
  24680829.617     -882003.430 2   -687276.112 1
  22095353.504   -13688024.822 3 -10665953.997 2
  25080096.811     -599375.960 2   -467043.392 1
  21448193.027      357525.337 4    278624.243 3
 91  4 30 22  7  0.0020000  0  5 19 13 06 15 02
  23432016.555    12957197.077 2  10096506.461 1
  24670389.640     -936891.968 2   -730046.237 1
  22091904.695   -13706151.486 3 -10680078.641 2
  25076415.958     -618730.214 2   -482124.484 1
  21449060.024      362074.959 4    282169.424 3
 91  4 30 22  7 15.0020000  0  5 19 13 06 15 02
  23439559.630    12996853.333 2  10127407.386 1
  24659944.272     -991748.710 2   -772791.920 1
  22088462.177   -13724235.192 3 -10694169.817 2
  25072744.398     -637992.828 2   -497134.176 1
  21449938.415      366690.301 4    285765.815 3
 91  4 30 22  7 30.0020000  0  5 19 13 06 15 02
  23447117.694    13036576.515 2  10158360.463 1
  24649516.292    -1046571.868 2   -815511.464 1
  22085031.647   -13742274.364 3 -10708226.283 2
  25069096.822     -657161.903 2   -512071.133 1
  21450827.905      371372.735 4    289414.472 3
 91  4 30 22  7 45.0020000  0  5 19 13 06 15 02
  23454690.452    13076367.355 2  10189366.306 1
  24639084.116    -1101360.364 2   -858203.659 1
  22081607.723   -13760268.047 3 -10722247.302 2
  25065462.745     -676236.172 2   -526934.181 1
  21451732.376      376123.001 4    293115.991 3
 91  4 30 22  8  0.0020000  0  5 19 13 06 15 02
  23462273.409    13116223.988 2  10220423.326 1
  24628667.828    -1156115.845 2   -900870.365 1
  22078191.590   -13778217.970 3 -10736234.220 2
  25061852.940     -695217.209 2   -541724.436 1
  21452653.041      380938.994 4    296868.729 3
 91  4 30 22  8 15.0020000  0  5 19 13 06 15 02
  23469878.240    13156145.095 2  10251530.636 1
  24618251.836    -1210839.020 2   -943511.671 1
  22074783.841   -13796125.145 3 -10750187.842 2
  25058266.519     -714105.900 2   -556442.652
  21453579.098      385819.524 4    300671.759 3
 91  4 30 22  8 30.0020000  0  5 19 13 06 15 02
  23477488.768    13196132.384 2  10282689.487 1
  24607838.244    -1265527.666 2   -986126.042 1
  22071383.300   -13813987.553 3 -10764106.561 2
  25054681.005     -732900.176 2   -571087.663 1
  21454523.146      390766.352 4    304526.437 3
 91  4 30 22  8 45.0020000  0  5 19 13 06 15 02
  23485101.103    13236184.069 2  10313898.554 1
  24597439.049    -1320183.188 2  -1028714.516 1
  22067994.145   -13831806.889 3 -10777991.726 2
  25051118.273     -751601.542 2   -585660.106 1
  21455475.282      395777.509 4    308431.250 3
 91  4 30 22  9  0.0020000  0  5 19 13 06 15 02
  23492732.921    13276301.371 2  10345158.735 1
  24587054.834    -1374803.901 2  -1071276.311 1
  22064612.188   -13849581.708 3 -10791842.201 2
  25047596.008     -770208.335 2   -600158.754 1
  21456439.119      400854.086 4    312387.048 3
 91  4 30 22  9 15.0020000  0  5 19 13 06 15 02
  23500380.322    13316483.536 2  10376469.464 1
  24576660.734    -1429390.212 2  -1113811.215 1
  22061237.420   -13867312.541 3 -10805658.406 2
  25044062.958     -788721.030 2   -614584.170 1
  21457417.038      405995.192 4    316393.110 3
 91  4 30 22  9 30.0020000  0  5 19 13 06 15 02
  23508045.121    13356731.522 2  10407831.462 1
  24566276.816    -1483940.853 2  -1156318.060 1
  22057871.352   -13884998.216 3 -10819439.414 2
  25040565.280     -807138.410 2   -628935.287 1
  21458409.650      411201.916 4    320450.311 3
 91  4 30 22  9 45.0020000  0  5 19 13 06 15 02
  23515713.811    13397044.311 2  10439243.951 1
  24555912.696    -1538456.354 2  -1198797.438 1
  22054515.474   -13902639.451 3 -10833185.806 2
  25037067.297     -825461.024 2   -643212.591 1
  21459412.156      416473.241 4    324557.854 3
 91  4 30 22 10  0.0020000  0  5 19 13 06 15 02
  23523407.088    13437421.544 2  10470706.694 1
  24545545.268    -1592936.793 2  -1241249.919 1
  22051164.099   -13920236.603 3 -10846897.838 2
  25033602.294     -843688.976 2   -657416.097 1
  21460428.151      421808.568 4    328715.269 3
 91  4 30 22 10 15.0020000  0  5 19 13 06 15 02
  23531090.768    13477860.974 2  10502217.875 1
  24535182.945    -1647383.715 2  -1283675.845 1
  22047824.407   -13937791.447 3 -10860576.910 2
  25030152.587     -861824.049 2   -671547.256 1
  21461455.847      427205.698 4    332920.831 3
 91  4 30 22 10 30.0020000  0  5 19 13 06 15 02
  23538801.723    13518363.428 2  10533778.165 1
  24524816.425    -1701795.917 2  -1326075.155 1
  22044493.116   -13955302.824 3 -10874222.103 2
  25026715.766     -879864.775 2   -685604.864 1
  21462494.021      432665.525 4    337175.266 3
 91  4 30 22 10 45.0020000  0  5 19 13 06 15 02
  23546515.984    13558929.010 2  10565387.645 1
  24514478.681    -1756172.799 2  -1368446.566 1
  22041166.616   -13972770.478 3 -10887833.234 2
  25023302.626     -897810.948 2   -699588.773 1
  21463542.396      438188.148 4    341478.621 3
 91  4 30 22 11  0.0020000  0  5 19 13 06 15 02
  23554241.937    13599557.220 2  10597045.923 1
  24504136.443    -1810514.400 2  -1410790.898 1
  22037853.308   -13990194.667 3 -10901410.512 2
  25019909.876     -915662.732 2   -713499.144 1
  21464606.964      443773.025 4    345830.488 3
 91  4 30 22 11 15.0020000  0  5 19 13 06 15 02
  23561999.667    13640250.377 2  10628754.818 1
  24493799.894    -1864818.300 2  -1453105.817 1
  22034546.597   -14007573.007 3 -10914952.022 2
  25016522.222     -933417.319 2   -727333.807 1
  21465682.316      449422.182 4    350232.441 3
 91  4 30 22 11 30.0020000  0  5 19 13 06 15 02
  23569754.099    13681007.106 2  10660513.209 1
  24483469.051    -1919085.274 2  -1495391.572 1
  22031250.678   -14024906.658 3 -10928458.732 2
  25013155.551     -951075.804 2   -741093.530 1
  21466770.267      455133.971 4    354683.203 3
 91  4 30 22 11 45.0020000  0  5 19 13 06 15 02
  23577524.716    13721827.313 2  10692321.090 1
  24473159.488    -1973315.122 2  -1537648.834 1
  22027957.465   -14042195.435 3 -10941930.471 2
  25009826.660     -968637.964 2   -754778.287 1
  21467866.307      460908.458 4    359182.819 3
 91  4 30 22 12  0.0020000  0  5 19 13 06 15 02
  23585297.740    13762710.407 2  10724177.988 1
  24462847.221    -2027507.832 2  -1579877.144 1
  22024678.036   -14059439.658 3 -10955367.493 2
  25006513.353     -986104.066 2   -768388.132 1
  21468978.836      466745.262 4    363730.993 3
 91  4 30 22 12 15.0020000  0  5 19 13 06 15 02
  23593091.444    13803660.508 2  10756087.133 1
  24452537.065    -2081658.779 2  -1622072.475 1
  22021405.501   -14076634.940 3 -10968766.372 2
  25003194.949    -1003469.759 2   -781919.760 1
  21470100.057      472648.496 4    368330.932 3
 91  4 30 22 12 30.0020000  0  5 19 13 06 15 02
  23600896.839    13844675.105 2  10788046.507 1
  24442246.087    -2135770.330 2  -1664237.559 1
  22018142.258   -14093783.519 3 -10982128.869 2
  24999911.324    -1020737.007 2   -795374.704 1
  21471235.673      478615.479 4    372980.545 3
 91  4 30 22 12 45.0020000  0  5 19 13 06 15 02
  23608714.528    13885755.912 2  10820057.423 1
  24431956.008    -2189840.154 2  -1706369.713 1
  22014889.206   -14110883.535 3 -10995453.528 2
  24996641.782    -1037903.646 2   -808751.127 1
  21472385.381      484647.782 4    377681.054 3
 91  4 30 22 13  0.0020000  0  5 19 13 06 15 02
  23616542.704    13926903.483 2  10852120.408 1
  24421666.530    -2243867.300 2  -1748468.904 1
  22011643.361   -14127934.145 3 -11008739.685 2
  24993391.138    -1054968.630 2   -822048.621 1
  21473547.373      490745.881 4    382432.831 3
 91  4 30 22 13 15.0020000  0  5 19 13 06 15 02
  23624393.374    13968116.680 2  10884234.495 1
  24411394.442    -2297852.521 2  -1790535.196 1
  22008410.996   -14144936.385 3 -11021988.143 2
  24990174.059    -1071933.001 2   -835267.859 1
  21474719.260      496908.531 4    387234.924 3
 91  4 30 22 13 30.0020000  0  5 19 13 06 15 02
  23632247.037    14009394.513 2  10916398.986 1
  24401135.547    -2351796.400 2  -1832569.542 1
  22005181.327   -14161890.777 3 -11035199.324 2
  24986956.990    -1088797.436 2   -848408.916 1
  21475905.238      503134.935 4    392086.685 3
 91  4 30 22 13 45.0020000  0  5 19 13 06 15 02
  23640105.192    14050739.064 2  10948615.456 1
  24390870.648    -2405696.572 2  -1874569.512 1
  22001964.859   -14178795.160 3 -11048371.545 2
  24983763.896    -1105559.367 2   -861470.048 1
  21477100.517      509427.167 4    396989.738 3
 91  4 30 22 14  0.0020000  0  5 19 13 06 15 02
  23647982.247    14092150.535 2  10980884.062 1
  24380624.046    -2459552.037 2  -1916534.625
  21998755.878   -14195649.103 3 -11061504.452 2
  24980587.896    -1122218.346 2   -874451.008 1
  21478308.979      515785.276 4    401944.127 3
 91  4 30 22 14 15.0020000  0  5 19 13 06 15 02
  23655894.368    14133628.112 2  11013204.156 1
  24370384.930    -2513363.265 2  -1958465.540 1
  21995556.494   -14212453.073 3 -11074598.417 2
  24977442.773    -1138774.701 2   -887351.951 1
  21479534.831      522208.635 4    406949.363 3
 91  4 30 22 14 30.0020000  0  5 19 13 06 15 02
  23663784.004    14175173.380 2  11045577.030 1
  24360158.116    -2567128.283 2  -2000360.244 1
  21992370.895   -14229205.216 3 -11087652.010 2
  24974312.047    -1155226.641 2   -900171.617 1
  21480766.677      528698.576 4    412006.476 3
 91  4 30 22 14 45.0020000  0  5 19 13 06 15 02
  23671706.917    14216784.108 2  11078000.916 1
  24349932.193    -2620848.774 2  -2042220.462 1
  21989192.495   -14245907.694 3 -11100666.891 2
  24971208.892    -1171575.976 2   -912911.236 1
  21482015.310      535252.780 4    417113.670 3
 91  4 30 22 15  0.0020000  0  5 19 13 06 15 02
  23679635.528    14258462.067 2  11110477.185 1
  24339712.272    -2674522.589 2  -2084044.035 1
  21986024.888   -14262558.413 3 -11113641.438 2
  24968118.633    -1187820.815 2   -925569.428 1
  21483272.336      541872.775 4    422272.128 3
 91  4 30 22 15 15.0020000  0  5 19 13 06 15 02
  23687573.135    14300205.912 2  11143004.817 1
  24329514.531    -2728150.823 2  -2125832.113 1
  21982865.683   -14279158.476 3 -11126576.525 2
  24965039.760    -1203961.794 2   -938146.722 1
  21484549.456      548557.618 4    427481.113 3
 91  4 30 22 15 30.0020000  0  5 19 13 06 15 02
  23695541.018    14342015.600 2  11175583.715 1
  24319320.384    -2781732.900 2  -2167584.438 1
  21979719.653   -14295707.518 3 -11139471.849 2
  24961990.274    -1219998.618 2   -950642.905 1
  21485828.671      555307.169 4    432740.534 3
 91  4 30 22 15 45.0020000  0  5 19 13 06 15 02
  23703510.698    14383891.679 2  11208214.345 1
  24309133.741    -2835268.123 2  -2209300.055 1
  21976579.033   -14312204.768 3 -11152326.811 2
  24958968.367    -1235930.517 2   -963057.281 1
  21487128.267      562121.799 4    438050.644 3
 91  4 30 22 16  0.0020000  0  5 19 13 06 15 02
  23711491.773    14425832.780 2  11240895.630 1
  24298950.090    -2888757.205 2  -2250979.655 1
  21973445.898   -14328651.551 3 -11165142.453 2
  24955947.359    -1251758.396 2   -975390.570 1
  21488437.766      569000.278 4    443410.518 3
 91  4 30 22 16 15.0020000  0  5 19 13 06 15 02
  23719476.147    14467838.016 2  11273626.916 1
  24288778.725    -2942200.678 2  -2292624.121 1
  21970324.761   -14345048.436 3 -11177919.220 2
  24952951.829    -1267482.681 2   -987643.231 1
  21489756.854      575941.389 4    448819.202 3
 91  4 30 22 16 30.0020000  0  5 19 13 06 15 02
  23727491.704    14509907.989 2  11306408.633 1
  24278620.561    -2995597.523 2  -2334232.198 1
  21967214.417   -14361394.563 3 -11190656.422 2
  24949988.982    -1283102.741 2   -999814.666 1
  21491089.126      582945.697 4    454277.120 3
 91  4 30 22 16 45.0020000  0  5 19 13 06 15 02
  23735507.548    14552039.801 2  11339238.521 1
  24268469.586    -3048950.167 2  -2375805.511 1
  21964115.459   -14377692.629 3 -11203356.184 2
  24947039.023    -1298621.094 2  -1011906.859 1
  21492435.201      590010.333 4    459782.046 3
 91  4 30 22 17  0.0020000  0  5 19 13 06 15 02
  23743537.493    14594233.670 2  11372116.813 1
  24258322.511    -3102257.877 2  -2417343.788 1
  21961023.996   -14393942.048 3 -11216018.042 2
  24944089.963    -1314037.018 2  -1023919.127 1
  21493792.060      597135.482 4    465334.139 3
 91  4 30 22 17 15.0020000  0  5 19 13 06 15 02
  23751579.120    14636490.948 2  11405044.507 1
  24248189.231    -3155518.658 2  -2458845.895 1
  21957943.334   -14410141.304 3 -11228640.808 2
  24941159.792    -1329348.734 2  -1035850.292 1
  21495157.313      604322.769 4    470934.646 3
 91  4 30 22 17 30.0020000  0  5 19 13 06 15 02
  23759631.846    14678811.162 2  11438021.206 1
  24238062.241    -3208732.731 2  -2500311.183 1
  21954868.658   -14426290.365 3 -11241224.464 2
  24938284.485    -1344556.305 2  -1047700.275 1
  21496539.955      611571.580 4    476583.079 3
 91  4 30 22 17 45.0020000  0  5 19 13 06 15 02
  23767694.170    14721194.472 2  11471047.116 1
  24227943.942    -3261899.448 2  -2541740.024 1
  21951802.681   -14442388.977 3 -11253768.806 2
  24935416.367    -1359659.196 2  -1059468.722 1
  21497930.091      618882.115 4    482279.624 3
 91  4 30 22 18  0.0020000  0  5 19 13 06 15 02
  23775770.279    14763641.398 2  11504122.575 1
  24217827.745    -3315017.935 2  -2583130.810 1
  21948751.694   -14458436.277 3 -11266273.174 2
  24932549.453    -1374656.558 2  -1071154.898 1
  21499331.623      626254.766 4    488024.563 3
 91  4 30 22 18 15.0020000  0  5 19 13 06 15 02
  23783849.982    14806152.300 2  11537247.881 1
  24207732.838    -3368087.486 2  -2624483.930 1
  21945707.006   -14474432.083 3 -11278737.409 2
  24929727.212    -1389548.178 2  -1082758.614 1
  21500745.745      633689.423 4    493817.821 3
 91  4 30 22 18 30.0020000  0  5 19 13 06 15 02
  23791953.977    14848726.342 2  11570422.362 1
  24197641.220    -3421108.349 2  -2665798.684 1
  21942672.501   -14490376.703 3 -11291161.752 2
  24926915.458    -1404334.242 2  -1094280.156 1
  21502171.559      641185.498 4    499658.936 3
 91  4 30 22 18 45.0020000  0  5 19 13 06 15 02
  23800068.459    14891364.213 2  11603646.618 1
  24187569.094    -3474079.650 2  -2707075.174 1
  21939646.703   -14506269.077 3 -11303545.392 2
  24924127.987    -1419013.388 2  -1105718.418 1
  21503612.659      648743.800 4    505548.541 3
 91  4 30 22 19  0.0020000  0  5 19 13 06 15 02
  23808211.115    14934065.939 2  11636920.606 1
  24177492.771    -3527000.884 2  -2748312.295 1
  21936634.385   -14522108.934 3 -11315888.111 2
  24921339.320    -1433585.434 2  -1117073.211 1
  21505064.255      656364.322 4    511486.627 3
 91  4 30 22 19 15.0020000  0  5 19 13 06 15 02
  23816330.701    14976832.159 2  11670244.862 1
  24167428.733    -3579870.895 2  -2789509.956 1
  21933630.766   -14537895.586 3 -11328189.368 2
  24918596.512    -1448049.581 2  -1128343.918 1
  21506522.142      664047.607 4    517473.619 3
 91  4 30 22 19 30.0020000  0  5 19 13 06 15 02
  23824487.448    15019663.630 2  11703619.958 1
  24157378.795    -3632688.498 2  -2830666.280 1
  21930635.838   -14553627.821 3 -11340448.219 2
  24915858.808    -1462404.793 2  -1139529.715 1
  21507997.122      671794.379 4    523510.084 3
 91  4 30 22 19 45.0020000  0  5 19 13 06 15 02
  23832658.896    15062560.454 2  11737045.983 1
  24147341.142    -3685452.949 2  -2871781.583 1
  21927652.601   -14569305.119 3 -11352664.259 2
  24913162.776    -1476650.304 2  -1150630.028 1
  21509484.692      679604.784 4    529596.130 3
 91  4 30 22 20  0.0020000  0  5 19 13 06 15 02
  23840827.343    15105523.456 2  11770523.571 1
  24137311.891    -3738163.127 2  -2912854.226 1
  21924678.665   -14584926.470 3 -11364836.722 2
  24910450.855    -1490785.067 2  -1161644.079 1
  21510983.055      687479.570 4    535732.342 3
 91  4 30 22 20 15.0020000  0  5 19 13 06 15 02
  23849011.076    15148550.282 2  11804050.898 1
  24127287.430    -3790820.733 2  -2953885.916 1
  21921717.311   -14600494.210 3 -11376967.401 2
  24907795.595    -1504811.114 2  -1172573.420 1
  21512493.415      695416.319 4    541916.845 3
 91  4 30 22 20 30.0020000  0  5 19 13 06 15 02
  23857214.895    15191641.543 2  11837628.427 1
  24117280.655    -3843424.855 2  -2994876.054 1
  21918766.156   -14616007.189 3 -11389055.394 2
  24905141.530    -1518727.457 2  -1183417.534 1
  21514015.754      703415.692 4    548150.136 3
 91  4 30 22 20 45.0020000  0  5 19 13 06 15 02
  23865421.409    15234797.349 2  11871256.242 1
  24107274.482    -3895975.104 2  -3035824.290 1
  21915823.089   -14631465.133 3 -11401100.517 2
  24902513.545    -1532533.657 2  -1194175.809 1
  21515549.794      711477.754 4    554432.276 3
 91  4 30 22 21  0.0020000  0  5 19 13 06 15 02
  23873641.125    15278017.851 2  11904934.464 1
  24097288.996    -3948470.818 2  -3076729.942 1
  21912889.324   -14646867.681 3 -11413102.479 2
  24899913.750    -1546229.342 2  -1204847.718 1
  21517094.627      719602.469 4    560763.243 3
 91  4 30 22 21 15.0020000  0  5 19 13 06 15 02
  23881887.513    15321302.319 2  11938662.544 1
  24087308.004    -4000912.192 2  -3117593.478 1
  21909973.244   -14662215.271 3 -11425061.603 2
  24897313.651    -1559814.804 2  -1215433.632 1
  21518653.246      727789.345 4    567142.646 3
 91  4 30 22 21 30.0020000  0  5 19 13 06 15 02
  23890127.907    15364650.513 2  11972440.276 1
  24077341.399    -4053298.978 2  -3158414.165 1
  21907064.354   -14677507.868 3 -11436977.888 2
  24894753.424    -1573289.782 2  -1225933.601 1
  21520223.556      736038.077 4    573570.240 3
 91  4 30 22 21 45.0020000  0  5 19 13 06 15 02
  23898405.183    15408063.040 2  12006268.134 1
  24067377.499    -4105630.164 2  -3199191.930 1
  21904161.467   -14692744.717 3 -11448850.730 2
  24892209.680    -1586653.248 2  -1236346.607 1
  21521805.261      744349.036 4    580046.325 3
 91  4 30 22 22  0.0020000  0  5 19 13 06 15 02
  23906678.854    15451538.322 2  12040144.914 1
  24057436.686    -4157907.075 2  -3239927.405 1
  21901275.061   -14707926.905 3 -11460680.980 2
  24889699.518    -1599906.590 2  -1246673.746 1
  21523396.259      752720.741 4    586569.752 3
 91  4 30 22 22 15.0020000  0  5 19 13 06 15 02
  23914965.116    15495076.243 2  12074070.476 1
  24047490.167    -4210129.500 2  -3280619.974 1
  21898394.955   -14723054.443 3 -11472468.637 2
  24887203.151    -1613049.825 2  -1256915.284 1
  21524999.253      761153.235 4    593140.540 3
 91  4 30 22 22 30.0020000  0  5 19 13 06 15 02
  23923258.873    15538677.269 2  12108045.225 1
  24037568.235    -4262296.279 2  -3321269.640 1
  21895526.541   -14738126.648 3 -11484213.183 3
  24884722.062    -1626082.251 2  -1267070.285 1
  21526620.230      769646.697 4    599758.824 3
 91  4 30 22 22 45.0020000  0  5 19 13 06 15 02
  23931564.322    15582338.942 2  12142067.261 1
  24027650.203    -4314409.226 2  -3361877.329 1
  21892668.919   -14753145.344 3 -11495916.037 2
  24882257.472    -1639005.445 2  -1277140.239 1
  21528245.404      778198.911 4    606422.910 3
 91  4 30 22 23  0.0020000  0  5 19 13 06 15 02
  23939872.475    15626061.886 2  12176136.975 1
  24017745.660    -4366467.447 2  -3402442.190 1
  21889819.997   -14768109.824 3 -11507576.637 2
  24879807.871    -1651818.661 2  -1287124.541 1
  21529883.176      786810.293 4    613133.086 3
 91  4 30 22 23 15.0020000  0  5 19 13 06 15 02
  23948219.290    15669846.333 2  12210254.601 1
  24007845.916    -4418470.169 2  -3442963.870 1
  21886981.256   -14783019.483 3 -11519194.522 2
  24877402.935    -1664521.124 2  -1297022.362 1
  21531533.234      795481.120 4    619889.584 3
 91  4 30 22 23 30.0020000  0  5 19 13 06 15 02
  23956558.923    15713689.913 2  12244418.363 1
  23997961.161    -4470419.511 2  -3483443.660 1
  21884155.115   -14797876.636 3 -11530771.498 3
  24874999.499    -1677115.119 2  -1306835.877 1
  21533196.179      804208.988 4    626690.531 3
 91  4 30 22 23 45.0020000  0  5 19 13 06 15 02
  23964916.836    15757594.002 2  12278629.236 1
  23988087.497    -4522313.736 2  -3523880.524 1
  21881338.563   -14812679.507 3 -11542306.178 2
  24872632.638    -1689598.633 2  -1316563.148 1
  21534865.423      812995.266 4    633536.991 3
 91  4 30 22 24  0.0020000  0  5 19 13 06 15 02
  23973294.834    15801558.581 2  12312887.253 1
  23978225.820    -4574152.193 2  -3564274.323 1
  21878534.304   -14827427.888 3 -11553798.382 2
  24870275.969    -1701971.627 2  -1326204.412 1
  21536551.760      821840.027 4    640429.029 3
 91  4 30 22 24 15.0020000  0  5 19 13 06 15 02
  23981657.545    15845582.953 2  12347191.873 1
  23968363.550    -4625935.332 2  -3604624.572 1
  21875735.743   -14842122.248 3 -11565248.507 2
  24867928.295    -1714234.406 2  -1335759.846 1
  21538244.684      830742.426 4    647365.970 3
 91  4 30 22 24 30.0020000  0  5 19 13 06 15 02
  23990055.026    15889665.510 2  12381541.797 1
  23958523.757    -4677664.345 2  -3644932.685 1
  21872949.772   -14856763.940 3 -11576657.595 2
  24865636.977    -1726388.368 2  -1345230.299 1
  21539948.401      839700.784 4    654346.517 3
 91  4 30 22 24 45.0020000  0  5 19 13 06 15 02
  23998443.520    15933808.283 2  12415938.663 1
  23948691.763    -4729336.532 2  -3685196.498 1
  21870172.491   -14871350.570 3 -11588023.774 2
  24863329.474    -1738430.986 2  -1354614.063 1
  21541665.319      848717.283 4    661372.376 3
 91  4 30 22 25  0.0020000  0  5 19 13 06 15 02
  24006859.595    15978013.419 2  12450384.134 1
  23938871.766    -4780949.185 2  -3725414.325 1
  21867408.708   -14885879.532 3 -11599345.004 2
  24861065.439    -1750359.929 2  -1363909.354 1
  21543393.021      857794.125 4    668445.251 3
 91  4 30 22 25 15.0020000  0  5 19 13 06 15 02
  24015294.262    16022282.070 2  12484879.140 1
  23929058.959    -4832500.928 2  -3765584.354 1
  21864657.515   -14900349.706 3 -11610620.434 2
  24858815.800    -1762173.810 2  -1373114.880 1
  21545130.915      866932.262 4    675565.883 3
 91  4 30 22 25 30.0020000  0  5 19 13 06 15 02
  24023713.032    16066615.282 2  12519424.389 1
  23919259.344    -4883990.283 2  -3805706.134 1
  21861914.411   -14914759.586 3 -11621848.892 3
  24856586.840    -1773870.958 2  -1382229.348
  21546882.001      876132.732 4    682735.099 3
 91  4 30 22 25 45.0020000  0  5 19 13 06 15 02
  24032159.086    16111013.725 2  12554020.491 1
  23909475.313    -4935416.018 2  -3845777.942 1
  21859182.100   -14929108.208 3 -11633029.600 2
  24854389.361    -1785450.197 2  -1391252.104 1
  21548644.481      885396.176 4    689953.377 3
 91  4 30 22 26  0.0020000  0  5 19 13 06 15 02
  24040622.224    16155477.458 2  12588667.450 1
  23899702.379    -4986777.685 2  -3885799.806
  21856464.185   -14943395.274 3 -11644162.352 2
  24852194.586    -1796911.192 2  -1400182.626 1
  21550418.357      894722.665 4    697220.779 3
 91  4 30 22 26 15.0020000  0  5 19 13 06 15 02
  24049101.555    16200009.813 2  12623367.889 1
  23889939.637    -5038071.347 2  -3925768.697 1
  21853757.062   -14957616.863 3 -11655244.087 2
  24850051.367    -1808250.298 2  -1409018.265 1
  21552206.315      904115.788 4    704540.108 3
 91  4 30 22 26 30.0020000  0  5 19 13 06 15 02
  24057587.177    16244610.970 2  12658121.956 1
  23880193.088    -5089296.615 2  -3965684.652 1
  21851061.021   -14971773.005 3 -11666274.818 3
  24847918.043    -1819467.396 2  -1417758.761 1
  21554006.575      913575.278 4    711911.148 3
 91  4 30 22 26 45.0020000  0  5 19 13 06 15 02
  24066092.291    16289279.087 2  12692928.217 1
  23870455.527    -5140454.572 2  -4005547.855 1
  21848382.980   -14985865.163 3 -11677255.693 2
  24845800.014    -1830563.674 2  -1426405.167 1
  21555818.519      923099.433 4    719332.588 3
 91  4 30 22 27  0.0020000  0  5 19 13 06 15 02
  24074600.703    16334016.748 2  12727788.642 1
  23860731.157    -5191542.509 2  -4045356.458 1
  21845714.231   -14999890.308 3 -11688184.347 3
  24843719.451    -1841536.295 2  -1434955.240 1
  21557644.850      932690.984 4    726806.531 3
 91  4 30 22 27 15.0020000  0  5 19 13 06 15 02
  24083127.996    16378824.070 2  12762703.337 1
  23851032.876    -5242559.514 2  -4085110.191 1
  21843056.266   -15013847.660 3 -11699060.185 3
  24841636.794    -1852384.704 2  -1443408.395 1
  21559481.381      942350.129 4    734333.149 3
 91  4 30 22 27 30.0020000  0  5 19 13 06 15 02
  24091666.990    16423699.456 2  12797671.131 1
  23841331.593    -5293507.119 2  -4124809.479 1
  21840416.598   -15027739.003 3 -11709884.579 3
  24839607.194    -1863110.215 2  -1451765.862 1
  21561333.503      952075.058 4    741911.031 3
 91  4 30 22 27 45.0020000  0  5 19 13 06 15 02
  24100222.160    16468643.242 2  12832692.165 1
  23831650.692    -5344384.124 2  -4164453.651 1
  21837785.620   -15041563.548 3 -11720656.932 2
  24837591.397    -1873712.178 2  -1460027.079 1
  21563197.910      961866.179 4    749540.483 3
 91  4 30 22 28  0.0020000  0  5 19 13 06 15 02
  24108790.827    16513654.505 2  12867765.822 1
  23821983.586    -5395191.144 2  -4204043.337 1
  21835166.325   -15055322.068 3 -11731377.830 2
  24835600.772    -1884191.224 2  -1468192.496 1
  21565072.212      971722.623 4    757220.843 3
 91  4 30 22 28 15.0020000  0  5 19 13 06 15 02
  24117373.289    16558733.587 2  12902892.309 1
  23812320.370    -5445927.405 2  -4243577.888 1
  21832560.231   -15069013.863 3 -11742046.738 2
  24833623.636    -1894546.488 2  -1476261.498 1
  21566958.808      981644.647 4    764952.308 3
 91  4 30 22 28 30.0020000  0  5 19 13 06 15 02
  24125956.650    16603880.156 2  12938071.394 1
  23802691.044    -5496592.860 2  -4283057.687 1
  21829965.532   -15082638.832 3 -11752663.582 2
  24831678.583    -1904778.243 2  -1484234.136 1
  21568860.087      991631.878 4    772734.575 3
 91  4 30 22 28 45.0020000  0  5 19 13 06 15 02
  24134563.691    16649091.974 2  12973301.231 1
  23793059.012    -5547189.485 2  -4322483.413 1
  21827386.119   -15096198.964 3 -11763229.893 2
  24829765.009    -1914888.225 2  -1492112.009 1
  21570773.661     1001682.045 4    780565.889 3
 91  4 30 22 29  0.0020000  0  5 19 13 06 15 02
  24143188.121    16694369.479 2  13008582.357 1
  23783441.961    -5597716.541 2  -4361854.986 1
  21824822.289   -15109693.727 3 -11773745.270 3
  24827854.132    -1924875.803 2  -1499894.516 1
  21572693.839     1011795.672 4    788446.660 3
 91  4 30 22 29 15.0020000  0  5 19 13 06 15 02
  24151804.454    16739711.484 2  13043913.691 1
  23773842.309    -5648174.345 2  -4401172.512 1
  21822262.063   -15123123.945 3 -11784210.354 2
  24825977.736    -1934741.563 2  -1507582.046 1
  21574633.789     1021971.676 4    796376.022 3
 91  4 30 22 29 30.0020000  0  5 19 13 06 15 02
  24160446.569    16785120.161 2  13079296.981 1
  23764250.448    -5698560.447 2  -4440434.250 1
  21819721.024   -15136487.189 3 -11794623.258 2
  24824127.717    -1944483.274 2  -1515172.881 1
  21576583.039     1032211.984 4    804355.493 3
 91  4 30 22 29 45.0020000  0  5 19 13 06 15 02
  24169102.776    16830593.164 2  13114730.434 1
  23754684.378    -5748876.588 2  -4479641.840 1
  21817190.471   -15149785.515 3 -11804985.564 2
  24822275.899    -1954102.921 2  -1522668.684 1
  21578542.184     1042514.484 4    812383.433 3
 91  4 30 22 30  0.0020000  0  5 19 13 06 15 02
  24177762.883    16876130.461 2  13150213.962 1
  23745118.596    -5799122.308 2  -4518794.109 1
  21814672.213   -15163018.303 3 -11815296.799 2
  24820478.640    -1963600.185 2  -1530069.099 1
  21580516.920     1052879.085 4    820459.759 3
 91  4 30 22 30 15.0020000  0  5 19 13 06 15 02
  24186456.564    16921733.209 2  13185748.514 1
  23735572.908    -5849296.015 2  -4557890.749 1
  21812165.053   -15176184.366 3 -11825556.052 3
  24818696.075    -1972973.634 2  -1537372.976 1
  21582500.347     1063306.912 4    828585.348 3
 91  4 30 22 30 30.0020000  0  5 19 13 06 15 02
  24195132.559    16967401.484 2  13221334.082 1
  23726036.504    -5899397.200 2  -4596930.435 1
  21809674.078   -15189283.385 3 -11835763.058 3
  24816945.582    -1982222.702 2  -1544579.967 1
  21584495.168     1073798.075 4    836760.296 3
 91  4 30 22 30 45.0020000  0  5 19 13 06 15 02
  24203838.534    17013133.957 2  13256969.697 1
  23716515.700    -5949426.718 2  -4635914.330 1
  21807192.099   -15202316.314 3 -11845918.562 2
  24815204.993    -1991348.400 2  -1551690.916 1
  21586504.971     1084351.263 4    844983.575 3
 91  4 30 22 31  0.0020000  0  5 19 13 06 15 02
  24212562.194    17058929.672 2  13292654.604 1
  23707006.884    -5999385.201 2  -4674843.179 1
  21804725.100   -15215283.868 3 -11856023.123 2
  24813498.274    -2000351.503 2  -1558706.204 1
  21588526.177     1094965.481 4    853254.401 3
 91  4 30 22 31 15.0020000  0  5 19 13 06 15 02
  24221280.157    17104789.510 2  13328389.425 1
  23697515.754    -6049271.228 2  -4713715.237 1
  21802269.506   -15228184.713 3 -11866075.713 2
  24811796.948    -2009230.719 2  -1565625.023 1
  21590554.268     1105641.525 4    861573.405 3
 91  4 30 22 31 30.0020000  0  5 19 13 06 15 02
  24230006.217    17150712.763 2  13364173.725 1
  23688030.322    -6099084.992 2  -4752530.977 1
  21799826.798   -15241019.114 3 -11876076.525 2
  24810136.699    -2017986.629 2  -1572447.723 1
  21592598.255     1116378.851 4    869940.162 3
 91  4 30 22 31 45.0020000  0  5 19 13 06 15 02
  24238776.644    17196698.440 2  13400006.598 1
  23678570.664    -6148827.308 2  -4791291.012 1
  21797397.274   -15253788.155 3 -11886026.400 2
  24808486.938    -2026619.881 2  -1579174.918 1
  21594653.036     1127176.296 4    878353.770 3
 91  4 30 22 32  0.0020000  0  5 19 13 06 15 02
  24247523.985    17242746.576 2  13435888.172 1
  23669117.314    -6198497.476 2  -4829994.797 1
  21794980.951   -15266491.291 3 -11895924.922 2
  24806876.754    -2035130.017 2  -1585806.026 1
  21596721.000     1138033.993 4    886814.325 3
 91  4 30 22 32 15.0020000  0  5 19 13 06 15 02
  24256304.611    17288857.562 2  13471818.719 1
  23659679.547    -6248094.859 2  -4868642.324 1
  21792576.311   -15279128.081 3 -11905771.749 3
  24805282.459    -2043516.249 2  -1592340.728 1
  21598797.367     1148952.234 4    895322.060 3
 91  4 30 22 32 30.0020000  0  5 19 13 06 15 02
  24265100.821    17335030.421 2  13507797.498 1
  23650254.073    -6297619.500 2  -4907232.805 1
  21790184.270   -15291698.690 3 -11915567.010 2
  24803705.552    -2051779.138 2  -1598779.358 1
  21600887.519     1159930.337 4    903876.438 3
 91  4 30 22 32 45.0020000  0  5 19 13 06 15 02
  24273892.232    17381265.020 2  13543824.374 1
  23640841.487    -6347071.438 2  -4945766.555 1
  21787803.921   -15304203.211 3 -11925310.765 2
  24802161.321    -2059918.624 2  -1605121.703 1
  21602986.963     1170967.983 4    912477.205 3
 91  4 30 22 33  0.0020000  0  5 19 13 06 15 02
  24282703.135    17427558.690 2  13579897.288 1
  23631449.291    -6396452.863 2  -4984245.375 1
  21785439.451   -15316643.881 3 -11935004.771 2
  24800630.580    -2067937.022 2  -1611369.690 1
  21605097.201     1182062.527 4    921122.316 3
 91  4 30 22 33 15.0020000  0  5 19 13 06 15 02
  24291533.521    17473912.557 2  13616017.092 1
  23622057.689    -6445762.108 2  -5022667.932 1
  21783084.283   -15329019.577 3 -11944648.144 3
  24799127.121    -2075833.096 2  -1617522.460 1
  21607220.334     1193215.113 4    929812.653 3
 91  4 30 22 33 30.0030000  0  5 19 13 06 15 02
  24300351.015    17520329.551 2  13652186.110 1
  23612694.271    -6495002.260 2  -5061036.686 1
  21780737.205   -15341330.919 3 -11954241.373 2
  24797648.245    -2083607.118 2  -1623580.080 1
  21609354.254     1204426.158 4    938548.545 3
 91  4 30 22 33 45.0030000  0  5 19 13 06 15 02
  24309193.694    17566802.613 2  13688398.769 1
  23603333.853    -6544167.216 2  -5099346.797 1
  21778410.219   -15353576.702 3 -11963783.515 2
  24796193.655    -2091258.581 2  -1629542.168 1
  21611497.176     1215693.510 4    947328.303 3
 91  4 30 22 34  0.0030000  0  5 19 13 06 15 02
  24318061.555    17613334.463 2  13724657.286 1
  23593992.018    -6593260.000 2  -5137600.756 1
  21776092.228   -15365757.688 3 -11973275.172 3
  24794758.846    -2098787.914 2  -1635409.169 1
  21613652.679     1227017.659 4    956152.324 3
 91  4 30 22 34 15.0030000  0  5 19 13 06 15 02
  24326919.224    17659926.619 2  13760962.802 1
  23584666.072    -6642278.665 2  -5175797.290 1
  21773786.225   -15377872.182 3 -11982715.019 3
  24793357.018    -2106193.368 2  -1641179.578 1
  21615818.382     1238400.044 4    965021.733 3
 91  4 30 22 34 30.0030000  0  5 19 13 06 15 02
  24335796.080    17706578.762 2  13797315.068 1
  23575353.022    -6691223.105 2  -5213935.669 1
  21771492.813   -15389920.146 3 -11992103.018 3
  24791971.078    -2113475.132 2  -1646853.590 1
  21617997.269     1249840.292 4    973936.230 3
 91  4 30 22 34 45.0030000  0  5 19 13 06 15 02
  24344692.716    17753289.762 2  13833713.131 1
  23566054.656    -6740094.053 2  -5252017.157 1
  21769212.890   -15401902.456 3 -12001439.860 2
  24790603.120    -2120633.846 2  -1652431.750 1
  21620183.956     1261337.276 4    982894.915 3
 91  4 30 22 35  0.0030000  0  5 19 13 06 15 02
  24353583.663    17800060.278 2  13870157.609 1
  23556767.388    -6788890.308 2  -5290040.063
  21766945.557   -15413818.082 3 -12010724.744 3
  24789267.847    -2127668.661 2  -1657913.279 1
  21622380.833     1272891.756 4    991898.424 3
 91  4 30 22 35 15.0030000  0  5 19 13 06 15 02
  24362503.394    17846889.411 2  13906647.776 1
  23547491.812    -6837612.119 2  -5328004.887 1
  21764689.619   -15425667.405 3 -12019957.955 3
  24787952.659    -2134579.949 2  -1663298.669 1
  21624592.709     1284502.927 4   1000946.095 3
 91  4 30 22 35 30.0030000  0  5 19 13 06 15 02
  24371415.622    17893778.296 2  13943184.501 1
  23538235.423    -6886258.229 2  -5365910.786 1
  21762446.568   -15437449.225 3 -12029138.576 3
  24786652.156    -2141366.438 2  -1668586.756 1
  21626813.869     1296171.771 4   1010038.708 3
 91  4 30 22 35 45.0030000  0  5 19 13 06 15 02
  24380352.436    17940726.389 2  13979767.370 1
  23528993.717    -6934828.550 2  -5403758.035 1
  21760219.711   -15449163.717 3 -12038266.727 3
  24785385.235    -2148028.091 2  -1673777.611 1
  21629044.923     1307897.958 4   1019176.014 3
 91  4 30 22 36  0.0030000  0  5 19 13 06 15 02
  24389296.441    17987732.943 2  14016395.729 1
  23519770.300    -6983323.767 2  -5441546.329 1
  21758002.748   -15460811.197 3 -12047342.659 2
  24784142.596    -2154565.511 2  -1678871.651 1
  21631286.473     1319680.632 4   1028357.333 3
 91  4 30 22 36 15.0030000  0  5 19 13 06 15 02
  24398261.735    18034797.168 2  14053069.074 1
  23510552.284    -7031743.804 2  -5479276.075 1
  21755800.774   -15472392.340 3 -12056366.903 3
  24782916.745    -2160978.930 2  -1683869.000 1
  21633538.215     1331519.014 4   1037582.050 3
 91  4 30 22 36 30.0030000  0  5 19 13 06 15 02
  24407233.624    18081919.012 2  14089787.278 1
  23501348.358    -7080088.268 2  -5516946.890 1
  21753607.788   -15483906.796 3 -12065339.184 3
  24781728.367    -2167268.518 2  -1688769.948 1
  21635800.749     1343412.976 4   1046850.083 3
 91  4 30 22 36 45.0030000  0  5 19 13 06 15 02
  24416195.620    18129097.091 2  14126549.372 1
  23492167.808    -7128358.069 2  -5554559.554 1
  21751430.097   -15495355.645 3 -12074260.341 3
  24780551.978    -2173435.188 2  -1693575.039 1
  21638077.069     1355361.431 4   1056160.583 3
 91  4 30 22 37  0.0030000  0  5 19 13 06 15 02
  24425183.102    18176334.573 2  14163357.682 1
  23482996.261    -7176549.873 2  -5592111.830 1
  21749262.902   -15506735.413 3 -12083127.665 2
  24779399.575    -2179475.604 2  -1698281.837 1
  21640362.087     1367367.278 4   1065515.799 3
 91  4 30 22 37 15.0030000  0  5 19 13 06 15 02
  24434190.363    18223628.123 2  14200209.736 1
  23473840.298    -7224666.506 2  -5629605.175 1
  21747109.789   -15518049.057 3 -12091943.470 3
  24778279.550    -2185392.788 2  -1702892.506 1
  21642654.898     1379427.225 4   1074913.170 3
 91  4 30 22 37 30.0030000  0  5 19 13 06 15 02
  24443200.626    18270978.132 2  14237105.742 1
  23464701.723    -7272706.966 2  -5667039.069 1
  21744973.769   -15529295.944 3 -12100707.256 2
  24777182.612    -2191185.916 2  -1707406.587 1
  21644959.408     1391541.900 4   1084353.198 3
 91  4 30 22 37 45.0030000  0  5 19 13 06 15 02
  24452224.378    18318384.111 2  14274045.383 1
  23455571.542    -7320671.057 2  -5704413.489 1
  21742842.539   -15540476.062 3 -12109419.009 2
  24776091.964    -2196854.925 2  -1711823.931 1
  21647277.102     1403710.874 4   1093835.529 3
 91  4 30 22 38  0.0030000  0  5 19 13 06 15 02
  24461251.131    18365846.662 2  14311029.096 1
  23446459.649    -7368557.795 2  -5741727.625 1
  21740728.707   -15551588.302 3 -12118077.866 2
  24775041.496    -2202398.845 2  -1716143.756 1
  21649602.292     1415934.826 4   1103360.699 3
 91  4 30 22 38 15.0030000  0  5 19 13 06 15 02
  24470297.961    18413364.397 2  14348055.817 1
  23437354.955    -7416368.251 2  -5778982.411 1
  21738627.160   -15562634.043 3 -12126684.911 3
  24774014.403    -2207819.053 2  -1720367.306 1
  21651940.071     1428212.280 4   1112927.562 3
 91  4 30 22 38 30.0030000  0  5 19 13 06 15 02
  24479352.294    18460938.801 2  14385126.681 1
  23428277.543    -7464100.404 2  -5816176.108 1
  21736537.305   -15573611.455 3 -12135238.718 3
  24773005.003    -2213113.777 2  -1724492.949 1
  21654285.354     1440544.718 4   1122537.268 3
 91  4 30 22 38 45.0030000  0  5 19 13 06 15 02
  24488406.331    18508569.932 2  14422241.755 1
  23419205.524    -7511753.895 2  -5853308.461 1
  21734463.041   -15584520.113 3 -12143738.948 3
  24772009.695    -2218282.657 2  -1728520.583 1
  21656642.922     1452932.079 4   1132189.769 3
 91  4 30 22 39  0.0030000  0  5 19 13 06 15 02
  24497475.951    18556258.776 2  14459401.815 1
  23410151.488    -7559327.095 2  -5890378.383 1
  21732401.367   -15595358.842 3 -12152184.678 2
  24771061.154    -2223324.520 2  -1732449.282 1
  21659010.978     1465375.329 4   1141885.824 3
 91  4 30 22 39 15.0030000  0  5 19 13 06 15 02
  24506575.847    18604004.112 2  14496605.861 1
  23401122.038    -7606820.913 2  -5927386.354 1
  21730349.588   -15606128.546 3 -12160576.632 3
  24770122.201    -2228240.488 2  -1736279.801 1
  21661387.436     1477873.369 4   1151624.569 3
 91  4 30 22 39 30.0030000  0  5 19 13 06 15 02
  24515658.066    18651806.567 2  14533854.442 1
  23392096.192    -7654234.159 2  -5964331.562 1
  21728314.605   -15616828.036 3 -12168913.883 3
  24769214.729    -2233029.242 2  -1740011.268 1
  21663777.383     1490427.149 4   1161406.741 3
 91  4 30 22 39 45.0030000  0  5 19 13 06 15 02
  24524770.552    18699666.396 2  14571147.699 1
  23383082.928    -7701566.265 2  -6001213.553 1
  21726292.203   -15627456.929 3 -12177196.104 2
  24768327.045    -2237690.305 2  -1743643.176 1
  21666178.114     1503036.788 4   1171232.443 3
 91  4 30 22 40  0.0030000  0  5 19 13 06 15 02
  24533887.540    18747582.215 2  14608484.616 1
  23374093.954    -7748818.136 2  -6038033.000 1
  21724282.095   -15638016.036 3 -12185423.944 2
  24767463.041    -2242224.664 2  -1747176.370 1
  21668585.450     1515700.745 4   1181100.477 3
 91  4 30 22 40 15.0030000  0  5 19 13 06 15 02
  24543019.824    18795554.184 2  14645865.240 1
  23365113.671    -7795989.112 2  -6074789.444 1
  21722284.272   -15648504.972 3 -12193597.121 3
  24766628.423    -2246631.972 2  -1750610.562 1
  21671008.674     1528419.292 4   1191011.052 3
 91  4 30 22 40 30.0030000  0  5 19 13 06 15 02
  24552164.392    18843581.103 2  14683288.762 1
  23356156.771    -7843079.964 2  -6111483.441 1
  21720302.652   -15658924.760 3 -12201716.413 3
  24765810.584    -2250913.174 2  -1753946.462 1
  21673438.190     1541191.288 4   1200963.262 3
 91  4 30 22 40 45.0030000  0  5 19 13 06 15 02
  24561321.254    18891665.308 2  14720756.854 1
  23347211.266    -7890087.839 2  -6148112.758 1
  21718333.011   -15669272.741 3 -12209779.740 2
  24765023.335    -2255065.419 2  -1757182.001 1
  21675880.304     1554019.124 4   1210958.988 3
 91  4 30 22 41  0.0030000  0  5 19 13 06 15 02
  24570469.714    18939804.553 2  14758267.862 1
  23338277.147    -7937014.424 2  -6184678.827 1
  21716375.367   -15679550.620 3 -12217788.444 3
  24764258.858    -2259090.711 2  -1760318.480 1
  21678333.499     1566900.632 4   1220996.547 3
 91  4 30 22 41 15.0030000  0  5 19 13 06 15 02
  24579639.167    18988000.044 2  14795822.659 1
  23329367.319    -7983858.304 2  -6221180.351 1
  21714433.908   -15689756.946 3 -12225741.403 3
  24763505.183    -2262987.822 2  -1763355.118 1
  21680790.900     1579836.878 4   1231076.748 3
 91  4 30 22 41 30.0030000  0  5 19 13 06 15 02
  24588822.710    19036251.463 2  14833421.086 1
  23320471.276    -8030618.960 2  -6257617.060 1
  21712507.142   -15699891.697 3 -12233638.593 3
  24762794.078    -2266756.593 2  -1766291.766 1
  21683264.189     1592827.741 4   1241199.504 3
 91  4 30 22 41 45.0030000  0  5 19 13 06 15 02
  24598020.642    19084557.364 2  14871061.986 1
  23311588.426    -8077297.600 2  -6293989.834 1
  21710592.670   -15709955.893 3 -12241480.795 3
  24762100.354    -2270398.133 2  -1769129.316 1
  21685746.169     1605871.879 4   1251363.780 3
 91  4 30 22 42  0.0030000  0  5 19 13 06 15 02
  24607217.378    19132919.296 2  14908746.508 1
  23302719.065    -8123892.368 2  -6330297.329 1
  21708692.289   -15719947.664 3 -12249266.568 3
  24761439.610    -2273910.629 2  -1771866.279 1
  21688238.644     1618970.783 4   1261570.729 3
 91  4 30 22 42 15.0030000  0  5 19 13 06 15 02
  24616436.293    19181336.124 2  14946473.776 1
  23293868.288    -8170403.780 2  -6366539.776 1
  21706804.795   -15729868.059 3 -12256996.727 3
  24760791.762    -2277294.988 2  -1774503.411 1
  21690739.810     1632123.314 4   1271819.460 3
 91  4 30 22 42 30.0030000  0  5 19 13 06 15 02
  24625666.306    19229806.908 2  14984243.119 1
  23285031.009    -8216832.336 2  -6402717.717 1
  21704927.195   -15739717.476 3 -12264671.573 3
  24760160.701    -2280552.017 2  -1777041.193 1
  21693254.770     1645328.599 4   1282109.305 3
 91  4 30 22 42 45.0030000  0  5 19 13 06 15 02
  24634897.218    19278330.534 2  15022053.648 1
  23276213.214    -8263178.570 2  -6438831.513 1
  21703065.178   -15749496.750 3 -12272291.762 3
  24759571.302    -2283682.331 2  -1779480.472 1
  21695777.226     1658585.706 4   1292439.532 3
 91  4 30 22 43  0.0030000  0  5 19 13 06 15 02
  24644145.511    19326907.027 2  15059905.359 1
  23267408.008    -8309442.099 2  -6474880.826 1
  21701220.856   -15759205.507 3 -12279857.009 2
  24759001.998    -2286685.634 2  -1781820.640 1
  21698308.676     1671894.633 4   1302810.132 3
 91  4 30 22 43 15.0030000  0  5 19 13 06 15 02
  24653384.520    19375536.747 2  15097798.571 1
  23258621.091    -8355621.949 2  -6510865.039 1
  21699386.131   -15768843.090 3 -12287366.793 3
  24758451.278    -2289561.183 2  -1784061.232 1
  21700851.810     1685255.827 4   1313221.457 3
 91  4 30 22 43 30.0030000  0  5 19 13 06 15 02
  24662657.993    19424218.407 2  15135732.222 1
  23249848.561    -8401719.081 2  -6546784.671 1
  21697565.786   -15778410.526 3 -12294821.919 2
  24757929.638    -2292310.188 2  -1786203.259 1
  21703405.449     1698667.643 4   1323672.240 3
 91  4 30 22 43 45.0030000  0  5 19 13 06 15 02
  24671923.082    19472952.310 2  15173706.584 1
  23241095.226    -8447732.823 2  -6582639.342 1
  21695759.234   -15787906.891 3 -12302221.665 3
  24757433.782    -2294931.928 2  -1788246.141 1
  21705965.675     1712130.648 4   1334162.896 3
 91  4 30 22 44  0.0030000  0  5 19 13 06 15 02
  24681215.750    19521737.748 2  15211721.123 1
  23232350.582    -8493663.311 2  -6618429.197 1
  21693967.682   -15797332.711 3 -12309566.441 3
  24756961.011    -2297426.840 2  -1790190.210 1
  21708537.889     1725644.335 4   1344693.054 3
 91  4 30 22 44 15.0030000  0  5 19 13 06 15 02
  24690503.323    19570574.275 2  15249775.405 1
  23223630.220    -8539510.574 2  -6654154.173 1
  21692181.512   -15806688.088 3 -12316856.332 3
  24756508.623    -2299795.044 2  -1792035.464 1
  21711117.302     1739208.351 4   1355262.428 3
 91  4 30 22 44 30.0030000  0  5 19 13 06 15 02
  24699813.075    19619463.069 2  15287870.457 1
  23214924.542    -8585272.880 2  -6689812.974 1
  21690419.032   -15815971.254 3 -12324089.949 3
  24756075.125    -2302035.072 2  -1793780.914 1
  21713708.712     1752823.811 4   1365871.890 3
 91  4 30 22 44 45.0030000  0  5 19 13 06 15 02
  24709123.430    19668404.743 2  15326006.755 1
  23206226.062    -8630949.362 2  -6725404.847 1
  21688661.053   -15825181.644 3 -12331266.860 2
  24755685.095    -2304146.304 2  -1795425.988 1
  21716311.211     1766491.347 4   1376521.918 3
 91  4 30 22 45  0.0030000  0  5 19 13 06 15 02
  24718447.578    19717398.189 2  15364183.329 1
  23197554.569    -8676540.824 2  -6760930.539 1
  21686926.152   -15834319.963 3 -12338387.603 3
  24755303.162    -2306129.363 2  -1796971.131 1
  21718920.900     1780209.906 4   1387211.708 3
 91  4 30 22 45 15.0030000  0  5 19 13 06 15 02
  24727777.416    19766444.043 2  15402400.712 1
  23188896.259    -8722045.927 2  -6796388.914 1
  21685202.943   -15843385.202 3 -12345451.405 3
  24754958.398    -2307983.160 2  -1798415.663 1
  21721542.289     1793980.058 4   1397941.714 3
 91  4 30 22 45 30.0030000  0  5 19 13 06 15 02
  24737120.751    19815540.714 2  15440657.773 1
  23180246.649    -8767465.906 2  -6831780.903 1
  21683491.731   -15852378.588 3 -12352459.221 3
  24754616.034    -2309709.434 2  -1799760.726 1
  21724170.571     1807800.266 4   1408710.716 3
 91  4 30 22 45 45.0030000  0  5 19 13 06 15 02
  24746474.870    19864688.521 2  15478954.689 1
  23171621.922    -8812799.677 2  -6867105.795 1
  21681792.211   -15861299.414 3 -12359410.491 2
  24754317.443    -2311307.373 2  -1801005.822 1
  21726811.443     1821670.824 4   1419518.945 3
 91  4 30 22 46  0.0030000  0  5 19 13 06 15 02
  24755826.896    19913886.202 2  15517290.415 1
  23163011.278    -8858048.166 2  -6902364.203 1
  21680108.570   -15870148.536 3 -12366305.885 2
  24754035.334    -2312777.879 2  -1802151.659 1
  21729460.404     1835590.571 4   1430365.514 3
 91  4 30 22 46 15.0030000  0  5 19 13 06 15 02
  24765213.996    19963133.997 2  15555665.180 1
  23154417.726    -8903210.873 2  -6937555.785 1
  21678437.825   -15878925.425 3 -12373145.009 3
  24753786.206    -2314120.451 2  -1803197.747 1
  21732119.564     1849559.953 4   1441250.757 3
 91  4 30 22 46 30.0030000  0  5 19 13 06 15 02
  24774582.215    20012430.692 2  15594078.134 1
  23145837.672    -8948288.603 2  -6972681.106 1
  21676781.180   -15887630.935 3 -12379928.509 3
  24753545.480    -2315335.928 2  -1804144.792 1
  21734786.524     1863577.939 4   1452173.870 3
 91  4 30 22 46 45.0030000  0  5 19 13 06 15 02
  24783978.311    20061776.524 2  15632529.266 1
  23137278.594    -8993280.403 2  -7007739.507 1
  21675138.312   -15896264.342 3 -12386655.813 2
  24753343.119    -2316423.794 2  -1804992.525 1
  21737461.267     1877644.628 4   1463134.938 3
 91  4 30 22 47  0.0030000  0  5 19 13 06 15 02
  24793371.702    20111170.492 2  15671017.968 1
  23128731.809    -9038186.899 2  -7042731.409 1
  21673509.840   -15904826.438 3 -12393327.549 2
  24753149.151    -2317384.770 2  -1805741.234 1
  21740148.610     1891759.214 4   1474133.331 3
 91  4 30 22 47 15.0030000  0  5 19 13 06 15 02
  24802795.082    20160613.660 2  15709545.005 1
  23120204.812    -9083006.355 2  -7077655.546 1
  21671893.662   -15913315.655 3 -12399942.504 3
  24752989.665    -2318217.438 2  -1806390.021 1
  21742843.141     1905922.945 4   1485170.011 3
 91  4 30 22 47 30.0030000  0  5 19 13 06 15 02
  24812199.868    20210105.404 2  15748109.917 1
  23111691.610    -9127739.224 2  -7112512.168 1
  21670292.465   -15921732.518 3 -12406501.076 3
  24752863.447    -2318922.259 2  -1806939.134 1
  21745546.372     1920134.827 4   1496244.211 3
 91  4 30 22 47 45.0030000  0  4 13 06 15 02
  23103194.287    -9172384.974 2  -7147300.903 1
  21668704.469   -15930076.753 3 -12413003.062 2
  24752757.620    -2319499.413 2  -1807388.812 1
  21748262.490     1934394.927 4   1507355.991 3
 91  4 30 22 48  0.0030000  0  4 13 06 15 02
  23094716.457    -9216944.084 2  -7182022.137 1
  21667129.055   -15938348.689 3 -12419448.704 3
  24752674.880    -2319949.114 2  -1807739.230 1
  21750985.806     1948702.789 4   1518504.981 3
 91  4 30 22 48 15.0030000  0  4 13 06 15 02
  23086252.421    -9261416.729 2  -7216676.049 1
  21665570.436   -15946548.764 3 -12425838.354 3
  24752619.118    -2320271.985 2  -1807990.731 1
  21753715.412     1963057.645 4   1529690.590 3
 91  4 30 22 48 30.0030000  0  4 13 06 15 02
  23077806.664    -9305798.918 2  -7251259.375 1
  21664028.308   -15954673.096 3 -12432168.974 2
  24752570.851    -2320464.092 2  -1808140.403 1
  21756456.719     1977462.895 4   1540915.466 3
 91  4 30 22 48 45.0030000  0  4 13 06 15 02
  23069379.796    -9350089.665 2  -7285771.503 1
  21662491.572   -15962720.800 3 -12438439.893 3
  24752553.767    -2320524.614 2  -1808187.427 1
  21759211.210     1991919.045 4   1552180.005 3
 91  4 30 22 49  0.0030000  0  4 13 06 15 02
  23060965.223    -9394290.910 2  -7320213.839 1
  21660971.920   -15970693.687 3 -12444652.509 3
  24752575.048    -2320455.179 2  -1808133.400 1
  21761969.898     2006424.137 4   1563482.684 3
 91  4 30 22 49 15.0030000  0  4 13 06 15 02
  23052572.532    -9438399.200 2  -7354583.842 1
  21659471.158   -15978588.449 3 -12450804.257 3
  24752615.820    -2320253.066 2  -1807975.821 1
  21764738.488     2020981.102 4   1574825.781 3
 91  4 30 22 49 30.0030000  0  4 13 06 15 02
  23044197.536    -9482415.285 2  -7388881.908 1
  21657983.893   -15986406.048 3 -12456895.868 2
  24752682.079    -2319919.164 2  -1807715.593 1
  21767517.261     2035588.932 4   1586208.514 3
 91  4 30 22 49 45.0030000  0  4 13 06 15 02
  23035839.317    -9526337.986 2  -7423107.248 1
  21656511.609   -15994145.732 3 -12462926.771 2
  24752764.819    -2319452.773 2  -1807352.100 1
  21770306.826     2050248.063 4   1597631.224 3
 91  4 30 22 50  0.0030000  0  4 13 06 15 02
  23027497.599    -9570164.811 2  -7457257.902 1
  21655056.113   -16001804.763 3 -12468894.823 3
  24752879.938    -2318851.259 2  -1806883.344 1
  21773106.592     2064960.789 4   1609095.695 3
 91  4 30 22 50 15.0030000  0  4 13 06 15 02
  23019177.754    -9613896.697 2  -7491334.547 1
  21653612.613   -16009384.230 3 -12474800.883 3
  24753021.738    -2318115.771 2  -1806310.209 1
  21775917.743     2079725.734 4   1620600.857 3
 91  4 30 22 50 30.0030000  0  4 13 06 15 02
  23010874.102    -9657534.980 2  -7525338.261 1
  21652186.206   -16016885.743 3 -12480646.194 3
  24753185.727    -2317247.983 2  -1805633.944 1
  21778735.796     2094541.049 4   1632145.273 3
 91  4 30 22 50 45.0030000  0  4 13 06 15 02
  23002589.341    -9701077.614 2  -7559267.458 1
  21650772.983   -16024307.090 3 -12486429.037 2
  24753378.491    -2316246.061 2  -1804853.204 1
  21781566.134     2109408.676 4   1643730.442 3
 91  4 30 22 51  0.0030000  0  4 13 06 15 02
  22994318.662    -9744523.749 2  -7593121.400 1
  21649377.446   -16031647.736 3 -12492148.991 2
  24753585.345    -2315109.310 2  -1803967.405 1
  21784403.671     2124328.679 4   1655356.426 3
 91  4 30 22 51 15.0030000  0  4 13 06 15 02
  22986070.171    -9787872.587 2  -7626899.567 1
  21647995.109   -16038906.803 3 -12497805.394 2
  24753838.670    -2313836.887 2  -1802975.864 1
  21787254.696     2139301.701 4   1667023.718 3
 91  4 30 22 51 30.0030000  0  4 13 06 15 02
  22977839.374    -9831123.942 2  -7660601.773 1
  21646629.848   -16046084.280 3 -12503398.221 3
  24754106.391    -2312428.995 2  -1801878.732 1
  21790112.919     2154327.588 4   1678732.220 3
 91  4 30 22 51 45.0030000  0  4 13 06 15 02
  22969629.553    -9874277.117 2  -7694227.481 1
  21645276.583   -16053179.731 3 -12508927.123 3
  24754390.289    -2310884.924 2  -1800675.495 1
  21792983.131     2169406.564 4   1690482.082 3
 91  4 30 22 52  0.0030000  0  4 13 06 15 02
  22961433.526    -9917332.299 2  -7727776.860 1
  21643945.210   -16060193.217 3 -12514392.158 3
  24754719.165    -2309204.959 2  -1799366.386 1
  21795863.237     2184538.264 4   1702273.020 3
 91  4 30 22 52 15.0030000  0  4 13 06 15 02
  22953261.790    -9960288.262 2  -7761248.905 1
  21642625.825   -16067123.600 3 -12519792.442 3
  24755069.024    -2307388.377 2  -1797950.848 1
  21798751.737     2199723.285 4   1714105.517 3
 91  4 30 22 52 30.0030000  0  4 13 06 15 02
  22945105.933   -10003144.322 2  -7794643.060 1
  21641320.828   -16073970.242 3 -12525127.474 3
  24755431.168    -2305434.852 2  -1796428.535 1
  21801652.827     2214962.014 4   1725979.856 3
 91  4 30 22 52 45.0030000  0  4 13 06 15 02
  22936968.364   -10045900.904 2  -7827959.732 1
  21640035.018   -16080733.803 3 -12530397.768 3
  24755826.896    -2303344.727 2  -1794799.906 1
  21804562.319     2230253.712 4   1737895.472 3
 91  4 30 22 53  0.0030000  0  4 13 06 15 02
  22928854.188   -10088558.186 2  -7861199.060 1
  21638765.698   -16087414.432 3 -12535603.433 3
  24756261.293    -2301118.436 2  -1793065.049 1
  21807481.392     2245597.711 4   1749851.840 3
 91  4 30 22 53 15.0030000  0  4 13 06 15 02
  22920750.193   -10131113.912 2  -7894359.182 1
  21637507.764   -16094010.259 3 -12540743.028 3
  24756704.694    -2298753.907 2  -1791222.557 1
  21810412.164     2260995.834 4   1761850.391 3
 91  4 30 22 53 30.0030000  0  4 13 06 15 02
  22912671.388   -10173569.326 2  -7927441.194 1
  21636266.024   -16100522.484 3 -12545817.471 3
  24757180.762    -2296252.776 2  -1789273.541 1
  21813351.627     2276446.510 4   1773889.878 3
 91  4 30 22 53 45.0030000  0  4 13 06 15 02
  22904614.762   -10215923.003 2  -7960443.910 1
  21635047.065   -16106949.786 3 -12550825.741 2
  24757676.619    -2293613.667 2  -1787217.104 1
  21816300.391     2291950.701 4   1785971.072 3
 91  4 30 22 54  0.0030000  0  4 13 06 15 02
  22896573.431   -10258173.363 2  -7993366.121 1
  21633841.901   -16113290.548 3 -12555766.570 2
  24758202.150    -2290835.382 2  -1785052.148 1
  21819265.637     2307509.687 4   1798094.970 3
 91  4 30 22 54 15.0030000  0  4 13 06 15 02
  22888554.280   -10300321.080 3  -8026208.355 1
  21632650.225   -16119545.594 3 -12560640.625 3
  24758767.266    -2287918.678 2  -1782779.344 1
  21822234.783     2323122.482 4   1810260.788 3
 91  4 30 22 54 30.0030000  0  4 13 06 15 02
  22880552.526   -10342365.686 3  -8058970.220 1
  21631476.244   -16125714.507 3 -12565447.549 3
  24759343.464    -2284863.268 2  -1780398.522 1
  21825216.214     2338789.009 4   1822468.473 3
 91  4 30 22 54 45.0030000  0  4 13 06 15 02
  22872573.545   -10384306.459 3  -8091651.228 1
  21630316.939   -16131796.671 3 -12570186.885 2
  24759962.231    -2281668.465 2  -1777909.042 1
  21828209.048     2354509.961 4   1834718.579 3
 91  4 30 22 55  0.0030000  0  4 13 06 15 02
  22864611.359   -10426144.118 2  -8124251.838 1
  21629173.837   -16137792.829 3 -12574859.200 3
  24760589.697    -2278335.437 2  -1775311.831 1
  21831209.971     2370284.021 4   1847010.056 3
 91  4 30 22 55 15.0030000  0  4 13 06 15 02
  22856666.860   -10467877.457 2  -8156771.159 1
  21628052.913   -16143701.905 3 -12579463.653 3
  24761250.746    -2274863.036 2  -1772606.067 1
  21834220.788     2386111.942 4   1859343.510 3
 91  4 30 22 55 30.0030000  0  4 13 06 15 02
  22848746.346   -10509506.492 2  -8189209.244 1
  21626944.877   -16149524.214 3 -12584000.506 3
  24761934.568    -2271251.789 2  -1769792.058 1
  21837242.694     2401993.285 4   1871718.586 3
 91  4 30 22 55 45.0030000  0  4 13 06 15 02
  22840842.915   -10551029.749 2  -8221564.899 1
  21625853.933   -16155258.140 3 -12588468.485 3
  24762643.282    -2267500.121 2  -1766868.605 1
  21840275.089     2417929.296 4   1884136.268 3
 91  4 30 22 56  0.0030000  0  4 13 06 15 02
  22832961.367   -10592447.979 3  -8253838.676 1
  21624781.276   -16160904.630 3 -12592868.330 3
  24763398.458    -2263609.089 2  -1763836.607 1
  21843316.784     2433918.773 4   1896595.610 3
 91  4 30 22 56 15.0030000  0  4 13 06 15 02
  22825101.711   -10633762.117 3  -8286031.384 1
  21623722.109   -16166464.671 3 -12597200.814 3
  24764164.426    -2259579.872 2  -1760696.924 1
  21846370.772     2449960.530 4   1909095.685 2
 91  4 30 22 56 30.0030000  0  4 13 06 15 02
  22817261.843   -10674970.953 2  -8318142.042 1
  21622679.433   -16171936.990 3 -12601464.941 2
  24764952.583    -2255411.317 2  -1757448.681 1
  21849433.155     2466055.475 4   1921637.209 3
 91  4 30 22 56 45.0030000  0  4 13 06 15 02
  22809436.956   -10716076.447 2  -8350172.144 1
  21621655.637   -16177323.787 3 -12605662.432 3
  24765772.211    -2251105.607 2  -1754093.556 1
  21852505.728     2482201.176 4   1934218.280 3
 91  4 30 22 57  0.0030000  0  4 13 06 15 02
  22801637.258   -10757075.432 3  -8382119.262 1
  21620648.637   -16182621.910 3 -12609790.826 3
  24766607.736    -2246660.044 2  -1750629.461 1
  21855588.187     2498400.444 4   1946841.087 3
 91  4 30 22 57 15.0030000  0  4 13 06 15 02
  22793851.948   -10797970.590 3  -8413985.473 1
  21619655.720   -16187834.022 3 -12613852.196 2
  24767481.032    -2242077.340 2  -1747058.535 1
  21858681.753     2514650.367 4   1959503.372 3
 91  4 30 22 57 30.0030000  0  4 13 06 15 02
  22786091.819   -10838758.876 3  -8445768.442 1
  21618681.099   -16192957.359 3 -12617844.387 3
  24768378.907    -2237354.880 2  -1743378.618 1
  21861782.499     2530953.556 4   1972207.168 3
 91  4 30 22 57 45.0030000  0  4 13 06 15 02
  22778346.976   -10879441.229 3  -8477468.839 1
  21617721.163   -16197992.727 3 -12621768.038 2
  24769312.162    -2232493.642 2  -1739590.613 1
  21864895.548     2547308.697 4   1984951.434 3
 91  4 30 22 58  0.0030000  0  4 13 06 15 02
  22770627.924   -10920012.781 3  -8509082.925 2
  21616781.311   -16202935.572 3 -12625619.593 3
  24770264.604    -2227488.980 2  -1735690.853 1
  21868019.984     2563720.203 4   1997739.627 3
 91  4 30 22 58 15.0030000  0  4 13 06 15 02
  22762925.651   -10960477.513 3  -8540613.762 1
  21615856.450   -16207789.765 3 -12629402.065 3
  24771247.025    -2222345.070 2  -1731682.577 1
  21871152.516     2580183.910 4   2010568.499 3
 91  4 30 22 58 30.0030000  0  4 13 06 15 02
  22755247.669   -11000833.358 3  -8572059.737 1
  21614952.284   -16212553.432 3 -12633113.995 3
  24772249.226    -2217060.029 2  -1727564.303 1
  21874295.239     2596701.382 4   2023439.269 3
 91  4 30 22 58 45.0030000  0  4 13 06 15 02
  22747592.171   -11041080.015 3  -8603420.657 1
  21614061.896   -16217226.439 3 -12636755.280 3
  24773277.820    -2211633.985 2  -1723336.251 1
  21877447.560     2613272.417 4   2036351.763 3
 91  4 30 22 59  0.0030000  0  4 13 06 15 02
  22739950.459   -11081217.914 3  -8634696.823 1
  21613190.100   -16221809.186 3 -12640326.234 3
  24774340.879    -2206067.345 2  -1718998.574 1
  21880612.471     2629896.174 4   2049305.346 3
 91  4 30 22 59 15.0030000  0  4 13 06 15 02
  22732334.530   -11121245.962 3  -8665887.395 1
  21612334.193   -16226300.706 3 -12643826.107 2
  24775431.823    -2200359.107 2  -1714550.557 1
  21883785.767     2646573.592 4   2062300.750 3
 91  4 30 22 59 30.0030000  0  4 13 06 15 02
  22724739.287   -11161164.140 3  -8696992.309 1
  21611497.769   -16230701.100 3 -12647254.964 3
  24776542.555    -2194509.736 2  -1709992.599 1
  21886968.966     2663304.316 4   2075337.687 3
 91  4 30 22 59 45.0030000  0  4 13 06 15 02
  22717165.334   -11200972.691 3  -8728011.862 1
  21610676.039   -16235010.581 3 -12650612.983 3
  24777682.971    -2188519.585 2  -1705324.985 1
  21890162.356     2680087.817 4   2088415.748 3
 91  4 30 23  0  0.0030000  0  4 13 06 15 02
  22709609.966   -11240670.067 3  -8758944.793 1
  21609874.698   -16239227.863 3 -12653899.162 3
  24778847.965    -2182387.415 2  -1700546.603 1
  21893366.242     2696925.091 4   2101535.717 3
 91  4 30 23  0 15.0030000  0  4 13 06 15 02
  22702077.981   -11280254.794 3  -8789789.899 1
  21609089.840   -16243351.382 3 -12657112.273 3
  24780040.539    -2176112.047 2  -1695656.708 1
  21896581.811     2713817.400 4   2114698.557 3
 91  4 30 23  0 30.0030000  0  4 13 06 15 02
  22694563.385   -11319728.082 3  -8820548.192 1
  21608323.269   -16247382.460 3 -12660253.360 3
  24781259.192    -2169694.908 2  -1690656.280 1
  21899805.180     2730763.235 4   2127903.113 3
 91  4 30 23  0 45.0030000  0  4 13 06 15 02
  22687073.664   -11359090.621 3  -8851220.180 1
  21607573.189   -16251321.765 3 -12663322.925 3
  24782507.232    -2163136.784 2  -1685545.986 1
  21903041.742     2747761.493 4   2141148.511 3
 91  4 30 23  1  0.0030000  0  4 13 06 15 02
  22679605.835   -11398341.838 3  -8881805.443 1
  21606841.694   -16255168.818 3 -12666320.619 3
  24783782.240    -2156437.451 2  -1680325.766 1
  21906285.493     2764812.367 4   2154434.921 3
 91  4 30 23  1 15.0030000  0  4 13 06 15 02
  22672157.192   -11437480.814 3  -8912303.240 2
  21606124.289   -16258922.715 3 -12669245.714 3
  24785080.048    -2149596.041 2  -1674994.738 1
  21909540.342     2781916.571 4   2167762.880 3
 91  4 30 23  1 30.0030000  0  4 13 06 15 02
  22664730.432   -11476507.964 3  -8942713.893 1
  21605429.674   -16262584.004 3 -12672098.650 2
  24786421.917    -2142613.110 2  -1669553.524 1
  21912804.781     2799073.333 4   2181131.791 3
 91  4 30 23  1 45.0030000  0  4 13 06 15 02
  22657322.858   -11515423.902 3  -8973037.878 1
  21604747.641   -16266153.354 3 -12674879.938 3
  24787767.687    -2135489.690 2  -1664002.819 1
  21916078.512     2816281.723 4   2194540.934 3
 91  4 30 23  2  0.0030000  0  4 13 06 15 02
  22649940.177   -11554228.224 3  -9003274.919 1
  21604090.501   -16269630.506 3 -12677589.399 3
  24789150.329    -2128225.720 2  -1658342.538 1
  21919363.943     2833541.635 4   2207990.225 3
 91  4 30 23  2 15.0030000  0  4 13 06 15 02
  22642577.572   -11592919.982 3  -9033424.220 1
  21603443.246   -16273014.378 3 -12680226.163 2
  24790566.545    -2120820.048 2  -1652571.826 1
  21922659.259     2850853.921 4   2221480.333 3
 91  4 30 23  2 30.0030000  0  4 13 06 15 02
  22635234.154   -11631498.997 3  -9063485.669 1
  21602820.579   -16276305.102 3 -12682790.342 3
  24791998.056    -2113273.177 2  -1646691.111 1
  21925961.469     2868218.116 4   2235010.875 3
 91  4 30 23  2 45.0030000  0  4 13 06 15 02
  22627915.620   -11669965.715 3  -9093459.618 1
  21602211.104   -16279503.326 3 -12685282.446 3
  24793460.149    -2105585.637 2  -1640700.816 1
  21929277.481     2885633.389 4   2248581.230 2
 91  4 30 23  3  0.0030000  0  4 13 06 15 02
  22620616.874   -11708320.799 3  -9123346.594 1
  21601617.212   -16282609.575 3 -12687702.878 3
  24794951.017    -2097758.288 2  -1634601.560 1
  21932599.776     2903098.956 4   2262190.777 3
 91  4 30 23  3 15.0030000  0  4 13 06 15 02
  22613337.010   -11746565.226 3  -9153147.318 1
  21601046.110   -16285624.860 3 -12690052.444 3
  24796475.756    -2089792.410 2  -1628394.398 1
  21935931.973     2920613.471 4   2275838.459 3
 91  4 30 23  3 30.0030000  0  4 13 06 15 02
  22606082.038   -11784698.314 3  -9182861.286 1
  21600488.793   -16288548.678 3 -12692330.716 3
  24798019.088    -2081687.382 2  -1622078.789 1
  21939275.854     2938177.276 4   2289524.549 3
 91  4 30 23  3 45.0030000  0  4 13 06 15 02
  22598845.643   -11822719.190 3  -9212487.842 1
  21599949.163   -16291380.268 3 -12694537.139 3
  24799580.411    -2073442.944 2  -1615654.471 1
  21942628.137     2955790.780 4   2303249.370 3
 91  4 30 23  4  0.0030000  0  4 13 06 15 02
  22591631.443   -11860628.182 3  -9242027.194 1
  21599429.626   -16294119.740 3 -12696671.777 3
  24801175.605    -2065059.203 2  -1609121.655 1
  21945986.108     2973453.507 4   2317012.538 3
 91  4 30 23  4 15.0030000  0  4 13 06 15 02
  22584440.915   -11898423.752 3  -9271478.180 1
  21598926.275   -16296765.702 3 -12698733.553 3
  24802793.886    -2056535.172 2  -1602479.607 1
  21949359.078     2991166.671 4   2330815.002 3
 91  4 30 23  4 30.0030000  0  4 13 06 15 02
  22577270.481   -11936106.320 3  -9300841.107 1
  21598441.211   -16299318.802 3 -12700722.968 3
  24804449.336    -2047871.408 2  -1595728.549 1
  21952737.440     3008929.472 4   2344656.161 3
 91  4 30 23  4 45.0030000  0  4 13 06 15 02
  22570121.633   -11973676.008 3  -9330116.080 1
  21597971.137   -16301779.169 3 -12702640.116 3
  24806120.683    -2039068.445 2  -1588869.060 1
  21956130.190     3026741.274 4   2358535.491 3
 91  4 30 23  5  0.0030000  0  4 13 06 15 02
  22562996.762   -12011131.860 3  -9359302.347 1
  21597520.852   -16304146.033 3 -12704484.412 3
  24807826.197    -2030125.355 2  -1581900.413 1
  21959526.238     3044602.695 4   2372453.487 3
 91  4 30 23  5 15.0030000  0  4 13 06 15 02
  22555888.380   -12048473.621 3  -9388399.690 1
  21597088.845   -16306418.864 3 -12706255.427 3
  24809550.907    -2021041.835 2  -1574822.351 1
  21962937.573     3062513.833 4   2386410.227 2
 91  4 30 23  5 30.0030000  0  4 13 06 15 02
  22548804.587   -12085700.376 3  -9417407.453 2
  21596674.830   -16308597.159 3 -12707952.787 2
  24811301.094    -2011817.770 2  -1567634.690 1
  21966354.308     3080475.127 4   2400406.047 3
 91  4 30 23  5 45.0030000  0  4 13 06 15 02
  22541742.972   -12122811.456 3  -9446325.038 1
  21596277.611   -16310680.143 3 -12709575.873 3
  24813089.358    -2002452.348 2  -1560336.957 1
  21969781.836     3098486.953 4   2414441.243 3
 91  4 30 23  6  0.0030000  0  4 13 06 15 02
  22534699.349   -12159807.070 3  -9475152.686 1
  21595900.468   -16312668.044 3 -12711124.879 3
  24814891.712    -1992945.996 2  -1552929.387 1
  21973218.656     3116549.032 4   2428515.591 3
 91  4 30 23  6 15.0030000  0  4 13 06 15 02
  22527680.313   -12196686.720 3  -9503889.999 1
  21595540.121   -16314560.265 3 -12712599.322 3
  24816725.835    -1983298.470 2  -1545411.867 1
  21976664.472     3134661.583 4   2442629.283 3
 91  4 30 23  6 30.0030000  0  4 13 06 15 02
  22520688.255   -12233450.135 3  -9532536.684 1
  21595195.959   -16316356.831 3 -12713999.230 2
  24818593.549    -1973509.793 2  -1537784.307 1
  21980121.980     3152824.364 4   2456782.110 3
 91  4 30 23  6 45.0030000  0  4 13 06 15 02
  22513712.679   -12270097.032 3  -9561092.611 1
  21594873.976   -16318057.360 3 -12715324.295 3
  24820490.632    -1963580.021 2  -1530046.821 1
  21983587.576     3171037.387 4   2470974.080 2
 91  4 30 23  7  0.0030000  0  4 13 06 15 02
  22506761.097   -12306627.858 3  -9589558.090 1
  21594567.891   -16319662.490 3 -12716575.034 3
  24822406.605    -1953509.857 2  -1522199.826 1
  21987063.676     3189299.714 4   2485204.464 2
 91  4 30 23  7 15.0030000  0  4 13 06 15 02
  22499834.093   -12343041.474 3  -9617932.216 1
  21594280.390   -16321171.288 3 -12717750.711 3
  24824344.164    -1943298.152 2  -1514242.711 1
  21990548.764     3207612.153 4   2499473.916 2
 91  4 30 23  7 30.0030000  0  4 13 06 15 02
  22492925.971   -12379336.205 3  -9646213.729 1
  21594012.677   -16322581.824 3 -12718849.817 3
  24826315.602    -1932943.826 2  -1506174.358 1
  21994042.542     3225976.103 4   2513783.493 3
 91  4 30 23  7 45.0030000  0  4 13 06 15 02
  22486040.935   -12415514.502 3  -9674404.502 1
  21593762.947   -16323896.760 3 -12719874.423 3
  24828314.917    -1922449.302 2  -1497996.727 1
  21997544.713     3244388.883 4   2528131.113 3
 91  4 30 23  8  0.0030000  0  4 13 06 15 02
  22479179.588   -12451574.840 3  -9702503.345 1
  21593532.107   -16325114.509 3 -12720823.303 3
  24830334.317    -1911813.293 2  -1489708.964 1
  22001058.289     3262851.760 4   2542517.781 2
 91  4 30 23  8 15.0030000  0  4 13 06 15 02
  22472339.827   -12487516.304 3  -9730509.581 1
  21593317.155   -16326234.285 3 -12721695.840 3
  24832380.102    -1901035.382 2  -1481310.612 1
  22004583.547     3281365.447 4   2556944.039 3
 91  4 30 23  8 30.0030000  0  4 13 06 15 02
  22465522.541   -12523337.688 3  -9758422.249 1
  21593123.493   -16327254.972 3 -12722491.175 3
  24834454.663    -1890114.448 2  -1472800.704 1
  22008115.401     3299930.658 4   2571410.440 3
 91  4 30 23  8 45.0030000  0  4 13 06 15 02
  22458731.344   -12559038.111 3  -9786240.656 1
  21592950.814   -16328175.664 3 -12723208.576 3
  24836568.800    -1879049.720 2  -1464178.827 1
  22011657.150     3318548.223 4   2585917.647 2
 91  4 30 23  9  0.0030000  0  4 13 06 15 02
  22451959.935   -12594615.427 3  -9813963.149 1
  21592793.422   -16328994.294 3 -12723846.460 3
  24838711.722    -1867839.418 2  -1455443.518 1
  22015212.989     3337219.782 4   2600466.920 3
 91  4 30 23  9 15.0030000  0  4 13 06 15 02
  22445211.901   -12630071.748 3  -9841591.345 1
  21592654.614   -16329712.953 3 -12724406.439 3
  24840863.325    -1856486.016 2  -1446596.767 1
  22018775.416     3355942.868 4   2615056.343 3
 91  4 30 23  9 30.0030000  0  4 13 06 15 02
  22438482.766   -12665425.632 3  -9869139.730 2
  21592535.595   -16330350.548 3 -12724903.250 3
  24843047.316    -1845008.365 2  -1437653.094 1
  22022342.345     3374698.445 4   2629671.082 3
 91  4 30 23  9 45.0030000  0  4 13 06 15 02
  22431782.397   -12700647.063 3  -9896584.883 1
  21592432.473   -16330876.932 3 -12725313.409 3
  24845251.688    -1833376.576 2  -1428589.355 1
  22025923.968     3393516.354 4   2644334.398 2
 91  4 30 23 10  0.0030000  0  4 13 06 15 02
  22425103.919   -12735731.411 3  -9923923.243 1
  21592359.618   -16331287.523 3 -12725633.329 3
  24847503.133    -1821586.058 2  -1419401.875 1
  22029517.578     3412400.842 4   2659049.586 3
 91  4 30 23 10 15.0030000  0  4 13 06 15 02
  22418454.523   -12770677.002 3  -9951153.458 1
  21592298.464   -16331580.690 3 -12725861.758 3
  24849776.460    -1809635.390 2  -1410089.681 1
  22033124.983     3431353.508 4   2673817.900 2
 91  4 30 23 10 30.0030000  0  4 13 06 15 02
  22411834.512   -12805482.070 3  -9978274.210 1
  21592268.188   -16331754.685 3 -12725997.325 3
  24852084.260    -1797523.292 2  -1400651.685 1
  22036742.885     3450375.766 4   2688640.448 2
 91  4 30 23 10 45.0030000  0  4 13 06 15 02
  22405236.681   -12840143.575 3 -10005283.058 1
  21592253.791   -16331806.509 3 -12726037.704 2
  24854419.945    -1785246.884 2  -1391085.636 1
  22040378.760     3469470.370 4   2703519.369 2
 91  4 30 23 11  0.0030000  0  4 13 06 15 02
  22398668.820   -12874661.430 3 -10032179.996 1
  21592269.680   -16331736.128 3 -12725982.838 3
  24856792.800    -1772806.307 2  -1381391.686 1
  22044024.843     3488637.054 4   2718454.449 3
 91  4 30 23 11 15.0030000  0  4 13 06 15 02
  22392126.454   -12909031.984 3 -10058962.164 1
  21592308.655   -16331539.977 3 -12725829.986 3
  24859187.842    -1760198.013 2  -1371567.024 1
  22047685.907     3507878.962 4   2733448.151 2
 91  4 30 23 11 30.0030000  0  4 13 06 15 02
  22385616.162   -12943255.881 3 -10085630.039 1
  21592367.715   -16331218.528 3 -12725579.499 3
  24861616.764    -1747423.026 2  -1361612.453 1
  22051363.759     3527195.622 4   2748500.092 3
 91  4 30 23 11 45.0030000  0  4 13 06 15 02
  22379125.650   -12977359.912 3 -10112204.498 1
  21592449.260   -16330798.909 3 -12725252.507 3
  24864081.058    -1734508.718 2  -1351549.350 1
  22055046.706     3546559.600 4   2763588.908 2
 91  4 30 23 12  0.0030000  0  4 13 06 15 02
  22372659.733   -13011332.377 3 -10138676.454 1
  21592549.991   -16330269.315 3 -12724839.824 3
  24866557.942    -1721443.419 2  -1341368.573 1
  22058744.049     3565982.444 4   2778723.594 2
 91  4 30 23 12 15.0030000  0  4 13 06 15 02
  22366224.381   -13045155.397 3 -10165031.960 1
  21592675.301   -16329611.725 3 -12724327.405 3
  24869085.492    -1708209.224 2  -1331056.229 1
  22062453.678     3585481.749 4   2793917.864 2
 91  4 30 23 12 30.0030000  0  4 13 06 15 02
  22359815.422   -13078830.889 3 -10191272.507 1
  21592822.503   -16328828.493 3 -12723717.089 3
  24871624.734    -1694808.644 2  -1320614.241 1
  22066179.805     3605055.254 4   2809169.947 3
 91  4 30 23 12 45.0030000  0  4 13 06 15 02
  22353435.840   -13112362.142 3 -10217400.660 1
  21592994.885   -16327922.863 3 -12723011.387 3
  24874211.642    -1681244.880 2  -1310045.044 1
  22069915.513     3624699.478 4   2824477.133 2
 91  4 30 23 13  0.0030000  0  4 13 06 15 02
  22347079.040   -13145751.660 3 -10243418.369 1
  21593190.345   -16326897.179 3 -12722212.144 3
  24876818.041    -1667520.829 2  -1299350.947 1
  22073666.219     3644411.586 4   2839837.212 3
 91  4 30 23 13 15.0030000  0  4 13 06 15 02
  22340753.415   -13179002.779 3 -10269328.245 1
  21593408.594   -16325754.905 3 -12721322.054 3
  24879465.205    -1653640.143 2  -1288534.807 1
  22077430.109     3664187.947 4   2855247.363 3
 91  4 30 23 13 30.0030000  0  4 13 06 15 02
  22334452.080   -13212118.736 3 -10295132.800 2
  21593649.329   -16324499.192 3 -12720343.571 3
  24882139.651    -1639606.131 2  -1277599.274 1
  22081204.504     3684025.108 4   2870704.895 2
 91  4 30 23 13 45.0030000  0  4 13 06 15 02
  22328172.925   -13245100.378 3 -10320832.679 2
  21593909.547   -16323131.029 3 -12719277.455 3
  24884839.880    -1625420.175 2  -1266545.211 1
  22084992.981     3703921.932 4   2886208.910 3
 91  4 30 23 14  0.0030000  0  4 13 06 15 02
  22321929.149   -13277924.694 3 -10346409.968 2
  21594194.046   -16321627.347 3 -12718105.750 3
  24887570.098    -1611059.280 2  -1255354.844 1
  22088793.150     3723901.134 4   2901777.116 3
 91  4 30 23 14 15.0030000  0  4 13 06 15 02
  22315706.358   -13310622.049 3 -10371888.339 2
  21594500.742   -16320018.546 3 -12716852.132 3
  24890330.286    -1596554.289 2  -1244052.252 1
  22092605.010     3743931.984 4   2917385.572 2
 91  4 30 23 14 30.0030000  0  4 13 06 15 02
  22309506.348   -13343193.349 3 -10397268.482 1
  21594824.810   -16318305.725 3 -12715517.462 3
  24893108.457    -1581906.277 2  -1232638.267 1
  22096426.765     3764013.217 4   2933033.290 3
 91  4 30 23 14 45.0030000  0  4 13 06 15 02
  22303333.927   -13375639.801 3 -10422551.331 2
  21595172.576   -16316490.367 3 -12714102.876 3
  24895929.808    -1567116.891 2  -1221114.064 1
  22100257.812     3784143.308 4   2948719.063 3
 91  4 30 23 15  0.0030000  0  4 13 06 15 02
  22297183.685   -13407963.131 3 -10447738.254 1
  21595535.924   -16314573.796 3 -12712609.436 3
  24898773.338    -1552187.850 2  -1209480.993 1
  22104096.650     3804320.438 4   2964441.498 2
 91  4 30 23 15 15.0030000  0  4 13 06 15 02
  22291057.725   -13440162.701 3 -10472828.750 1
  21595918.756   -16312555.610 3 -12711036.816 3
  24901648.646    -1537118.800 2  -1197738.854 1
  22107948.681     3824545.018 4   2980200.903 2
 91  4 30 23 15 30.0030000  0  4 13 06 15 02
  22284950.951   -13472241.638 3 -10497825.238 2
  21596325.878   -16310438.946 3 -12709387.460 3
  24904535.950    -1521913.314 2  -1185890.445 1
  22111804.612     3844813.683 4   2995994.676 2
 91  4 30 23 15 45.0030000  0  4 13 06 15 02
  22278866.959   -13504201.543 3 -10522728.959 2
  21596745.582   -16308225.385 3 -12707662.593 3
  24907447.231    -1506573.017 2  -1173936.968 1
  22115666.546     3865124.561 4   3011821.327 2
 91  4 30 23 16  0.0030000  0  4 13 06 15 02
  22272809.352   -13536042.112 3 -10547539.722 2
  21597185.982   -16305914.775 3 -12705862.111 3
  24910396.588    -1491097.962 2  -1161878.493 1
  22119542.257     3885477.403 4   3027680.677 2
 91  4 30 23 16 15.0030000  0  4 13 06 15 02
  22266773.330   -13567764.956 3 -10572258.722 1
  21597640.761   -16303508.535 3 -12703987.116 3
  24913370.533    -1475489.579 2  -1149716.059 1
  22123420.079     3905870.612 4   3043571.488 2
 91  4 30 23 16 30.0030000  0  4 13 06 15 02
  22260760.395   -13599367.300 3 -10596883.838 1
  21598119.237   -16301004.148 3 -12702035.627 3
  24916360.959    -1459745.821 2  -1137448.219 1
  22127310.483     3926306.427 4   3059495.505 2
 91  4 30 23 16 45.0030000  0  4 13 06 15 02
  22254769.639   -13630851.851 3 -10621417.169 1
  21598614.788   -16298404.397 3 -12700009.838 3
  24919377.473    -1443869.761 2  -1125077.278 1
  22131205.982     3946782.054 4   3075450.532 2
 91  4 30 23 17  0.0030000  0  4 13 06 15 02
  22248798.978   -13662218.618 3 -10645858.728 1
  21599128.034   -16295709.147 3 -12697909.636 2
  24922430.564    -1427861.514 2  -1112603.217 1
  22135111.681     3967297.280 4   3091436.417 2
 91  4 30 23 17 15.0030000  0  4 13 06 15 02
  22242853.496   -13693467.175 3 -10670208.171 1
  21599659.568   -16292917.779 3 -12695734.530 3
  24925501.331    -1411720.717 2  -1100025.991 1
  22139023.977     3987852.441 4   3107453.425 2
 91  4 30 23 17 30.0030000  0  4 13 06 15 02
  22236928.397   -13724597.311 3 -10694465.338 2
  21600206.990   -16290030.399 3 -12693484.613 3
  24928600.891    -1395447.765 2  -1087345.813 1
  22142943.156     4008447.164 4   3123501.262 2
 91  4 30 23 17 45.0030000  0  4 13 06 15 02
  22231026.681   -13755609.819 3 -10718630.843 1
  21600777.193   -16287047.723 3 -12691160.438 3
  24931710.633    -1379043.434 2  -1074563.180 1
  22146868.041     4029080.530 4   3139579.212 2
 91  4 30 23 18  0.0030000  0  4 13 06 15 02
  22225149.247   -13786502.942 3 -10742703.325 2
  21601363.285   -16283968.206 3 -12688760.813 3
  24934864.149    -1362506.509 2  -1061677.288 1
  22150800.719     4049753.738 4   3155688.202 3
 91  4 30 23 18 15.0030000  0  4 13 06 15 02
  22219291.907   -13817277.792 3 -10766683.662 1
  21601962.874   -16280792.852 3 -12686286.493 2
  24938037.454    -1345838.055 2  -1048688.838 1
  22154745.087     4070465.665 4   3171827.363 2
 91  4 30 23 18 30.0030000  0  4 13 06 15 02
  22213459.146   -13847933.669 3 -10790571.275 1
  21602589.739   -16277520.945 3 -12683736.946 2
  24941233.243    -1329037.693 2  -1035597.613
  22158692.754     4091216.833 4   3187997.113 3
 91  4 30 23 18 45.0030000  0  4 13 06 15 02
  22207648.563   -13878472.224 3 -10814367.472 2
  21603228.294   -16274154.002 3 -12681113.348 3
  24944461.411    -1312107.375 2  -1022405.230 1
  22162649.416     4112005.617 4   3204196.160 2
 91  4 30 23 19  0.0030000  0  4 13 06 15 02
  22201857.770   -13908891.244 3 -10838070.523 1
  21603884.841   -16270689.916 3 -12678414.050 3
  24947709.359    -1295044.896 2  -1009109.771 1
  22166613.574     4132833.773 4   3220425.891 2
 91  4 30 23 19 15.0030000  0  4 13 06 15 02
  22196092.767   -13939192.258 3 -10861681.616 2
  21604564.475   -16267130.723 3 -12675640.643 3
  24950973.797    -1277852.434 2   -995713.067 1
  22170582.224     4153698.933 4   3236684.459 2
 91  4 30 23 19 30.0030000  0  4 13 06 15 02
  22190349.944   -13969373.038 3 -10885199.033 2
  21605260.887   -16263473.829 3 -12672791.104 2
  24954273.320    -1260527.822 2   -982213.380 1
  22174559.871     4174603.493 4   3252973.735 2
 91  4 30 23 19 45.0030000  0  4 13 06 15 02
  22184629.597   -13999433.571 3 -10908622.737 1
  21605977.393   -16259719.263 3 -12669865.461 3
  24957595.614    -1243071.533 2   -968611.055 1
  22178545.308     4195547.379 4   3269293.637 2
 91  4 30 23 20  0.0030000  0  4 13 06 15 02
  22178930.845   -14029375.286 3 -10931953.876 2
  21606707.388   -16255868.374 3 -12666864.762 3
  24960943.997    -1225485.027 2   -954907.278 1
  22182538.852     4216528.917 4   3285642.884 2
 91  4 30 23 20 15.0030000  0  4 13 06 15 02
  22173254.271   -14059196.702 3 -10955191.281 2
  21607458.969   -16251919.776 3 -12663787.919 2
  24964317.866    -1207767.183 2   -941101.184 1
  22186538.381     4237549.296 4   3302022.409 2
 91  4 30 23 20 30.0030000  0  4 13 06 15 02
  22167602.591   -14088897.367 3 -10978334.593 1
  21608230.330   -16247873.015 3 -12660634.586 3
  24967710.013    -1189917.807 2   -927192.503 1
  22190545.701     4258608.645 4   3318432.301 2
 91  4 30 23 20 45.0030000  0  4 13 06 15 02
  22161973.988   -14118476.877 3 -11001383.473 2
  21609016.392   -16243727.643 3 -12657404.425 3
  24971130.343    -1171936.617 2   -913181.188 1
  22194562.628     4279707.336 4   3334872.825 2
 91  4 30 23 21  0.0030000  0  4 13 06 15 02
  22156370.261   -14147934.391 3 -11024337.307 2
  21609823.133   -16239482.993 3 -12654096.902 3
  24974575.557    -1153822.979 2   -899066.645 1
  22198583.140     4300845.697 4   3351344.280 2
 91  4 30 23 21 15.0030000  0  4 13 06 15 02
  22150785.127   -14177271.742 3 -11047197.511 2
  21610653.859   -16235140.850 3 -12650713.400 3
  24978042.662    -1135579.250 2   -884850.776 1
  22202614.149     4322021.854 4   3367845.174 2
 91  4 30 23 21 30.0030000  0  4 13 06 15 02
  22145226.979   -14206486.929 3 -11069962.522 2
  21611498.075   -16230699.175 3 -12647252.354 3
  24981540.340    -1117203.609 2   -870532.094 1
  22206649.661     4343237.539 4   3384376.881 2
 91  4 30 23 21 45.0030000  0  4 13 06 15 02
  22139690.715   -14235580.044 3 -11092632.419 1
  21612361.171   -16226158.217 3 -12643713.944 3
  24985064.403    -1098696.568 2   -856111.019 1
  22210693.853     4364492.350 4   3400939.069 2
 91  4 30 23 22  0.0030000  0  4 13 06 15 02
  22134176.926   -14264552.075 3 -11115207.944 1
  21613244.964   -16221518.922 3 -12640098.897 2
  24988606.448    -1080059.257 2   -841588.470 1
  22214745.855     4385784.967 4   3417530.714 2
 91  4 30 23 22 15.0030000  0  4 13 06 15 02
  22128689.225   -14293399.869 3 -11137686.680 2
  21614145.238   -16216778.165 3 -12636404.791 3
  24992193.463    -1061288.701 2   -826962.038 1
  22218807.140     4407118.371 4   3434154.143 2
 91  4 30 23 22 30.0030000  0  4 13 06 15 02
  22123221.016   -14322123.867 3 -11160068.938 2
  21615068.302   -16211936.266 3 -12632631.879 3
  24995771.490    -1042385.607 2   -812232.328 1
  22222873.224     4428491.919 4   3450808.860 2
 91  4 30 23 22 45.0030000  0  4 13 06 15 02
  22117778.284   -14350724.083 3 -11182354.743 2
  21616007.551   -16206993.424 3 -12628780.314 2
  24999396.276    -1023350.231 2   -797399.578 1
  22226947.108     4449905.449 4   3467494.720 2
 91  4 30 23 23  0.0030000  0  4 13 06 15 02
  22112359.835   -14379200.425 3 -11204544.039 2
  21616968.386   -16201949.354 3 -12624849.864 2
  25003049.252    -1004182.542 2   -782463.720 1
  22231033.277     4471358.990 4   3484211.764 2
 91  4 30 23 23 15.0030000  0  4 13 06 15 02
  22106966.566   -14407551.718 3 -11226635.872 2
  21617948.705   -16196802.915 3 -12620839.637 2
  25006724.407     -984881.625 2   -767424.054 1
  22235121.846     4492853.426 4   3500960.681 2
 91  4 30 23 23 30.0030000  0  4 13 06 15 02
  22101591.890   -14435778.452 3 -11248630.672 1
  21618945.819   -16191554.868 3 -12616750.249 2
  25010423.243     -965448.627 2   -752281.500 1
  22239218.808     4514387.736 4   3517740.661 2
 91  4 30 23 23 45.0030000  0  4 13 06 15 02
  22096245.989   -14463879.683 3 -11270527.653 2
  21619963.315   -16186204.207 3 -12612580.903 3
  25014148.166     -945882.894 2   -737035.444 1
  22243323.867     4535962.744 4   3534552.351 2
 91  4 30 23 24  0.0030000  0  4 13 06 15 02
  22090925.270   -14491855.920 3 -11292327.258 2
  21621001.489   -16180751.200 3 -12608331.803 2
  25017895.574     -926185.030 2   -721686.544 1
  22247438.515     4557577.926 4   3551395.350 2
 91  4 30 23 24 15.0030000  0  4 13 06 15 02
  22085621.642   -14519708.155 3 -11314030.218 2
  21622057.062   -16175197.165 3 -12604003.968 2
  25021665.458     -906356.324 2   -706235.468 1
  22251559.166     4579231.929 4   3568268.605 2
 91  4 30 23 24 30.0030000  0  4 13 06 15 02
  22080346.791   -14547433.198 3 -11335634.067 2
  21623136.018   -16169538.704 3 -12599594.782 3
  25025468.925     -886393.831 2   -690680.255 1
  22255686.107     4600927.728 4   3585174.419 2
 91  4 30 23 24 45.0030000  0  4 13 06 15 02
  22075094.432   -14575030.623 3 -11357138.506 2
  21624232.956   -16163775.512 3 -12595103.977 3
  25029289.485     -866297.450 2   -675020.806 1
  22259821.146     4622665.412 4   3602112.865 2
 91  4 30 23 25  0.0030000  0  4 13 06 15 02
  22069866.347   -14602502.830 3 -11378545.338 2
  21625348.182   -16157909.985 3 -12590533.431 2
  25033137.022     -846069.695 2   -659258.873 1
  22263969.377     4644442.603 4   3619082.113 2
 91  4 30 23 25 15.0030000  0  4 13 06 15 02
  22064664.053   -14629849.637 3 -11399854.487 2
  21626484.400   -16151941.775 3 -12585882.869 2
  25037016.633     -825710.853 2   -643394.878 1
  22268118.506     4666259.317 4   3636082.134 2
 91  4 30 23 25 30.0030000  0  4 13 06 15 02
  22059483.040   -14657068.810 3 -11421064.180 1
  21627641.297   -16145868.909 3 -12581150.765 3
  25040904.646     -805218.868 2   -627427.033 1
  22272277.827     4688117.262 4   3653114.305 2
 91  4 30 23 25 45.0030000  0  4 13 06 15 02
  22054326.309   -14684160.520 3 -11442174.512 2
  21628815.287   -16139691.339 3 -12576337.066 3
  25044832.821     -784593.853 2   -611355.615 1
  22276444.642     4710016.375 4   3670178.553 2
 91  4 30 23 26  0.0030000  0  4 13 06 15 02
  22049195.360   -14711125.243 3 -11463185.920 1
  21630009.955   -16133409.456 3 -12571442.093 2
  25048792.180     -763836.710 2   -595181.305 1
  22280621.343     4731956.111 4   3687274.447 2
 91  4 30 23 26 15.0030000  0  4 13 06 15 02
  22044091.093   -14737958.935 3 -11484095.223 2
  21631226.514   -16127019.400 3 -12566462.811 2
  25052764.128     -742943.866 2   -578901.093 1
  22284802.249     4753939.952 4   3704404.710 2
 91  4 30 23 26 30.0030000  0  4 13 06 15 02
  22039006.614   -14764665.256 3 -11504905.272 2
  21632461.056   -16120525.091 3 -12561402.310 2
  25056772.662     -721919.496 2   -562518.479 1
  22288996.645     4775963.965 4   3721566.279 3
 91  4 30 23 26 45.0030000  0  4 13 06 15 02
  22033948.215   -14791242.597 3 -11525614.836 2
  21633719.889   -16113924.620 3 -12556259.087 3
  25060794.073     -700761.704 2   -546031.872 1
  22293193.745     4798029.794 4   3738760.429 2
 91  4 30 23 27  0.0030000  0  4 13 06 15 02
  22028919.498   -14817690.498 3 -11546223.519 2
  21634994.304   -16107217.614 3 -12551032.842 3
  25064848.169     -679470.385 2   -529441.243 1
  22297401.926     4820137.578 4   3755987.276 2
 91  4 30 23 27 15.0030000  0  4 13 06 15 02
  22023909.061   -14844009.146 3 -11566731.480 1
  21636288.805   -16100404.215 3 -12545723.692 3
  25068919.645     -658046.243 2   -512747.049 1
  22301617.314     4842287.034 3   3773246.602 2
 91  4 30 23 27 30.0030000  0  4 13 06 15 02
  22018926.518   -14870199.312 3 -11587139.339 2
  21637607.893   -16093485.083 3 -12540332.166 2
  25073025.009     -636490.217 2   -495950.249 1
  22305839.290     4864477.132 4   3790537.584 2
 91  4 30 23 27 45.0030000  0  4 13 06 15 02
  22013964.950   -14896260.042 3 -11607446.332 2
  21638945.566   -16086459.332 3 -12534857.548 2
  25077151.645     -614801.423 2   -479049.787 1
  22310070.261     4886708.703 4   3807860.889 2
 91  4 30 23 28  0.0030000  0  4 13 06 15 02
  22009031.860   -14922191.987 3 -11627652.989 1
  21640301.832   -16079327.874 3 -12529300.565 2
  25081305.574     -592981.342 2   -462047.128 1
  22314306.624     4908980.646 4   3825215.657 2
 91  4 30 23 28 15.0030000  0  4 13 06 15 02
  22004120.968   -14947994.817 3 -11647759.031 1
  21641677.877   -16072090.118 3 -12523660.753 3
  25085484.683     -571029.428 2   -444941.711 1
  22318553.187     4931293.488 4   3842602.285 2
 91  4 30 23 28 30.0030000  0  4 13 06 15 02
  21999235.849   -14973666.276 3 -11667762.705 2
  21643079.112   -16064743.911 3 -12517936.433 2
  25089684.776     -548943.720 2   -427732.090 1
  22322807.244     4953649.137 4   3860022.264 3
 91  4 30 23 28 45.0030000  0  4 13 06 15 02
  21994376.810   -14999207.210 3 -11687664.664 2
  21644495.032   -16057290.076 3 -12512128.254 2
  25093906.454     -526725.759 2   -410419.448 1
  22327067.593     4976046.349 4   3877474.648 2
 91  4 30 23 29  0.0030000  0  4 13 06 15 02
  21989541.756   -15024614.964 3 -11707462.854 2
  21645936.428   -16049726.053 3 -12506234.197 2
  25098163.801     -504372.961 2   -393001.647 1
  22331338.132     4998487.577 4   3894961.317 2
 91  4 30 23 29 15.0030000  0  4 13 06 15 02
  21984730.984   -15049892.864 3 -11727159.860 2
  21647393.426   -16042055.156 3 -12500256.869 3
  25102435.545     -481888.734 2   -375481.387 1
  22335619.770     5020969.449 4   3912479.648 2
 91  4 30 23 29 30.0030000  0  4 13 06 15 02
  21979947.495   -15075038.840 3 -11746754.078 2
  21648877.096   -16034275.071 3 -12494194.470 3
  25106732.469     -459271.168 2   -357857.411 1
  22339905.605     5043494.117 4   3930031.339 2
 91  4 30 23 29 45.0030000  0  4 13 06 15 02
  21975184.397   -15100051.878 3 -11766244.695 2
  21650376.654   -16026384.747 3 -12488046.166 3
  25111079.763     -436519.770 2   -340129.039 1
  22344198.035     5066062.451 3   3947617.058 2
 91  4 30 23 30  0.0030000  0  4 13 06 15 02
  21970450.677   -15124934.481 3 -11785633.676 2
  21651898.103   -16018386.809 3 -12481814.010 2
  25115426.456     -413637.070 2   -322298.309 1
  22348501.556     5088671.555 3   3965234.541 2
 91  4 30 23 30 15.0030000  0  4 13 06 15 02
  21965742.433   -15149683.599 3 -11804918.641 2
  21653441.732   -16010278.402 3 -12475495.770 3
  25119815.412     -390620.390 2   -304363.238 1
  22352811.672     5111324.052 3   3982885.826 2
 91  4 30 23 30 30.0030000  0  4 13 06 15 02
  21961055.776   -15174299.918 3 -11824100.128 2
  21655005.752   -16002059.902 3 -12469091.739 3
  25124215.467     -367470.613 2   -286324.472 1
  22357130.182     5134019.189 3   4000570.348 2
 91  4 30 23 30 45.0030000  0  4 13 06 15 02
  21956397.301   -15198781.818 3 -11843176.872 2
  21656591.052   -15993729.744 3 -12462600.714 2
  25128639.804     -344186.304 2   -268180.844 1
  22361459.180     5156758.523 4   4018289.302 2
 91  4 30 23 31  0.0030000  0  4 13 06 15 02
  21951762.209   -15223129.861 3 -11862149.310 2
  21658198.845   -15985288.644 3 -12456023.235 2
  25133093.518     -320768.748 2   -249933.392 1
  22365793.587     5179541.394 4   4036042.199 2
 91  4 30 23 31 15.0030000  0  4 13 06 15 02
  21947157.402   -15247347.573 3 -11881020.228 2
  21659825.519   -15976739.921 3 -12449361.888 2
  25137585.615     -297221.354 2   -231584.748 1
  22370136.379     5202364.226 4   4053826.218 2
 91  4 30 23 31 30.0030000  0  4 13 06 15 02
  21942572.078   -15271431.660 3 -11899786.955 2
  21661472.279   -15968080.232 3 -12442614.074 3
  25142093.294     -273541.078 2   -213132.651 1
  22374486.666     5225229.989 4   4071643.687 2
 91  4 30 23 31 45.0030000  0  4 13 06 15 02
  21938015.224   -15295381.736 3 -11918449.297 2
  21663138.522   -15959309.237 3 -12435779.537 2
  25146623.152     -249727.851 2   -194576.804 1
  22378847.449     5248138.887 4   4089494.774 2
 91  4 30 23 32  0.0030000  0  4 13 06 15 02
  21933482.067   -15319198.166 3 -11937007.490 2
  21664829.648   -15950427.434 3 -12428858.657 2
  25151172.808     -225782.402 2   -175918.055 1
  22383215.422     5271090.251 4   4107378.958 2
 91  4 30 23 32 15.0030000  0  4 13 06 15 02
  21928977.381   -15342880.831 3 -11955461.453 2
  21666542.666   -15941434.741 3 -12421851.352 2
  25155762.625     -201705.069 2   -157156.486 1
  22387590.296     5294084.029 4   4125296.182 2
 91  4 30 23 32 30.0030000  0  4 13 06 15 02
  21924495.484   -15366430.683 3 -11973811.937 2
  21668273.667   -15932332.003 3 -12414758.314 3
  25160368.043     -177496.869 2   -138292.953 1
  22391972.360     5317119.040 3   4143245.535 2
